[[{"header":{"parameterUnit":"m.s-1","parameterCategory":1,"la1":31.0,"la2":29.5877,"lo1":-88.7671,"lo2":-86.6584,"dy":0.0162,"dx":0.0185,"nx":115,"ny":88,"refTime":"2024-04-18T18:00:00:Z","depth":0,"parameterNumber":2,"parameterNumberName":"U-component_of_WINDS"},"data":[0.0,0.0,0.0,0.0,0.0,0.0,0.0,0.0,0.0,0.0,0.0,0.0,0.0,0.0,0.0,0.0,0.0,0.0,0.0,0.0,0.0,0.0,0.0,0.0,0.0,0.0,0.0,0.0,0.0,0.0,0.0,0.0,0.0,0.0,0.0,0.0,0.0,0.0,0.0,0.0,0.0,0.0,0.0,0.0,0.0,0.0,0.0,0.0,0.0,0.0,0.0,0.0,0.0,0.0,0.0,0.0,0.0,0.0,0.0,0.0,0.0,0.0,0.0,0.0,0.0,0.0,0.0,0.0,0.0,0.0,0.0,0.0,0.0,0.0,0.0,0.0,0.0,0.0,0.0,0.0,0.0,0.0,0.0,0.0,0.0,0.0,0.0,0.0,0.0,0.0,0.0,0.0,0.0,0.0,0.0,0.0,0.0,0.0,0.0,0.0,0.0,0.0,0.0,0.0,0.0,0.0,0.0,0.0,0.0,0.0,0.0,0.0,0.0,0.0,0.0,0.0,0.0,0.0,0.0,0.0,0.0,0.0,0.0,0.0,0.0,0.0,0.0,0.0,0.0,0.0,0.0,0.0,0.0,0.0,0.0,0.0,0.0,0.0,0.0,0.0,0.0,0.0,0.0,0.0,0.0,0.0,0.0,0.0,0.0,0.0,0.0,0.0,0.0,0.0,0.0,0.0,0.0,0.0,0.0,0.0,0.0,0.0,0.0,0.0,0.0,0.0,0.0,0.0,0.0,0.0,0.0,0.0,0.0,0.0,0.0,0.0,0.0,0.0,0.0,0.0,0.0,0.0,0.0,0.0,0.0,0.0,0.0,0.0,0.0,0.0,0.0,0.0,0.0,0.0,0.0,0.0,0.0,0.0,0.0,0.0,0.0,0.0,0.0,0.0,0.0,0.0,0.0,0.0,0.0,0.0,0.0,0.0,0.0,0.0,0.0,0.0,0.0,0.0,0.0,0.0,0.0,0.0,0.0,0.0,0.0,0.0,0.0,0.0,0.0,0.0,0.0,0.0,0.0,0.0,0.0,0.0,0.0,0.0,0.0,0.0,0.0,0.0,0.0,0.0,0.0,0.0,0.0,0.0,0.0,0.0,0.0,0.0,0.0,0.0,0.0,0.0,0.0,0.0,0.0,0.0,0.0,0.0,0.0,0.0,0.0,0.0,0.0,0.0,0.0,0.0,0.0,0.0,0.0,0.0,0.0,0.0,0.0,0.0,0.0,0.0,0.0,0.0,0.0,0.0,0.0,0.0,0.0,0.0,0.0,0.0,0.0,0.0,0.0,0.0,0.0,0.0,0.0,0.0,0.0,0.0,0.0,0.0,0.0,0.0,0.0,0.0,0.0,0.0,0.0,0.0,0.0,0.0,0.0,0.0,0.0,0.0,0.0,0.0,0.0,0.0,0.0,0.0,0.0,0.0,0.0,0.0,0.0,0.0,0.0,0.0,0.0,0.0,0.0,0.0,0.0,0.0,0.0,0.0,0.0,0.0,0.0,0.0,0.0,0.0,0.0,0.0,0.0,0.0,0.0,0.0,0.0,0.0,0.0,0.0,0.0,0.0,0.0,0.0,0.0,0.0,0.0,0.0,0.0,0.0,0.0,0.0,0.0,0.0,0.0,0.0,0.0,0.0,0.0,0.0,0.0,0.0,0.0,0.0,0.0,0.0,0.0,0.0,0.0,0.0,0.0,0.0,0.0,0.0,0.0,0.0,0.0,0.0,0.0,0.0,0.0,0.0,0.0,0.0,0.0,0.0,0.0,0.0,0.0,0.0,0.0,0.0,0.0,0.0,0.0,0.0,0.0,0.0,0.0,0.0,0.0,0.0,0.0,0.0,0.0,0.0,0.0,0.0,0.0,0.0,0.0,0.0,0.0,0.0,0.0,0.0,0.0,0.0,0.0,0.0,0.0,0.0,0.0,0.0,0.0,0.0,0.0,0.0,0.0,0.0,0.0,0.0,0.0,0.0,0.0,0.0,0.0,0.0,0.0,0.0,0.0,0.0,0.0,0.0,0.0,0.0,0.0,0.0,0.0,0.0,0.0,0.0,0.0,0.0,0.0,0.0,0.0,0.0,0.0,0.0,0.0,0.0,0.0,0.0,0.0,0.0,0.0,0.0,0.0,0.0,0.0,0.0,0.0,0.0,0.0,0.0,0.0,0.0,0.0,0.0,0.0,0.0,0.0,0.0,0.0,0.0,0.0,0.0,0.0,0.0,0.0,0.0,0.0,0.0,0.0,0.0,0.0,0.0,0.0,0.0,0.0,0.0,0.0,0.0,0.0,0.0,0.0,0.0,0.0,0.0,0.0,0.0,0.0,0.0,0.0,0.0,0.0,0.0,0.0,0.0,0.0,0.0,0.0,0.0,0.0,0.0,0.0,0.0,0.0,0.0,0.0,0.0,0.0,0.0,0.0,0.0,0.0,0.0,0.0,0.0,0.0,0.0,0.0,0.0,0.0,0.0,0.0,0.0,0.0,0.0,0.0,0.0,0.0,0.0,0.0,0.0,0.0,0.0,0.0,0.0,0.0,0.0,0.0,0.0,0.0,0.0,0.0,0.0,0.0,0.0,0.0,0.0,0.0,0.0,0.0,0.0,0.0,0.0,0.0,0.0,0.0,0.0,0.0,0.0,0.0,0.0,0.0,0.0,0.0,0.0,0.0,0.0,0.0,0.0,0.0,0.0,0.0,0.0,0.0,0.0,0.0,0.0,0.0,0.0,0.0,0.0,0.0,0.0,0.0,0.0,0.0,0.0,0.0,0.0,0.0,0.0,0.0,0.0,0.0,0.0,0.0,0.0,0.0,0.0,0.0,0.0,0.0,0.0,0.0,0.0,0.0,0.0,0.0,0.0,0.0,0.0,0.0,0.0,0.0,0.0,0.0,0.0,0.0,0.0,0.0,0.0,0.0,0.0,0.0,0.0,0.0,0.0,0.0,0.0,0.0,0.0,0.0,0.0,0.0,0.0,0.0,0.0,0.0,0.0,0.0,0.0,0.0,0.0,0.0,0.0,0.0,0.0,0.0,0.0,0.0,0.0,0.0,0.0,0.0,0.0,0.0,0.0,0.0,0.0,0.0,0.0,0.0,0.0,0.0,0.0,0.0,0.0,0.0,0.0,0.0,0.0,0.0,0.0,0.0,0.0,0.0,0.0,0.0,0.0,0.0,0.0,0.0,0.0,0.0,0.0,0.0,0.0,0.0,0.0,0.0,0.0,0.0,0.0,0.0,0.0,0.0,0.0,0.0,0.0,0.0,0.0,0.0,0.0,0.0,0.0,0.0,0.0,0.0,0.0,0.0,0.0,0.0,0.0,0.0,0.0,0.0,0.0,0.0,0.0,0.0,0.0,0.0,0.0,0.0,0.0,0.0,0.0,0.0,0.0,0.0,0.0,0.0,0.0,0.0,0.0,0.0,0.0,0.0,0.0,0.0,0.0,0.0,0.0,0.0,0.0,0.0,0.0,0.0,0.0,0.0,0.0,0.0,0.0,0.0,0.0,0.0,0.0,0.0,0.0,0.0,0.0,0.0,0.0,0.0,0.0,0.0,0.0,0.0,0.0,0.0,0.0,0.0,0.0,0.0,0.0,0.0,0.0,0.0,0.0,0.0,0.0,0.0,0.0,0.0,0.0,0.0,0.0,0.0,0.0,0.0,0.0,0.0,0.0,0.0,0.0,0.0,0.0,0.0,0.0,0.0,0.0,0.0,0.0,0.0,0.0,0.0,0.0,0.0,0.0,0.0,0.0,0.0,0.0,0.0,0.0,0.0,0.0,0.0,0.0,0.0,0.0,0.0,0.0,0.0,0.0,0.0,0.0,0.0,0.0,0.0,0.0,0.0,0.0,0.0,0.0,0.0,0.0,0.0,0.0,0.0,0.0,0.0,0.0,0.0,0.0,0.0,0.0,0.0,0.0,0.0,0.0,0.0,0.0,0.0,0.0,0.0,0.0,0.0,0.0,0.0,0.0,0.0,0.0,0.0,0.0,0.0,0.0,0.0,0.0,0.0,0.0,0.0,0.0,0.0,0.0,0.0,0.0,0.0,0.0,0.0,0.0,0.0,0.0,0.0,0.0,0.0,0.0,0.0,0.0,0.0,0.0,0.0,0.0,0.0,0.0,0.0,0.0,0.0,0.0,0.0,0.0,0.0,0.0,0.0,0.0,0.0,0.0,0.0,0.0,0.0,0.0,0.0,0.0,0.0,0.0,0.0,0.0,0.0,0.0,0.0,0.0,0.0,0.0,0.0,0.0,0.0,0.0,-1.493,0.0,0.0,0.0,0.0,0.0,0.0,0.0,0.0,0.0,0.0,0.0,0.0,0.0,0.0,0.0,0.0,0.0,0.0,0.0,0.0,0.0,0.0,0.0,0.0,0.0,0.0,0.0,0.0,0.0,0.0,0.0,0.0,0.0,0.0,0.0,0.0,0.0,0.0,0.0,0.0,0.0,0.0,0.0,0.0,0.0,0.0,0.0,0.0,0.0,0.0,0.0,0.0,0.0,0.0,0.0,0.0,0.0,0.0,0.0,0.0,0.0,0.0,0.0,0.0,0.0,0.0,0.0,0.0,0.0,0.0,0.0,0.0,0.0,0.0,0.0,0.0,0.0,0.0,0.0,0.0,0.0,0.0,0.0,0.0,0.0,0.0,0.0,0.0,0.0,0.0,0.0,0.0,0.0,0.0,0.0,0.0,0.0,0.0,0.0,0.0,0.0,0.0,0.0,0.0,0.0,0.0,0.0,0.0,0.0,0.0,-1.5551,-1.486,-1.6391,-1.6464,-1.4865,0.0,0.0,0.0,0.0,0.0,0.0,0.0,0.0,0.0,0.0,0.0,0.0,0.0,0.0,0.0,0.0,0.0,0.0,0.0,0.0,0.0,0.0,0.0,0.0,0.0,0.0,0.0,0.0,0.0,0.0,0.0,0.0,0.0,0.0,0.0,0.0,0.0,0.0,0.0,0.0,0.0,0.0,0.0,0.0,0.0,0.0,0.0,0.0,0.0,0.0,0.0,0.0,0.0,0.0,0.0,0.0,0.0,0.0,0.0,0.0,0.0,0.0,0.0,0.0,0.0,0.0,0.0,0.0,0.0,0.0,0.0,0.0,0.0,0.0,0.0,0.0,0.0,0.0,0.0,0.0,0.0,0.0,0.0,0.0,0.0,0.0,0.0,0.0,0.0,0.0,0.0,0.0,0.0,0.0,0.0,0.0,0.0,0.0,0.0,0.0,0.0,0.0,0.0,0.0,0.0,0.0,0.0,0.0,0.0,0.0,0.0,0.0,-1.6972,-1.6989,-1.5939,0.0,0.0,0.0,0.0,0.0,0.0,0.0,0.0,0.0,0.0,0.0,0.0,0.0,0.0,0.0,0.0,0.0,0.0,0.0,0.0,0.0,0.0,0.0,0.0,0.0,0.0,0.0,0.0,0.0,0.0,0.0,0.0,0.0,0.0,0.0,0.0,0.0,0.0,0.0,0.0,0.0,0.0,0.0,0.0,0.0,0.0,0.0,0.0,0.0,0.0,0.0,0.0,0.0,0.0,0.0,0.0,0.0,0.0,0.0,0.0,0.0,0.0,0.0,0.0,0.0,0.0,0.0,0.0,0.0,0.0,0.0,0.0,0.0,0.0,0.0,0.0,0.0,0.0,0.0,0.0,0.0,0.0,0.0,0.0,0.0,0.0,0.0,0.0,0.0,0.0,0.0,0.0,0.0,0.0,0.0,0.0,0.0,0.0,0.0,0.0,0.0,0.0,0.0,0.0,0.0,0.0,0.0,0.0,0.0,0.0,-1.6319,-1.9237,-1.8755,0.0,-1.9133,0.0,0.0,0.0,0.0,0.0,0.0,0.0,0.0,0.0,0.0,0.0,0.0,0.0,0.0,0.0,0.0,0.0,0.0,0.0,0.0,0.0,0.0,0.0,0.0,0.0,0.0,0.0,0.0,0.0,0.0,0.0,0.0,0.0,0.0,0.0,0.0,0.0,0.0,0.0,0.0,0.0,0.0,0.0,0.0,0.0,0.0,0.0,0.0,0.0,0.0,0.0,0.0,0.0,0.0,0.0,0.0,0.0,0.0,0.0,0.0,0.0,0.0,0.0,0.0,0.0,0.0,0.0,0.0,0.0,0.0,0.0,0.0,0.0,0.0,0.0,0.0,0.0,0.0,0.0,0.0,0.0,0.0,0.0,0.0,0.0,0.0,0.0,0.0,0.0,0.0,0.0,0.0,0.0,0.0,0.0,0.0,0.0,0.0,0.0,0.0,0.0,0.0,0.0,0.0,0.0,0.0,0.0,0.0,0.0,0.0,-1.6591,-1.8975,-1.8732,-1.8191,0.0,0.0,0.0,0.0,0.0,0.0,0.0,0.0,0.0,0.0,0.0,0.0,0.0,0.0,0.0,0.0,0.0,0.0,0.0,0.0,0.0,0.0,0.0,0.0,0.0,0.0,0.0,0.0,0.0,0.0,0.0,0.0,0.0,0.0,0.0,0.0,0.0,0.0,0.0,0.0,0.0,0.0,0.0,0.0,0.0,0.0,0.0,0.0,0.0,0.0,0.0,0.0,0.0,0.0,0.0,0.0,0.0,0.0,0.0,0.0,0.0,0.0,0.0,0.0,0.0,0.0,0.0,0.0,0.0,0.0,0.0,0.0,0.0,0.0,0.0,0.0,0.0,0.0,0.0,0.0,0.0,0.0,0.0,0.0,0.0,0.0,0.0,0.0,0.0,0.0,0.0,0.0,0.0,0.0,0.0,0.0,0.0,0.0,0.0,0.0,0.0,0.0,0.0,0.0,0.0,0.0,0.0,0.0,0.0,0.0,-1.6819,-1.7563,-1.9375,-1.8603,-1.7645,-1.6646,0.0,0.0,0.0,0.0,0.0,0.0,0.0,0.0,0.0,0.0,0.0,0.0,0.0,0.0,0.0,0.0,0.0,0.0,0.0,0.0,0.0,0.0,0.0,0.0,0.0,0.0,0.0,0.0,0.0,0.0,0.0,0.0,0.0,0.0,0.0,0.0,0.0,0.0,0.0,0.0,0.0,0.0,0.0,0.0,0.0,0.0,0.0,0.0,0.0,0.0,0.0,0.0,0.0,0.0,0.0,0.0,0.0,0.0,0.0,0.0,0.0,0.0,0.0,0.0,0.0,0.0,0.0,0.0,0.0,0.0,0.0,0.0,0.0,0.0,0.0,0.0,0.0,0.0,0.0,0.0,0.0,0.0,0.0,0.0,0.0,0.0,0.0,0.0,0.0,0.0,0.0,0.0,0.0,0.0,0.0,0.0,0.0,0.0,0.0,0.0,0.0,0.0,0.0,0.0,0.0,0.0,0.0,0.0,-2.2681,-1.9988,-1.9588,-2.1895,-1.8927,-1.7547,0.0,0.0,0.0,0.0,0.0,0.0,0.0,0.0,0.0,0.0,0.0,0.0,0.0,0.0,0.0,0.0,0.0,0.0,0.0,0.0,0.0,0.0,0.0,0.0,0.0,0.0,0.0,0.0,0.0,0.0,0.0,0.0,0.0,0.0,0.0,0.0,0.0,0.0,0.0,0.0,0.0,0.0,0.0,0.0,0.0,0.0,0.0,0.0,0.0,0.0,0.0,0.0,0.0,0.0,0.0,0.0,0.0,0.0,0.0,0.0,0.0,0.0,0.0,0.0,0.0,0.0,0.0,0.0,0.0,0.0,0.0,0.0,0.0,0.0,0.0,0.0,0.0,0.0,0.0,0.0,0.0,0.0,0.0,0.0,0.0,0.0,0.0,0.0,0.0,0.0,0.0,0.0,0.0,0.0,0.0,0.0,0.0,0.0,0.0,0.0,0.0,0.0,0.0,0.0,0.0,0.0,0.0,0.0,0.0,-1.7862,-1.8845,-1.9982,-2.1287,-1.9719,-1.8971,0.0,0.0,0.0,0.0,0.0,0.0,0.0,0.0,0.0,0.0,0.0,0.0,0.0,0.0,0.0,0.0,0.0,0.0,0.0,0.0,0.0,0.0,0.0,0.0,0.0,0.0,0.0,0.0,0.0,0.0,0.0,0.0,0.0,0.0,0.0,0.0,0.0,0.0,0.0,0.0,0.0,0.0,0.0,0.0,0.0,0.0,0.0,0.0,0.0,0.0,0.0,0.0,0.0,0.0,0.0,0.0,0.0,0.0,0.0,0.0,0.0,0.0,0.0,0.0,0.0,0.0,0.0,0.0,0.0,0.0,0.0,0.0,0.0,0.0,0.0,0.0,0.0,0.0,0.0,0.0,0.0,0.0,0.0,0.0,0.0,0.0,0.0,0.0,0.0,0.0,0.0,0.0,0.0,0.0,0.0,0.0,0.0,0.0,0.0,0.0,0.0,0.0,0.0,0.0,0.0,0.0,0.0,0.0,0.0,-1.7218,0.0,-2.1913,-2.2105,-2.0562,-1.9482,0.0,0.0,0.0,0.0,0.0,0.0,0.0,0.0,0.0,0.0,0.0,0.0,0.0,0.0,0.0,0.0,0.0,0.0,0.0,0.0,0.0,0.0,0.0,0.0,0.0,0.0,0.0,0.0,0.0,0.0,0.0,0.0,0.0,0.0,0.0,0.0,0.0,0.0,0.0,0.0,0.0,0.0,0.0,0.0,0.0,0.0,0.0,0.0,0.0,0.0,0.0,0.0,0.0,0.0,0.0,0.0,0.0,0.0,0.0,0.0,0.0,0.0,0.0,0.0,0.0,0.0,0.0,0.0,0.0,0.0,0.0,0.0,0.0,0.0,0.0,0.0,0.0,0.0,0.0,0.0,0.0,0.0,0.0,0.0,0.0,0.0,0.0,0.0,0.0,0.0,0.0,0.0,0.0,0.0,0.0,0.0,0.0,0.0,0.0,0.0,0.0,0.0,0.0,0.0,0.0,0.0,0.0,0.0,-1.7234,-2.1894,-2.4409,-2.5276,-2.4761,-2.1435,-1.8902,0.0,0.0,0.0,0.0,0.0,0.0,0.0,0.0,0.0,0.0,0.0,0.0,0.0,0.0,0.0,0.0,0.0,0.0,0.0,0.0,0.0,0.0,0.0,0.0,0.0,0.0,0.0,0.0,0.0,0.0,0.0,0.0,0.0,0.0,0.0,0.0,0.0,0.0,0.0,0.0,0.0,0.0,0.0,0.0,0.0,0.0,0.0,0.0,0.0,0.0,0.0,0.0,0.0,0.0,0.0,0.0,0.0,0.0,0.0,0.0,0.0,0.0,0.0,0.0,0.0,0.0,0.0,0.0,0.0,0.0,0.0,0.0,0.0,0.0,0.0,0.0,0.0,0.0,0.0,0.0,0.0,0.0,0.0,0.0,0.0,0.0,0.0,0.0,0.0,0.0,0.0,0.0,0.0,0.0,0.0,0.0,0.0,0.0,0.0,0.0,0.0,0.0,0.0,0.0,0.0,0.0,0.0,0.0,0.0,-1.9624,-2.2655,-2.4951,-2.6242,-2.2025,-2.0289,0.0,0.0,0.0,0.0,0.0,0.0,0.0,0.0,0.0,0.0,0.0,0.0,0.0,0.0,0.0,0.0,0.0,0.0,0.0,0.0,0.0,0.0,0.0,0.0,0.0,0.0,0.0,0.0,0.0,0.0,0.0,0.0,0.0,0.0,0.0,0.0,0.0,0.0,0.0,0.0,0.0,0.0,0.0,0.0,0.0,0.0,0.0,0.0,0.0,0.0,0.0,0.0,0.0,0.0,0.0,0.0,0.0,0.0,0.0,0.0,0.0,0.0,0.0,0.0,0.0,0.0,0.0,0.0,0.0,0.0,0.0,0.0,0.0,0.0,0.0,0.0,0.0,0.0,0.0,0.0,0.0,0.0,0.0,0.0,0.0,0.0,0.0,0.0,0.0,0.0,0.0,0.0,0.0,0.0,0.0,0.0,0.0,0.0,0.0,0.0,0.0,0.0,0.0,0.0,0.0,0.0,0.0,0.0,0.0,-2.1342,-2.4507,-2.6854,-2.8129,-2.3908,-2.1937,-2.2551,0.0,0.0,0.0,0.0,0.0,0.0,0.0,0.0,0.0,0.0,0.0,0.0,0.0,0.0,0.0,0.0,0.0,0.0,0.0,0.0,0.0,0.0,0.0,0.0,0.0,0.0,0.0,0.0,0.0,0.0,0.0,0.0,0.0,0.0,0.0,0.0,0.0,0.0,0.0,0.0,0.0,0.0,0.0,0.0,0.0,0.0,0.0,0.0,0.0,0.0,0.0,0.0,0.0,0.0,0.0,0.0,0.0,0.0,0.0,0.0,0.0,0.0,0.0,0.0,0.0,0.0,0.0,0.0,0.0,0.0,0.0,0.0,0.0,0.0,0.0,0.0,0.0,0.0,0.0,0.0,0.0,0.0,0.0,0.0,0.0,0.0,0.0,0.0,0.0,0.0,0.0,0.0,0.0,0.0,0.0,0.0,0.0,0.0,0.0,0.0,0.0,0.0,0.0,0.0,0.0,0.0,0.0,0.0,-2.5937,-2.9279,-3.0697,-3.0017,-2.6594,-2.3736,0.0,0.0,0.0,0.0,0.0,0.0,0.0,0.0,0.0,0.0,0.0,0.0,0.0,0.0,0.0,0.0,0.0,0.0,0.0,0.0,0.0,0.0,0.0,0.0,0.0,0.0,0.0,0.0,0.0,0.0,0.0,0.0,0.0,0.0,0.0,0.0,0.0,0.0,0.0,0.0,0.0,0.0,0.0,0.0,0.0,0.0,0.0,0.0,0.0,0.0,0.0,0.0,0.0,0.0,0.0,0.0,0.0,0.0,0.0,0.0,0.0,0.0,0.0,0.0,0.0,0.0,0.0,0.0,0.0,0.0,0.0,0.0,0.0,0.0,0.0,0.0,0.0,0.0,0.0,0.0,0.0,0.0,0.0,0.0,0.0,0.0,0.0,0.0,0.0,0.0,0.0,0.0,0.0,0.0,0.0,0.0,0.0,0.0,0.0,0.0,0.0,0.0,0.0,0.0,0.0,0.0,0.0,0.0,0.0,-2.6885,-3.0772,-3.2742,-3.2496,-2.7576,-2.4594,0.0,0.0,0.0,0.0,0.0,0.0,0.0,0.0,0.0,0.0,0.0,0.0,0.0,0.0,0.0,0.0,0.0,0.0,0.0,0.0,0.0,0.0,0.0,0.0,0.0,0.0,0.0,0.0,0.0,0.0,0.0,0.0,0.0,0.0,0.0,0.0,0.0,0.0,0.0,0.0,0.0,0.0,0.0,0.0,0.0,0.0,0.0,0.0,0.0,0.0,0.0,0.0,0.0,0.0,0.0,0.0,0.0,0.0,0.0,0.0,0.0,0.0,0.0,0.0,0.0,0.0,0.0,0.0,0.0,0.0,0.0,0.0,0.0,0.0,0.0,0.0,0.0,0.0,0.0,0.0,0.0,0.0,0.0,0.0,0.0,0.0,0.0,0.0,0.0,0.0,0.0,0.0,0.0,0.0,0.0,0.0,0.0,0.0,0.0,0.0,0.0,0.0,0.0,0.0,0.0,0.0,0.0,0.0,-2.5579,-2.8801,-3.1974,-3.3836,-3.426,-2.9953,-2.6783,0.0,0.0,0.0,0.0,0.0,0.0,0.0,0.0,0.0,0.0,0.0,0.0,0.0,0.0,0.0,0.0,0.0,0.0,0.0,0.0,0.0,0.0,0.0,0.0,0.0,0.0,0.0,0.0,0.0,0.0,0.0,0.0,0.0,0.0,0.0,0.0,0.0,0.0,0.0,0.0,0.0,0.0,0.0,0.0,0.0,0.0,0.0,0.0,0.0,0.0,0.0,0.0,0.0,0.0,0.0,0.0,0.0,0.0,0.0,0.0,0.0,0.0,0.0,0.0,0.0,0.0,0.0,0.0,0.0,0.0,0.0,0.0,0.0,0.0,0.0,0.0,0.0,0.0,0.0,0.0,0.0,0.0,0.0,0.0,0.0,0.0,0.0,0.0,0.0,0.0,0.0,0.0,0.0,0.0,0.0,0.0,0.0,0.0,0.0,0.0,0.0,0.0,0.0,0.0,0.0,0.0,0.0,0.0,-2.6868,-3.1018,-3.2957,-3.4353,-3.5095,-3.2615,-2.9325,0.0,0.0,0.0,0.0,0.0,0.0,0.0,0.0,0.0,0.0,0.0,0.0,0.0,0.0,0.0,0.0,0.0,0.0,0.0,0.0,0.0,0.0,0.0,0.0,0.0,0.0,0.0,0.0,0.0,0.0,0.0,0.0,0.0,0.0,0.0,0.0,0.0,0.0,0.0,0.0,0.0,0.0,0.0,0.0,0.0,0.0,0.0,0.0,0.0,0.0,0.0,0.0,0.0,0.0,0.0,0.0,0.0,0.0,0.0,0.0,0.0,0.0,0.0,0.0,0.0,0.0,0.0,0.0,0.0,0.0,0.0,0.0,0.0,0.0,0.0,0.0,0.0,0.0,0.0,0.0,0.0,0.0,0.0,0.0,0.0,0.0,0.0,0.0,0.0,0.0,0.0,0.0,0.0,0.0,0.0,0.0,0.0,0.0,0.0,0.0,0.0,0.0,0.0,0.0,0.0,0.0,0.0,0.0,-2.6896,-3.1151,-3.3595,-3.4975,-3.5239,-3.2187,-2.9117,0.0,0.0,0.0,0.0,0.0,0.0,0.0,0.0,0.0,0.0,0.0,0.0,0.0,0.0,0.0,0.0,0.0,0.0,0.0,0.0,0.0,0.0,0.0,0.0,0.0,0.0,0.0,0.0,0.0,0.0,0.0,0.0,0.0,0.0,0.0,0.0,0.0,0.0,0.0,0.0,0.0,0.0,0.0,0.0,0.0,0.0,0.0,0.0,-1.6393,0.0,0.0,0.0,0.0,0.0,0.0,0.0,0.0,0.0,0.0,0.0,0.0,0.0,0.0,0.0,0.0,0.0,0.0,0.0,0.0,0.0,0.0,0.0,0.0,0.0,0.0,0.0,0.0,0.0,0.0,0.0,0.0,0.0,0.0,0.0,0.0,0.0,0.0,0.0,0.0,0.0,0.0,0.0,0.0,0.0,0.0,0.0,0.0,0.0,0.0,0.0,0.0,0.0,0.0,0.0,0.0,0.0,0.0,0.0,-2.8582,-3.2454,-3.4287,-3.5266,-3.5302,-3.2917,-3.0118,0.0,0.0,0.0,0.0,0.0,0.0,0.0,0.0,0.0,0.0,0.0,0.0,0.0,0.0,0.0,0.0,0.0,0.0,0.0,0.0,0.0,0.0,0.0,0.0,0.0,0.0,0.0,0.0,0.0,0.0,0.0,0.0,0.0,0.0,0.0,0.0,0.0,0.0,0.0,0.0,0.0,0.0,0.0,0.0,0.0,0.0,0.0,0.0,0.0,0.0,0.0,0.0,0.0,0.0,0.0,0.0,0.0,0.0,0.0,0.0,0.0,0.0,0.0,0.0,0.0,0.0,0.0,0.0,0.0,0.0,0.0,0.0,0.0,0.0,0.0,0.0,0.0,0.0,0.0,0.0,0.0,0.0,0.0,0.0,0.0,0.0,0.0,0.0,0.0,0.0,0.0,0.0,0.0,0.0,0.0,0.0,0.0,0.0,0.0,0.0,0.0,0.0,0.0,0.0,0.0,0.0,0.0,-2.6951,-3.0258,-3.3857,-3.4879,-3.5369,-3.5475,-3.3894,-3.1314,-2.7746,0.0,0.0,0.0,0.0,0.0,0.0,0.0,0.0,0.0,0.0,0.0,0.0,0.0,0.0,0.0,0.0,0.0,0.0,0.0,0.0,0.0,0.0,0.0,0.0,0.0,0.0,0.0,0.0,0.0,0.0,0.0,0.0,0.0,0.0,0.0,0.0,0.0,0.0,-1.484,-1.5816,0.0,0.0,0.0,0.0,0.0,0.0,0.0,0.0,-1.667,0.0,0.0,0.0,0.0,0.0,0.0,0.0,0.0,0.0,0.0,0.0,0.0,0.0,0.0,0.0,0.0,0.0,0.0,0.0,0.0,0.0,0.0,0.0,0.0,0.0,0.0,0.0,0.0,0.0,0.0,0.0,0.0,0.0,0.0,0.0,0.0,0.0,0.0,0.0,0.0,0.0,0.0,0.0,0.0,0.0,0.0,0.0,0.0,0.0,0.0,0.0,0.0,0.0,0.0,0.0,0.0,-2.585,-2.6459,-2.91,-3.394,-3.4983,-3.5475,-3.5457,-3.3934,-3.1378,-2.781,0.0,0.0,0.0,0.0,0.0,0.0,0.0,0.0,0.0,0.0,0.0,0.0,0.0,0.0,0.0,0.0,0.0,0.0,0.0,0.0,0.0,0.0,0.0,0.0,0.0,0.0,0.0,0.0,0.0,0.0,0.0,0.0,0.0,0.0,0.0,0.0,0.0,0.0,0.0,-1.789,-1.8571,0.0,0.0,0.0,0.0,0.0,0.0,0.0,0.0,-1.6701,0.0,0.0,0.0,0.0,0.0,0.0,0.0,0.0,0.0,0.0,0.0,0.0,0.0,0.0,0.0,0.0,0.0,0.0,0.0,0.0,0.0,0.0,0.0,0.0,0.0,0.0,0.0,0.0,0.0,0.0,0.0,0.0,0.0,0.0,0.0,0.0,0.0,0.0,0.0,0.0,0.0,0.0,0.0,0.0,0.0,0.0,0.0,0.0,0.0,0.0,0.0,0.0,0.0,0.0,0.0,-2.5463,-2.7491,-3.0299,-3.4006,-3.502,-3.5528,-3.5546,-3.3577,-3.096,0.0,0.0,0.0,0.0,0.0,0.0,0.0,0.0,0.0,0.0,0.0,0.0,0.0,0.0,0.0,0.0,0.0,0.0,0.0,0.0,0.0,0.0,0.0,0.0,0.0,0.0,0.0,0.0,0.0,0.0,0.0,0.0,0.0,0.0,0.0,0.0,0.0,0.0,0.0,0.0,-1.8273,-1.88,-1.8906,0.0,0.0,0.0,0.0,0.0,0.0,-1.6861,-1.6349,0.0,0.0,0.0,0.0,0.0,0.0,0.0,0.0,0.0,0.0,0.0,0.0,0.0,0.0,0.0,0.0,0.0,0.0,0.0,0.0,0.0,0.0,0.0,0.0,0.0,0.0,0.0,0.0,0.0,0.0,0.0,0.0,0.0,0.0,0.0,0.0,0.0,0.0,0.0,0.0,0.0,0.0,0.0,0.0,0.0,0.0,0.0,0.0,0.0,0.0,0.0,0.0,0.0,0.0,0.0,-2.5234,-2.863,-3.1614,-3.4108,-3.5071,-3.5595,-3.5659,-3.3391,-3.0776,0.0,0.0,0.0,0.0,0.0,0.0,0.0,0.0,0.0,0.0,0.0,0.0,0.0,0.0,0.0,0.0,0.0,0.0,0.0,0.0,0.0,0.0,0.0,0.0,0.0,0.0,0.0,0.0,0.0,0.0,0.0,0.0,0.0,0.0,0.0,0.0,0.0,0.0,0.0,0.0,0.0,-1.911,-1.9685,-1.902,0.0,0.0,0.0,0.0,-1.7854,-1.7472,0.0,0.0,0.0,0.0,0.0,0.0,0.0,0.0,0.0,0.0,0.0,0.0,0.0,0.0,0.0,0.0,0.0,0.0,0.0,0.0,0.0,0.0,0.0,0.0,0.0,0.0,0.0,0.0,0.0,0.0,0.0,0.0,0.0,0.0,0.0,0.0,0.0,0.0,0.0,0.0,0.0,0.0,0.0,0.0,0.0,0.0,0.0,0.0,0.0,0.0,0.0,0.0,0.0,0.0,0.0,0.0,-2.6066,-2.89,-3.1621,-3.4183,-3.5137,-3.5653,-3.5751,-3.4011,-3.1413,0.0,0.0,0.0,0.0,0.0,0.0,0.0,0.0,0.0,0.0,0.0,0.0,0.0,0.0,0.0,0.0,0.0,0.0,0.0,0.0,0.0,0.0,0.0,0.0,0.0,0.0,0.0,0.0,0.0,0.0,0.0,0.0,0.0,0.0,0.0,0.0,0.0,0.0,0.0,0.0,0.0,-2.1001,-2.046,-1.9785,-1.9568,0.0,0.0,-1.9623,-2.1168,-2.1343,0.0,0.0,0.0,0.0,0.0,0.0,0.0,0.0,0.0,0.0,0.0,0.0,0.0,0.0,0.0,0.0,0.0,0.0,0.0,0.0,0.0,0.0,0.0,0.0,0.0,0.0,0.0,0.0,0.0,0.0,0.0,0.0,0.0,0.0,0.0,0.0,0.0,0.0,0.0,0.0,0.0,0.0,0.0,0.0,0.0,0.0,0.0,0.0,0.0,0.0,0.0,0.0,0.0,0.0,0.0,-2.2989,-2.6276,-2.949,-3.2196,-3.4281,-3.5212,-3.5694,-3.5799,-3.3677,-3.0824,0.0,0.0,0.0,0.0,0.0,0.0,0.0,0.0,0.0,0.0,0.0,0.0,0.0,0.0,0.0,0.0,0.0,0.0,0.0,0.0,0.0,0.0,0.0,0.0,0.0,0.0,0.0,0.0,0.0,0.0,0.0,0.0,0.0,0.0,0.0,0.0,0.0,0.0,0.0,0.0,0.0,0.0,-2.2409,-2.1974,0.0,0.0,0.0,-2.0965,-2.1226,0.0,0.0,0.0,0.0,0.0,0.0,0.0,0.0,0.0,0.0,0.0,0.0,0.0,0.0,0.0,0.0,0.0,0.0,0.0,0.0,0.0,0.0,0.0,0.0,0.0,0.0,0.0,0.0,0.0,0.0,0.0,0.0,0.0,0.0,0.0,0.0,0.0,0.0,0.0,0.0,0.0,0.0,0.0,0.0,0.0,0.0,0.0,0.0,0.0,0.0,0.0,0.0,0.0,0.0,0.0,0.0,0.0,-2.6308,-3.0155,-3.2875,-3.4352,-3.5263,-3.576,-3.5772,-3.3553,0.0,0.0,0.0,0.0,0.0,0.0,0.0,0.0,0.0,0.0,0.0,0.0,0.0,0.0,0.0,0.0,0.0,0.0,0.0,0.0,0.0,0.0,0.0,0.0,0.0,0.0,0.0,-1.2209,0.0,0.0,0.0,0.0,0.0,0.0,0.0,0.0,0.0,0.0,0.0,0.0,0.0,0.0,-2.1811,-2.3556,-2.3401,-2.3215,0.0,0.0,-2.2148,-2.198,-2.2049,-2.2051,0.0,0.0,0.0,0.0,0.0,0.0,0.0,0.0,0.0,0.0,0.0,0.0,0.0,0.0,0.0,0.0,0.0,0.0,0.0,0.0,0.0,0.0,0.0,0.0,0.0,0.0,0.0,0.0,0.0,0.0,0.0,0.0,0.0,0.0,0.0,0.0,0.0,0.0,0.0,0.0,0.0,0.0,0.0,0.0,0.0,0.0,0.0,0.0,0.0,0.0,0.0,0.0,0.0,0.0,0.0,-2.639,-3.0728,-3.3461,-3.4376,-3.5314,-3.5834,-3.5878,-3.4143,-3.1514,0.0,0.0,0.0,0.0,0.0,0.0,0.0,0.0,0.0,0.0,0.0,0.0,0.0,0.0,0.0,0.0,0.0,0.0,0.0,0.0,0.0,0.0,0.0,0.0,0.0,0.0,0.0,0.0,0.0,0.0,0.0,0.0,0.0,0.0,0.0,0.0,0.0,0.0,0.0,0.0,0.0,-2.2786,-2.2969,-2.305,-2.3628,0.0,0.0,-2.3552,-2.5115,-2.5355,-2.5139,-2.4441,0.0,0.0,0.0,0.0,0.0,0.0,0.0,0.0,0.0,0.0,0.0,0.0,0.0,0.0,0.0,0.0,0.0,0.0,0.0,0.0,0.0,0.0,0.0,0.0,0.0,0.0,0.0,0.0,0.0,0.0,0.0,0.0,0.0,0.0,0.0,0.0,0.0,0.0,0.0,0.0,0.0,0.0,0.0,0.0,0.0,0.0,0.0,0.0,0.0,0.0,0.0,0.0,0.0,-2.6167,-2.7848,-3.1852,-3.4347,-3.5228,-3.5629,-3.583,-3.5895,-3.4208,-3.1893,0.0,0.0,0.0,0.0,0.0,0.0,0.0,0.0,0.0,0.0,0.0,0.0,0.0,0.0,0.0,0.0,0.0,0.0,0.0,0.0,0.0,0.0,0.0,0.0,0.0,0.0,0.0,0.0,-1.3591,-1.3567,-1.37,0.0,0.0,0.0,0.0,0.0,0.0,0.0,0.0,0.0,0.0,-2.4146,-2.5052,-2.5267,0.0,0.0,-2.4625,-2.481,-2.5532,-2.5253,-2.5055,-2.5291,-2.5076,0.0,0.0,0.0,0.0,0.0,0.0,0.0,0.0,0.0,0.0,0.0,0.0,0.0,0.0,0.0,0.0,0.0,0.0,0.0,0.0,0.0,0.0,0.0,0.0,0.0,0.0,0.0,0.0,0.0,0.0,0.0,0.0,0.0,0.0,0.0,0.0,0.0,0.0,0.0,0.0,0.0,0.0,0.0,0.0,0.0,0.0,0.0,0.0,0.0,0.0,0.0,0.0,-2.702,-2.8421,-3.2364,-3.4865,-3.576,-3.5821,-3.5846,-3.5846,-3.445,-3.2453,0.0,0.0,0.0,0.0,0.0,0.0,0.0,0.0,0.0,0.0,0.0,0.0,0.0,0.0,0.0,0.0,0.0,0.0,0.0,0.0,0.0,0.0,0.0,0.0,0.0,0.0,0.0,0.0,-1.4154,-1.4104,-1.4473,0.0,0.0,0.0,0.0,0.0,0.0,0.0,0.0,0.0,0.0,-2.556,-2.652,-2.6667,-2.6364,-2.5441,-2.5628,-2.5982,-2.6271,-2.5672,-2.5318,-2.5624,0.0,0.0,0.0,0.0,0.0,0.0,0.0,0.0,0.0,0.0,0.0,0.0,0.0,0.0,0.0,0.0,0.0,0.0,0.0,0.0,0.0,0.0,0.0,0.0,0.0,0.0,0.0,0.0,0.0,0.0,-1.7572,0.0,0.0,0.0,0.0,0.0,0.0,0.0,0.0,0.0,0.0,0.0,0.0,0.0,0.0,0.0,0.0,0.0,0.0,0.0,0.0,0.0,0.0,-2.6766,-2.7701,-3.216,-3.4865,-3.5765,-3.5869,-3.5885,-3.5866,-3.5043,-3.3315,-3.0616,0.0,0.0,0.0,0.0,0.0,0.0,0.0,0.0,0.0,0.0,0.0,0.0,0.0,0.0,0.0,0.0,0.0,0.0,0.0,0.0,0.0,0.0,0.0,0.0,0.0,0.0,-1.5415,-1.4742,-1.4673,0.0,0.0,0.0,0.0,0.0,0.0,0.0,0.0,0.0,0.0,-2.7102,-2.698,-2.6846,-2.6759,-2.695,-2.7635,-2.7142,-2.6952,-2.7754,-2.7233,-2.6447,0.0,0.0,0.0,0.0,0.0,0.0,0.0,0.0,0.0,0.0,0.0,0.0,0.0,0.0,0.0,0.0,0.0,0.0,0.0,0.0,0.0,0.0,0.0,0.0,0.0,0.0,0.0,-2.1985,-2.1997,0.0,0.0,0.0,0.0,0.0,0.0,0.0,0.0,0.0,0.0,0.0,-3.1533,-3.1604,0.0,0.0,0.0,0.0,0.0,0.0,0.0,0.0,0.0,0.0,0.0,0.0,-2.7899,-2.9379,-3.3225,-3.5436,-3.5783,-3.5827,-3.5859,-3.588,-3.5048,-3.3075,-2.9852,0.0,0.0,0.0,0.0,0.0,0.0,0.0,0.0,0.0,0.0,0.0,0.0,0.0,0.0,0.0,0.0,0.0,0.0,0.0,0.0,0.0,0.0,0.0,0.0,0.0,-1.8138,0.0,0.0,0.0,0.0,0.0,0.0,0.0,0.0,0.0,0.0,0.0,-2.7241,-2.8096,-2.8058,-2.792,-2.7811,-2.7703,-2.75,0.0,0.0,0.0,0.0,0.0,0.0,0.0,0.0,0.0,0.0,0.0,0.0,0.0,0.0,-2.1982,-2.196,-2.1454,-2.1089,-2.1292,0.0,0.0,0.0,0.0,0.0,0.0,0.0,0.0,0.0,0.0,0.0,0.0,0.0,0.0,-2.5233,0.0,-2.4917,0.0,0.0,0.0,0.0,0.0,0.0,0.0,0.0,-3.0828,-3.2382,-3.3736,-3.407,-3.4064,0.0,-3.4083,-3.2475,0.0,0.0,0.0,0.0,0.0,0.0,0.0,0.0,-2.9563,-3.0721,-3.3991,-3.575,-3.5803,-3.5822,-3.585,-3.5889,-3.5051,-3.3357,-3.0772,-2.9855,-2.7912,0.0,0.0,0.0,0.0,0.0,0.0,0.0,0.0,0.0,0.0,0.0,0.0,0.0,0.0,0.0,0.0,0.0,0.0,0.0,0.0,0.0,0.0,0.0,-1.897,0.0,0.0,0.0,0.0,0.0,0.0,0.0,0.0,0.0,-2.5717,-2.7249,-2.8647,-2.9158,-2.9028,-2.8852,-2.8755,0.0,0.0,0.0,0.0,0.0,0.0,0.0,-2.7508,-2.7198,-2.6618,-2.579,-2.4587,-2.4309,-2.414,-2.3779,0.0,0.0,-2.3483,-2.2899,-2.2435,-2.2365,-2.1703,-2.1242,-2.1575,-2.1797,-2.2043,0.0,0.0,0.0,0.0,0.0,0.0,0.0,0.0,-2.778,-2.8245,0.0,-2.7246,0.0,0.0,0.0,0.0,0.0,-2.7676,0.0,0.0,-3.4911,-3.6158,-3.5476,-3.6279,-3.6274,-3.5516,-3.6262,-3.5777,-3.4077,-3.1609,0.0,0.0,0.0,0.0,0.0,0.0,-3.1628,-3.1829,-3.4454,-3.5845,-3.5865,-3.5927,-3.5933,-3.5869,-3.509,-3.4227,-3.3295,-3.0947,-2.9136,-2.8078,-2.4064,0.0,0.0,0.0,0.0,0.0,0.0,0.0,0.0,0.0,0.0,0.0,0.0,0.0,0.0,0.0,0.0,0.0,0.0,0.0,0.0,-1.8037,0.0,0.0,0.0,0.0,0.0,0.0,0.0,0.0,0.0,0.0,-2.9187,-2.9761,-3.0292,-3.0273,0.0,0.0,0.0,0.0,-2.9222,-2.932,-2.9302,-2.9283,-2.932,-2.9302,-2.8933,-2.7959,0.0,0.0,-2.5426,-2.5125,-2.4864,-2.405,-2.4387,-2.4444,-2.3549,-2.327,-2.3112,-2.2985,-2.2342,-2.2126,-2.2733,-2.2391,-2.2205,-3.4653,0.0,0.0,0.0,0.0,-3.0094,-3.0975,-3.2828,-3.1726,-3.1374,-3.1546,-3.0526,0.0,0.0,0.0,0.0,0.0,0.0,-3.0548,-3.3355,-3.4386,-3.5715,-3.7298,-3.757,-3.7263,-3.6504,-3.6723,-3.6272,-3.5201,-3.4429,-3.2507,-2.9577,0.0,0.0,0.0,0.0,-3.256,-3.4351,-3.593,-3.6752,-3.6807,-3.6816,-3.6517,-3.5928,-3.5658,-3.5124,-3.4252,-3.3501,-3.2094,-2.9954,-2.8656,0.0,0.0,0.0,0.0,0.0,0.0,0.0,0.0,0.0,0.0,0.0,0.0,0.0,0.0,0.0,0.0,0.0,0.0,0.0,-2.4007,-2.1678,-2.0986,0.0,0.0,0.0,0.0,0.0,0.0,0.0,0.0,0.0,-3.1937,-3.1006,-3.0794,0.0,0.0,-3.0178,-3.0605,-2.9954,-2.9597,-3.0137,-2.9704,0.0,0.0,-2.9632,-2.8973,-2.8075,-2.735,-2.6651,-2.6129,-2.5983,-2.5873,-2.5541,-2.553,-2.5284,-2.4474,-2.412,-2.3751,-2.3142,-2.2728,-2.2603,-2.2895,-2.2778,-2.2703,-3.8809,-3.5973,-3.4632,-3.4054,-3.398,-3.3546,-3.4435,-3.6146,-3.5181,-3.4948,-3.5166,-3.4096,-3.3063,-3.2039,-3.1053,0.0,0.0,0.0,-3.3077,-3.5698,-3.6038,-3.6881,-3.8078,-3.8433,-3.8183,-3.7429,-3.7725,-3.7454,-3.6632,-3.699,-3.5737,-3.3047,0.0,0.0,-3.2832,-3.3454,-3.4724,-3.655,-3.7275,-3.7649,-3.7715,-3.7394,-3.6932,-3.6434,-3.6086,-3.5494,-3.4642,-3.4606,-3.3695,-3.1741,-3.1008,-2.9521,0.0,0.0,0.0,0.0,0.0,0.0,0.0,0.0,0.0,0.0,0.0,-2.1251,-2.1944,0.0,0.0,0.0,-2.2362,-2.3903,-2.548,-2.4306,0.0,0.0,0.0,0.0,0.0,0.0,0.0,-3.205,-3.2957,-3.3586,-3.3616,-3.2411,-3.1727,-3.2324,-3.1646,-3.1112,-3.117,0.0,-3.0682,-3.1142,-3.0476,-3.0081,-3.0471,-2.9885,-2.9148,-2.8539,-2.7941,-2.7336,-2.6969,-2.6859,-2.6693,-2.6347,-2.6327,-2.6163,-2.5338,-2.5217,-2.4875,-2.3732,-2.3589,-2.3653,-2.3497,-2.3419,-2.3341,-4.2525,-4.163,-3.8452,-3.7051,-3.6914,-3.6897,-3.7389,-3.8188,-3.8073,-3.843,-3.8966,-3.7506,-3.6825,-3.6678,-3.4379,0.0,-3.4641,-3.538,-3.6568,-3.8239,-3.9038,-3.9018,-3.8362,-3.9122,-3.9045,-3.8222,-3.9039,-3.9012,-3.8235,-3.8971,-3.8615,-3.7112,-3.6226,-3.6217,-3.6951,-3.7073,-3.7575,-3.8471,-3.8513,-3.8535,-3.8579,-3.7756,-3.7275,-3.7178,-3.6434,-3.5591,-3.4759,-3.4692,-3.4317,-3.3492,-3.1975,-3.0724,-2.9799,0.0,0.0,0.0,0.0,0.0,0.0,0.0,0.0,0.0,0.0,0.0,0.0,0.0,0.0,0.0,-2.4707,0.0,-2.4457,-2.6384,0.0,0.0,0.0,-3.162,-3.1891,-3.3353,-3.4069,-3.3406,0.0,0.0,-3.4598,-3.3903,-3.3061,-3.2135,-3.2365,-3.2348,-3.1618,-3.1853,-3.2153,-3.2177,-3.1522,-3.0995,-3.1051,-3.0213,-2.9421,-2.9119,-2.9051,-2.8645,-2.7958,-2.7743,-2.7358,-2.6747,-2.6959,-2.702,-2.6163,-2.6449,-2.6374,-2.4668,-2.4708,-2.4882,-2.436,-2.423,-2.4091,-4.3893,-4.356,-4.2148,-4.1127,-4.0407,-3.9763,-3.9994,-4.0673,-3.9432,-3.9007,-3.9103,-3.8188,-3.7789,-3.7797,-3.7211,-3.7063,-3.7288,-3.7475,-3.8112,-3.9076,-3.9302,-3.9638,-4.0082,-4.0307,-3.9996,-3.9289,-3.9448,-3.911,-3.8321,-3.8495,-3.8368,-3.7991,-3.7768,-3.7734,-3.7885,-3.7967,-3.8743,-4.0276,-3.9688,-3.9406,-3.9466,-3.8633,-3.7856,-3.7213,-3.6988,-3.6473,-3.5633,-3.5585,-3.5485,-3.5274,-3.4873,-3.4263,-3.3398,-3.1456,0.0,0.0,0.0,0.0,0.0,0.0,0.0,0.0,0.0,-2.7318,-2.7737,0.0,-2.9708,0.0,-2.5923,-2.6416,-3.0126,-2.939,0.0,0.0,-3.3179,-3.4097,-3.5521,-3.5491,-3.5528,-3.6066,-3.5749,-3.5488,-3.5557,-3.5329,-3.482,-3.3916,-3.324,-3.2924,-3.3141,-3.2691,-3.2515,-3.2914,-3.2343,-3.1933,-3.2288,-3.1206,-2.9946,-2.9351,-2.9108,-2.8932,-2.8737,-2.8589,-2.8433,-2.8233,-2.8128,-2.7813,-2.7045,-2.7357,-2.7281,-2.6313,-2.5649,-2.523,-2.5092,-2.5138,-2.513,-4.4696,-4.4303,-4.3844,-4.2887,-4.1739,-4.1635,-4.1865,-4.2211,-4.0921,-4.0353,-4.0295,-3.954,-3.9045,-3.8813,-3.9179,-3.9146,-3.8812,-3.9179,-3.9592,-3.9986,-3.9998,-4.0269,-4.07,-4.0732,-4.0521,-4.0135,-4.0169,-3.9932,-3.949,-3.9457,-3.9287,-3.8937,-3.9295,-3.9247,-3.8884,-3.8898,-3.96,-4.092,-4.0544,-4.0347,-4.0354,-3.9524,-3.8668,-3.7832,-3.7783,-3.7213,-3.6004,-3.6292,-3.6311,-3.5965,-3.5914,-3.5502,-3.4633,-3.3321,-3.2158,0.0,0.0,0.0,0.0,0.0,0.0,0.0,0.0,0.0,0.0,0.0,-3.1978,-3.0883,-2.9916,-3.0769,-3.4204,-3.3648,-3.3729,-3.5286,-3.5452,-3.5864,-3.6939,-3.6618,-3.6537,-3.7082,-3.6715,-3.6284,-3.596,-3.5836,-3.5609,-3.5054,-3.4513,-3.4077,-3.391,-3.3676,-3.3732,-3.3987,-3.3274,-3.2595,-3.2612,-3.1359,-3.0305,-2.985,-2.934,-2.8987,-2.9005,-2.8881,-2.8816,-2.8792,-2.8574,-2.8285,-2.7818,-2.7884,-2.7865,-2.7465,-2.6939,-2.6437,-2.5971,-2.5997,-2.6016,-4.5205,-4.4559,-4.4515,-4.3621,-4.2367,-4.3102,-4.3113,-4.253,-4.1665,-4.1365,-4.1439,-4.0868,-4.0275,-3.9719,-4.0448,-4.0383,-3.9735,-4.0465,-4.0776,-4.0719,-4.0763,-4.0769,-4.0712,-4.0775,-4.0809,-4.0798,-4.0858,-4.0903,-4.0931,-4.0912,-4.0546,-3.9922,-4.0567,-4.0571,-3.9883,-3.9871,-4.0245,-4.098,-4.1071,-4.1114,-4.1098,-4.035,-3.9538,-3.8721,-3.866,-3.7878,-3.6278,-3.6943,-3.6983,-3.622,-3.6189,-3.5856,-3.4963,-3.4259,-3.3756,0.0,-3.2691,0.0,0.0,0.0,0.0,0.0,0.0,0.0,0.0,-3.3766,-3.4122,-3.4773,-3.4861,-3.5491,-3.693,-3.7762,-3.7931,-3.7269,-3.7284,-3.7341,-3.7307,-3.7292,-3.7242,-3.7215,-3.7124,-3.674,-3.6006,-3.5833,-3.5792,-3.5674,-3.5601,-3.522,-3.4496,-3.4679,-3.4956,-3.4936,-3.4187,-3.3318,-3.2376,-3.1355,-3.0624,-3.0387,-2.9605,-2.9005,-2.8987,-2.8881,-2.8816,-2.8792,-2.86,-2.8419,-2.8406,-2.8259,-2.8168,-2.8142,-2.8034,-2.7709,-2.6996,-2.6918,-2.6797,-4.5623,-4.5442,-4.5442,-4.5247,-4.497,-4.5144,-4.3165,-3.9786,-3.8972,-3.9073,-3.9817,-4.0409,-4.063,-4.0575,-4.0725,-4.0712,-4.0562,-4.0718,-4.0797,-4.0777,-4.0802,-4.0812,-4.079,-4.0837,-4.0883,-4.0893,-4.0898,-4.0931,-4.0978,-4.0978,-4.0913,-4.0762,-4.0914,-4.0914,-4.0762,0.0,0.0,0.0,-4.1078,-4.11,-4.1091,-4.0949,-4.0448,-3.9589,-3.9559,0.0,-3.7119,-3.7802,-3.786,-3.7061,-3.7624,0.0,0.0,0.0,0.0,0.0,0.0,0.0,0.0,0.0,0.0,0.0,-3.6052,-3.5808,-3.5482,-3.664,-3.7462,-3.7534,-3.7564,-3.7686,-3.801,-3.8175,-3.8249,-3.8166,-3.8751,-3.8949,-3.8342,-3.8204,-3.7985,-3.7264,-3.664,-3.6157,-3.5946,-3.5877,-3.5869,-3.5792,-3.5717,-3.5576,-3.5239,-3.5213,-3.5171,-3.4917,-3.4572,-3.4049,-3.3181,-3.2147,-3.1218,-3.0632,-2.968,-2.9053,-2.9005,-2.8912,-2.881,-2.8816,-2.8693,-2.8549,-2.8497,-2.8406,-2.8327,-2.8304,-2.8214,-2.8124,-2.7927,-2.8022,-2.8149,-4.5526,0.0,-4.5105,-4.4612,0.0,-4.384,-4.2295,-3.9853,-4.0777,-4.1185,-4.1258,-4.1717,-4.1963,-4.1989,-4.11,-4.0726,-4.0694,-3.9837,-3.9689,-4.0139,-4.017,-4.0405,-4.0848,-4.0897,-4.0927,-4.0945,-4.095,-4.0967,-4.0976,-4.0988,-4.1015,-4.1041,-4.1015,-4.1015,-4.1041,-4.1042,-4.1052,-4.1052,-4.1075,-4.1115,-4.1113,-4.1099,-4.0714,-3.9918,0.0,0.0,0.0,0.0,0.0,0.0,0.0,0.0,0.0,0.0,0.0,-3.6586,-3.6448,-3.6459,-3.652,-3.6504,-3.6877,-3.7757,-3.8226,-3.8106,-3.7266,-3.8338,-3.9033,-3.9007,-3.9342,-3.9578,-3.9634,-3.9624,-3.9489,-3.9139,-3.9114,-3.8922,-3.8544,-3.8151,-3.7747,-3.732,-3.6898,-3.6489,-3.6005,-3.5909,-3.5864,-3.5813,-3.5771,-3.5708,-3.5575,-3.5457,-3.5297,-3.5001,-3.4802,-3.4507,-3.3899,-3.2672,-3.1701,-3.1099,-2.9972,-2.9166,-2.9044,-2.8929,-2.887,-2.8917,-2.8798,-2.8632,-2.865,-2.8562,-2.8497,-2.8492,-2.8466,-2.8466,-2.8479,-2.8536,-2.8549,-4.539,-4.473,-4.4746,-4.3909,-4.2592,-4.2582,-4.214,-4.1559,0.0,0.0,0.0,-4.3141,-4.3169,-4.2976,-4.1518,-4.0816,-4.061,-3.9174,-3.8942,-3.9719,-3.9745,-4.0164,-4.0888,-4.1072,-4.116,-4.1244,-4.1399,-4.1381,-4.122,-4.1244,-4.1174,-4.1104,-4.1042,-4.1046,-4.1097,-4.1112,-4.11,-4.1108,-4.1115,-4.1111,-4.1109,-4.1112,-4.0783,-4.0144,-4.0743,-4.0369,-3.8903,-3.9605,-3.9644,-3.8864,-3.8896,-3.8902,-3.8729,-3.8746,-3.8656,-3.851,-3.8592,-3.8741,-3.8951,-3.9051,-3.9126,-3.9175,-3.9702,-3.9721,-3.9011,-3.9577,-3.9945,-3.9941,-4.0562,-4.0898,-4.08,-4.0777,-4.0461,-3.9661,-3.8923,-3.8471,-3.8266,-3.7731,-3.7265,-3.7109,-3.701,-3.6812,-3.6118,-3.5958,-3.5886,-3.5833,-3.5819,-3.5757,-3.5629,-3.5515,-3.5339,-3.5065,-3.4898,-3.4752,-3.4376,-3.3253,-3.2135,-3.173,-3.0409,-2.9385,-2.9167,-2.9033,-2.901,-2.9078,-2.8929,-2.8815,-2.8822,-2.8749,-2.8687,-2.8694,-2.8724,-2.8718,-2.8773,-2.8724,-2.8662,-4.5768,-4.5607,-4.5607,-4.5493,-4.5251,-4.5244,-4.5186,-4.4889,-4.3101,-4.221,-4.214,-4.293,-4.2905,-4.2253,-4.1932,-4.1435,-4.0782,-4.052,-4.0468,0.0,-4.061,-4.0712,-4.0922,-4.1664,-4.206,-4.2178,-4.2859,-4.2856,-4.2194,-4.2116,-4.1792,-4.1188,-4.1084,-4.1075,-4.1108,-4.1111,-4.1103,-4.1103,-4.1104,-4.1109,-4.1116,-4.1102,-4.1064,-4.0943,-4.1039,-4.0645,-3.9683,-4.0444,-4.0522,-3.9702,-4.0327,-4.04,-3.9687,-3.9626,-3.9286,-3.8619,-3.9201,-3.9945,-4.0694,-4.1425,-4.1841,-4.1815,-4.1328,-4.0937,-4.0758,-4.0834,-4.0906,-4.0908,-4.0998,-4.0752,-4.0109,-3.9998,-3.9674,-3.8848,-3.858,-3.8256,-3.7606,-3.7354,-3.6983,-3.6336,-3.6198,-3.6213,-3.6063,-3.599,-3.5951,-3.5903,-3.5833,-3.5739,-3.5632,-3.5437,-3.525,-3.511,-3.4964,-3.484,-3.4595,-3.3811,-3.2844,-3.2051,-3.1112,-3.016,-2.9476,-2.9374,-2.9322,-2.9215,-2.9193,-2.9088,-2.9053,-2.8964,-2.8912,-2.8852,-2.8791,-2.881,-2.8822,-2.887,-2.8923,-4.5899,-4.5845,-4.5805,-4.5805,-4.5807,-4.5847,-4.5854,-4.5757,-4.4589,-4.4053,-4.4117,-4.4524,-4.4512,-4.4091,-4.3086,-4.246,-4.2048,-4.1092,-4.0951,-4.1396,-4.0969,-4.1308,-4.2223,-4.2246,-4.2481,-4.2996,-4.3389,-4.3397,-4.3006,-4.2532,-4.2126,-4.1731,-4.132,-4.1103,-4.1113,-4.1109,-4.1101,-4.1114,-4.1111,-4.1116,-4.1107,-4.1107,-4.1107,-4.1107,-4.1105,-4.0926,-4.0528,-4.0879,-4.1132,-4.1205,-4.1147,-4.1124,-4.1213,-4.1213,-4.1031,-4.0682,-4.1423,-4.211,-4.2485,-4.2453,-4.2197,-4.1737,-4.1366,-4.0937,-4.0487,-4.0856,-4.1105,-4.1111,-4.1101,-4.074,-3.9895,-3.9791,-3.9447,-3.8585,-3.8139,-3.7719,-3.7321,-3.6834,-3.6424,-3.6092,-3.6012,-3.6008,-3.6016,-3.6002,-3.5986,-3.5902,-3.5827,-3.5743,-3.5664,-3.5532,-3.5388,-3.5231,-3.5088,-3.4954,-3.4793,-3.4033,-3.3281,-3.2745,-3.1958,-3.1081,-3.0291,-3.0253,-3.0353,-3.0063,-2.9894,-2.9824,-2.9836,-2.9388,-2.9118,-2.9033,-2.8975,-2.8957,-2.901,-2.9067,-2.9108,-4.5912,-4.5893,-4.5847,-4.5814,-4.5807,-4.5874,-4.5906,-4.5906,-4.5905,-4.5925,-4.5925,-4.5893,-4.5809,-4.5473,-4.4144,-4.3407,-4.3046,-4.1784,-4.1554,-4.2163,-4.1615,-4.2097,-4.3345,-4.2974,-4.3175,-4.3876,-4.409,-4.4078,-4.3835,-4.3201,-4.2682,-4.2308,-4.1699,-4.1303,-4.1103,-4.1103,-4.1115,-4.11,-4.1117,-4.1104,-4.1112,-4.1111,-4.1111,-4.1112,-4.111,-4.1106,-4.1099,-4.1099,-4.1408,-4.2025,-4.1459,-4.1418,-4.2055,-4.2114,-4.211,-4.218,-4.2921,-4.3492,-4.3619,-4.2889,-4.2099,-4.1442,-4.1033,-4.0642,-4.029,-4.0561,-4.0712,-4.0586,-4.0659,-4.034,-3.9378,-3.9181,-3.8894,-3.8025,-3.7406,-3.7005,-3.6933,-3.6386,-3.6015,-3.6016,-3.6015,-3.6014,-3.6006,-3.6013,-3.5994,-3.5904,-3.5846,-3.5803,-3.5747,-3.5678,-3.5546,-3.5409,-3.5254,-3.5107,-3.4926,-3.4368,-3.377,-3.344,-3.2806,-3.1994,-3.137,-3.1461,-3.157,-3.1086,-3.0849,-3.0791,-3.0798,-3.0328,-2.9887,-2.9887,-2.9883,-2.9813,-2.9935,-2.9928,-2.9621,-4.5956,-4.59,-4.59,-4.5873,-4.5814,-4.5861,-4.5906,-4.5912,-4.5968,-4.5991,-4.5986,-4.5917,-4.5498,-4.4852,-4.4583,-4.4105,-4.3466,-4.315,-4.3118,-4.3221,-4.3174,-4.3275,-4.3641,-4.4213,-4.4639,-4.4867,-4.5514,-4.5455,-4.4793,-4.4637,-4.3874,-4.2554,-4.2305,-4.1887,-4.1202,-4.1114,-4.1101,-4.1106,-4.1109,-4.1113,-4.1112,-4.1172,-4.1172,-4.1113,-4.1112,-4.1108,-4.11,-4.1099,-4.1134,-4.1207,-4.1168,-4.1148,-4.1244,-4.1244,-4.1225,-4.1301,-4.208,-4.2846,-4.3518,-4.2895,-4.2351,-4.2182,-4.0873,-4.0324,-4.0808,-4.0379,-3.9675,-3.9222,-3.9543,-3.9322,-3.7767,-3.7632,-3.7344,-3.6593,-3.6306,-3.6113,-3.6171,-3.6069,-3.6011,-3.6016,-3.6015,-3.6016,-3.6009,-3.6017,-3.598,-3.5924,-3.5777,-3.57,-3.5663,-3.5597,-3.5526,-3.5488,-3.5395,-3.5234,-3.51,-3.4945,-3.4406,-3.3762,-3.3487,-3.2937,-3.2349,-3.2064,-3.2037,-3.206,-3.1864,-3.1789,-3.1749,-3.1548,-3.1346,-3.1105,-3.1184,-3.1403,-3.1567,-3.1466,-3.0939,-4.6035,-4.6028,-4.5974,-4.5918,-4.5861,-4.5917,-4.5949,-4.5982,-4.5983,-4.603,-4.6046,-4.6035,-4.5806,-4.5459,-4.5444,-4.5207,-4.4879,-4.4847,-4.4834,-4.4796,-4.4381,-4.4464,-4.5007,-4.4839,-4.5087,-4.565,-4.604,-4.6024,-4.5654,-4.5157,-4.4295,-4.3202,-4.2685,-4.2212,-4.1857,-4.1355,-4.1106,-4.111,-4.1113,-4.1113,-4.111,-4.1131,-4.1132,-4.1113,-4.1113,-4.1113,-4.1111,-4.1109,-4.1339,-4.178,-4.1369,-4.1349,-4.1837,-4.1872,-4.1872,-4.1935,-4.2692,-4.3079,-4.2942,-4.2591,-4.2162,-4.1657,-4.1017,-4.0568,-4.0372,-4.0475,-4.0068,-3.8951,-3.9313,-3.9288,-3.8201,-3.7618,-3.694,-3.6205,-3.6015,-3.6015,-3.6012,-3.6009,-3.6007,-3.6011,-3.6013,-3.6015,-3.6014,-3.6004,-3.5985,-3.588,-3.5566,-3.5226,-3.5122,-3.5048,-3.4972,-3.496,-3.5168,-3.5355,-3.5234,-3.5098,-3.4811,-3.451,-3.4349,-3.3979,-3.325,-3.3416,-3.3527,-3.3019,-3.2822,-3.2751,-3.2772,-3.2176,-3.1805,-3.189,-3.1868,-3.1885,-3.2002,-3.1981,-3.1607,-4.6105,-4.609,-4.6019,-4.596,-4.5923,-4.5986,-4.5997,-4.6003,-4.5986,-4.6056,-4.612,-4.612,-4.609,-4.6032,-4.6,-4.5972,-4.5923,-4.5906,-4.5893,-4.5841,-4.5304,-4.542,-4.5979,-4.5481,-4.5515,-4.6095,-4.6199,-4.6199,-4.6148,-4.5615,-4.483,-4.4065,-4.3411,-4.2861,-4.2388,-4.1729,-4.1324,-4.1112,-4.1113,-4.111,-4.1108,-4.1108,-4.1109,-4.111,-4.111,-4.1112,-4.1113,-4.1113,-4.1384,-4.1983,-4.1415,-4.1375,-4.198,-4.2056,-4.2036,-4.2098,-4.2619,-4.271,-4.2079,-4.2038,-4.1782,-4.1177,-4.0911,-4.0603,-4.0333,-4.0536,-4.0344,-3.9599,-3.9613,-3.9436,-3.8324,-3.7468,-3.6671,-3.6089,-3.6015,-3.6014,-3.601,-3.6003,-3.6016,-3.6019,-3.5984,-3.5972,-3.5996,-3.6011,-3.5996,-3.5919,-3.5453,-3.4803,-3.4714,-3.4791,-3.4858,-3.4521,-3.5071,-3.5463,-3.5383,-3.5234,-3.5096,-3.5027,-3.4925,-3.4661,-3.4046,-3.4508,-3.4655,-3.3873,-3.3753,-3.369,-3.37,-3.3061,-3.2611,-3.2703,-3.2726,-3.275,-3.3058,-3.2898,-3.2986,-4.6119,-4.6095,-4.6019,-4.5997,-4.5991,-4.5997,-4.5997,-4.5983,-4.5991,-4.6037,-4.6095,-4.612,-4.61,-4.6076,-4.6032,-4.598,-4.5991,-4.5923,-4.5905,-4.5905,-4.5883,-4.5986,-4.61,-4.6046,-4.608,-4.6196,-4.6199,-4.6209,-4.6203,-4.6128,-4.5733,-4.4974,-4.4781,-4.3991,-4.2681,-4.2355,-4.191,-4.1191,-4.1112,-4.111,-4.1107,-4.1102,-4.1102,-4.1107,-4.1108,-4.111,-4.1113,-4.1113,-4.1152,-4.117,-4.1129,-4.1146,-4.1186,-4.1207,-4.1208,-4.1227,-4.126,-4.1274,-4.1233,-4.1247,-4.1186,-4.1031,-4.0508,-4.0279,-4.0826,-4.0461,-4.0366,-4.0853,-4.0209,-3.9252,-3.7846,-3.6947,-3.6285,-3.6131,-3.6015,-3.601,-3.6005,-3.6007,-3.6015,-3.5997,-3.5958,-3.5935,-3.5993,-3.6015,-3.6011,-3.5998,-3.5926,-3.5539,-3.4883,-3.5239,-3.5239,-3.4886,-3.5102,-3.5623,-3.5502,-3.5364,-3.5297,-3.5218,-3.5113,-3.5051,-3.5009,-3.4973,-3.4832,-3.4717,-3.4553,-3.4473,-3.4545,-3.4465,-3.4253,-3.4199,-3.4208,-3.4279,-3.4368,-3.4633,-3.4784,-4.6166,-4.616,-4.609,-4.6066,-4.607,-4.6011,-4.5986,-4.5986,-4.5997,-4.6051,-4.6095,-4.612,-4.612,-4.612,-4.6066,-4.6037,-4.5997,-4.5966,-4.5929,-4.5917,-4.596,-4.6025,-4.61,-4.6104,-4.6127,-4.619,-4.6196,-4.6203,-4.6198,-4.6201,-4.6092,-4.5777,-4.5264,-4.4397,-4.3334,-4.2674,-4.1973,-4.1208,-4.1107,-4.1103,-4.1102,-4.1116,-4.1115,-4.1101,-4.1101,-4.1105,-4.1111,-4.1111,-4.1112,-4.1113,-4.1113,-4.1113,-4.1113,-4.1112,-4.1111,-4.1108,-4.1103,-4.1116,-4.1112,-4.1104,-4.1103,-4.109,-4.0842,-4.073,-4.0969,-4.0838,-4.08,-4.0877,-4.0369,-3.955,-3.8925,-3.7694,-3.6834,-3.6758,-3.6346,-3.6047,-3.6018,-3.6004,-3.5992,-3.5945,-3.5923,-3.5923,-3.5984,-3.6011,-3.6015,-3.5953,-3.5535,-3.5093,-3.4821,-3.4947,-3.5012,-3.4828,-3.522,-3.573,-3.5649,-3.5514,-3.5423,-3.5323,-3.5235,-3.5187,-3.5157,-3.5089,-3.4952,-3.4934,-3.4927,-3.485,-3.4773,-3.4761,-3.4739,-3.4771,-3.485,-3.5173,-3.5759,-3.5653,-3.6094,-4.6212,-4.6197,-4.6154,-4.6113,-4.609,-4.6061,-4.6007,-4.6002,-4.6032,-4.6052,-4.6099,-4.6132,-4.6132,-4.6137,-4.6149,-4.6104,-4.6041,-4.6049,-4.6008,-4.5947,-4.5994,-4.6051,-4.609,-4.6122,-4.6146,-4.6189,-4.6203,-4.6211,-4.6219,-4.624,-4.6267,-4.6243,-4.5685,-4.499,-4.4158,-4.3534,-4.2715,-4.1753,-4.1533,-4.1432,-4.1155,-4.1112,-4.1112,-4.1116,-4.1116,-4.1099,-4.1104,-4.1104,-4.1108,-4.1111,-4.1111,-4.1112,-4.1113,-4.1132,-4.1132,-4.1092,-4.0834,-4.0829,-4.1021,-4.0878,-4.0818,-4.108,-4.1104,-4.1108,-4.1112,-4.1113,-4.1112,-4.0976,-4.0664,-4.0292,-4.0019,-3.8984,-3.793,-3.7422,-3.6775,-3.6299,-3.6049,-3.602,-3.5966,-3.5904,-3.5902,-3.5925,-3.5947,-3.5953,-3.5967,-3.5996,-3.5448,-3.5092,-3.4791,-3.4931,-3.487,-3.4742,-3.5324,-3.5717,-3.5745,-3.5645,-3.556,-3.5451,-3.5388,-3.5338,-3.5278,-3.5215,-3.5147,-3.5149,-3.5098,-3.5019,-3.4945,-3.4936,-3.4927,-3.4955,-3.5085,-3.5327,-3.588,-3.6416,-3.6971,-4.6199,-4.6196,-4.6197,-4.6177,-4.6102,-4.6099,-4.6066,-4.6037,-4.6076,-4.6108,-4.6123,-4.6165,-4.6189,-4.6192,-4.6192,-4.6154,-4.6117,-4.6095,-4.6071,-4.6007,-4.6066,-4.611,-4.6122,-4.6158,-4.6196,-4.6211,-4.6212,-4.6261,-4.6397,-4.6357,-4.6306,-4.6337,-4.6295,-4.5694,-4.4959,-4.4726,-4.4023,-4.275,-4.2336,-4.1942,-4.1249,-4.1208,-4.1192,-4.1119,-4.1172,-4.1192,-4.1119,-4.1099,-4.11,-4.1101,-4.1108,-4.1111,-4.1112,-4.1152,-4.1172,-4.0996,-4.0429,-4.0389,-4.0896,-4.0483,-4.0482,-4.0935,-4.1113,-4.1113,-4.1112,-4.1108,-4.1106,-4.1088,-4.1049,-4.103,-4.0896,-4.0252,-3.9178,-3.7674,-3.7398,-3.7021,-3.6416,-3.6068,-3.5992,-3.5939,-3.5891,-3.588,-3.5885,-3.5903,-3.5926,-3.5967,-3.5897,-3.5625,-3.5097,-3.5405,-3.548,-3.5104,-3.5365,-3.5832,-3.5841,-3.5781,-3.5698,-3.5611,-3.5544,-3.5477,-3.5435,-3.5372,-3.5312,-3.5281,-3.5182,-3.5107,-3.5091,-3.5066,-3.5092,-3.5136,-3.5288,-3.5648,-3.6447,-3.7153,-3.7882,-4.6196,-4.6196,-4.6209,-4.6183,-4.616,-4.6181,-4.6146,-4.6142,-4.617,-4.6177,-4.6169,-4.6196,-4.6199,-4.6203,-4.6209,-4.6183,-4.6162,-4.6165,-4.6146,-4.6084,-4.608,-4.6126,-4.6158,-4.6206,-4.6242,-4.6278,-4.6267,-4.6602,-4.7011,-4.6635,-4.656,-4.6997,-4.6591,-4.5855,-4.5137,-4.498,-4.439,-4.3388,-4.2684,-4.2233,-4.2014,-4.198,-4.1728,-4.1222,-4.1666,-4.1742,-4.1156,-4.1115,-4.1117,-4.1104,-4.1104,-4.1106,-4.1111,-4.1152,-4.1191,-4.1152,-4.0917,-4.0799,-4.1014,-4.0876,-4.076,-4.1054,-4.1113,-4.1109,-4.1103,-4.1115,-4.1111,-4.1115,-4.1116,-4.11,-4.1049,-4.0896,-4.0192,-3.9195,-3.8549,-3.8053,-3.7537,-3.7071,-3.6556,-3.6002,-3.5862,-3.5866,-3.5894,-3.5894,-3.5919,-3.5989,-3.6005,-3.5797,-3.5721,-3.5762,-3.5956,-3.5663,-3.5934,-3.5949,-3.5893,-3.5867,-3.5816,-3.5721,-3.5659,-3.5601,-3.5547,-3.5495,-3.5448,-3.5391,-3.5297,-3.5242,-3.5201,-3.5212,-3.5218,-3.5266,-3.5365,-3.615,-3.7233,-3.793,-3.842,-4.6209,-4.6215,-4.6212,-4.6209,-4.6203,-4.6213,-4.6203,-4.6199,-4.6206,-4.6209,-4.6196,-4.6225,-4.6248,-4.6228,-4.6237,-4.6212,-4.62,-4.6209,-4.6177,-4.6126,-4.6127,-4.6154,-4.6254,-4.6566,-4.6718,-4.686,-4.7122,-4.7532,-4.8037,-4.7585,-4.7548,-4.7866,-4.7222,-4.6562,-4.5955,-4.5603,-4.5052,-4.4223,-4.3675,-4.3206,-4.2951,-4.2875,-4.2468,-4.1808,-4.2118,-4.1921,-4.1201,-4.1117,-4.1115,-4.1101,-4.1101,-4.1106,-4.1111,-4.1152,-4.1172,-4.1133,-4.0879,-4.0761,-4.1054,-4.08,-4.082,-4.1015,-4.1108,-4.1101,-4.1111,-4.1115,-4.1111,-4.1115,-4.1117,-4.1106,-4.11,-4.1104,-4.0851,-4.0401,-3.9563,-3.8794,-3.8157,-3.7247,-3.6573,-3.6005,-3.5861,-3.5841,-3.5869,-3.5885,-3.5911,-3.5966,-3.5967,-3.5978,-3.6,-3.5987,-3.5987,-3.5988,-3.5991,-3.5976,-3.5955,-3.5923,-3.5917,-3.583,-3.5743,-3.5684,-3.5629,-3.5578,-3.5534,-3.5482,-3.54,-3.536,-3.5323,-3.5315,-3.5304,-3.5381,-3.5533,-3.6382,-3.7276,-3.7906,-3.853,-4.6195,-4.6209,-4.6209,-4.6203,-4.6212,-4.6212,-4.6206,-4.6213,-4.6222,-4.6217,-4.6231,-4.6258,-4.6303,-4.6284,-4.6284,-4.6279,-4.6214,-4.6214,-4.6214,-4.6203,-4.6206,-4.6248,-4.6489,-4.7086,-4.7445,-4.7768,-4.8378,-4.8828,-4.8943,-4.8728,-4.8925,-4.8847,-4.8125,-4.7597,-4.7237,-4.6716,-4.5913,-4.5151,-4.494,-4.4431,-4.3801,-4.3775,-4.3352,-4.253,-4.2624,-4.2293,-4.1459,-4.1182,-4.1116,-4.1112,-4.1102,-4.1108,-4.111,-4.1111,-4.1132,-4.1172,-4.0409,-4.0565,-4.084,-4.0625,-4.0428,-4.1009,-4.11,-4.115,-4.1267,-4.1174,-4.1184,-4.1264,-4.1169,-4.1103,-4.1103,-4.1111,-4.1074,-4.1,-4.0358,-3.9315,-3.765,-3.6779,-3.6417,-3.6131,-3.5927,-3.5815,-3.5878,-3.5889,-3.5894,-3.5919,-3.5916,-3.5949,-3.5972,-3.5999,-3.5988,-3.5974,-3.5986,-3.5963,-3.5935,-3.5955,-3.5941,-3.5914,-3.5833,-3.5763,-3.5698,-3.5648,-3.559,-3.554,-3.5509,-3.547,-3.545,-3.5437,-3.5438,-3.5496,-3.5893,-3.6568,-3.7158,-3.779,-3.8595,-4.6277,-4.6262,-4.6271,-4.6271,-4.6288,-4.6288,-4.6267,-4.6264,-4.6267,-4.6269,-4.6273,-4.6294,-4.6296,-4.6296,-4.6296,-4.63,-4.6282,-4.6262,-4.6264,-4.6264,-4.628,-4.6671,-4.7125,-4.7469,-4.7965,-4.8534,-4.8848,-4.9238,-4.9764,-4.9257,-4.9258,-4.9726,-4.8925,-4.816,-4.7564,-4.7308,-4.6715,-4.59,-4.5275,-4.4944,-4.4729,-4.4653,-4.4232,-4.3519,-4.3925,-4.346,-4.218,-4.1438,-4.1102,-4.1117,-4.1103,-4.1108,-4.1108,-4.1147,-4.1187,-4.1149,-4.1031,-4.0874,-4.105,-4.0951,-4.0927,-4.1056,-4.122,-4.1352,-4.193,-4.1389,-4.1416,-4.165,-4.1484,-4.11,-4.1131,-4.1103,-4.1109,-4.107,-4.083,-4.0251,-3.9182,-3.8302,-3.7543,-3.6943,-3.6239,-3.5963,-3.5891,-3.5892,-3.5888,-3.5911,-3.5948,-3.5977,-3.5977,-3.5953,-3.5929,-3.5926,-3.5919,-3.5921,-3.5941,-3.5956,-3.5972,-3.5981,-3.5908,-3.5845,-3.5754,-3.5693,-3.5632,-3.5574,-3.5583,-3.5559,-3.5553,-3.5566,-3.5601,-3.5607,-3.5825,-3.6256,-3.6991,-3.7666,-3.8451,-4.6267,-4.6298,-4.63,-4.6305,-4.629,-4.6303,-4.6305,-4.6288,-4.6303,-4.6303,-4.6305,-4.6302,-4.6302,-4.6302,-4.6305,-4.6288,-4.6293,-4.6295,-4.6296,-4.6297,-4.6299,-4.6789,-4.7552,-4.8179,-4.8944,-4.9355,-4.9453,-4.9922,-5.043,-4.9843,-4.9899,-5.0344,-4.976,-4.9066,-4.8604,-4.7762,-4.7288,-4.6665,-4.5941,-4.5516,-4.5497,-4.5497,-4.5057,-4.4502,-4.4737,-4.4294,-4.3054,-4.2451,-4.1902,-4.1335,-4.1104,-4.1106,-4.1143,-4.1475,-4.1631,-4.167,-4.196,-4.2192,-4.2114,-4.1897,-4.1833,-4.2018,-4.1924,-4.21,-4.2584,-4.2351,-4.2415,-4.27,-4.2344,-4.1997,-4.159,-4.1317,-4.1131,-4.1092,-4.1054,-4.071,-3.9897,-3.8925,-3.8101,-3.7352,-3.6727,-3.6196,-3.5976,-3.5892,-3.5885,-3.59,-3.5919,-3.5941,-3.596,-3.5916,-3.5889,-3.5883,-3.5892,-3.5901,-3.5929,-3.595,-3.5995,-3.5995,-3.5958,-3.5888,-3.5807,-3.5736,-3.5679,-3.5649,-3.5657,-3.5654,-3.5654,-3.5665,-3.5683,-3.5689,-3.5737,-3.6067,-3.6832,-3.7384,-3.819,-4.6327,-4.6291,-4.6305,-4.6291,-4.6299,-4.629,-4.6293,-4.6299,-4.629,-4.6306,-4.629,-4.6305,-4.6303,-4.6302,-4.6291,-4.6294,-4.6296,-4.6301,-4.6304,-4.6345,-4.6483,-4.6952,-4.7654,-4.8689,-4.953,-4.9961,-5.0175,-5.0603,-5.0934,-5.052,-5.0644,-5.0943,-5.0505,-5.0135,-4.9568,-4.8543,-4.7843,-4.7501,-4.678,-4.6357,-4.6276,-4.6173,-4.5713,-4.5243,-4.4922,-4.4676,-4.3982,-4.3557,-4.2951,-4.1468,-4.1377,-4.155,-4.1586,-4.2209,-4.2481,-4.2615,-4.3077,-4.3464,-4.3523,-4.2859,-4.2817,-4.3234,-4.2832,-4.288,-4.3439,-4.3458,-4.3424,-4.3697,-4.3564,-4.2763,-4.2036,-4.1463,-4.1181,-4.1089,-4.1048,-4.0649,-3.9992,-3.9159,-3.828,-3.7462,-3.724,-3.6704,-3.6183,-3.5898,-3.5885,-3.5882,-3.5897,-3.5922,-3.5917,-3.5888,-3.5879,-3.5866,-3.5872,-3.5883,-3.5917,-3.5961,-3.5976,-3.6006,-3.598,-3.5916,-3.5846,-3.5776,-3.5743,-3.5736,-3.5708,-3.5713,-3.5708,-3.5728,-3.5751,-3.575,-3.5773,-3.6187,-3.6697,-3.7063,-3.7715,-4.6901,-4.6303,-4.6288,-4.6293,-4.6295,-4.6297,-4.63,-4.6301,-4.6295,-4.6291,-4.6293,-4.6291,-4.6291,-4.6291,-4.6299,-4.6302,-4.6305,-4.6288,-4.6289,-4.6404,-4.7067,-4.736,-4.7654,-4.8202,-4.8945,-4.9803,-5.0129,-5.0574,-5.1098,-5.1144,-5.1145,-5.1208,-5.1085,-5.0699,-5.0006,-4.9604,-4.9104,-4.8486,-4.7629,-4.7164,-4.695,-4.6498,-4.6115,-4.5822,-4.5289,-4.4931,-4.4629,-4.4052,-4.3528,-4.3217,-4.3121,-4.3118,-4.3037,-4.3248,-4.342,-4.3489,-4.3602,-4.3795,-4.3697,-4.3617,-4.3478,-4.3694,-4.3601,-4.3679,-4.4386,-4.3993,-4.4016,-4.41,-4.3386,-4.2523,-4.1665,-4.1268,-4.1114,-4.1089,-4.1033,-4.0958,-4.0698,-4.0007,-3.9121,-3.8296,-3.7571,-3.6787,-3.6009,-3.5935,-3.5923,-3.5901,-3.5892,-3.5898,-3.5869,-3.5859,-3.5849,-3.5838,-3.5876,-3.5892,-3.5921,-3.5955,-3.5995,-3.6012,-3.5977,-3.5951,-3.5892,-3.585,-3.5806,-3.5803,-3.5775,-3.5786,-3.5773,-3.5778,-3.5795,-3.5807,-3.5807,-3.6066,-3.6372,-3.6754,-3.7011,-4.7063,-4.6311,-4.629,-4.6294,-4.63,-4.6296,-4.6297,-4.6301,-4.6295,-4.6295,-4.6297,-4.6297,-4.6299,-4.6301,-4.6305,-4.6288,-4.6289,-4.6288,-4.6304,-4.6493,-4.7136,-4.7523,-4.7687,-4.8063,-4.8889,-4.9989,-5.0092,-5.0551,-5.1069,-5.1032,-5.0846,-5.125,-5.1292,-5.1051,-5.0536,-5.0228,-4.9757,-4.9173,-4.8094,-4.7447,-4.7315,-4.6652,-4.6169,-4.6141,-4.5699,-4.5478,-4.5493,-4.5167,-4.4921,-4.4868,-4.4833,-4.4445,-4.3923,-4.4072,-4.4239,-4.4306,-4.4713,-4.4841,-4.4874,-4.4514,-4.441,-4.4704,-4.4417,-4.4698,-4.5129,-4.4965,-4.4995,-4.5025,-4.4245,-4.305,-4.1828,-4.1192,-4.1117,-4.1049,-4.1006,-4.1015,-4.0954,-4.0584,-3.9779,-3.8919,-3.8415,-3.7654,-3.7001,-3.6468,-3.6375,-3.6529,-3.5921,-3.5885,-3.5829,-3.5818,-3.5807,-3.583,-3.5866,-3.59,-3.5909,-3.5947,-3.5993,-3.6015,-3.6009,-3.5975,-3.5955,-3.5909,-3.588,-3.5876,-3.5849,-3.5853,-3.5846,-3.585,-3.5841,-3.5843,-3.5862,-3.5878,-3.6006,-3.6359,-3.6479,-4.7141,-4.6299,-4.629,-4.6296,-4.6305,-4.6296,-4.6297,-4.6303,-4.6299,-4.63,-4.6302,-4.6303,-4.6305,-4.6288,-4.6289,-4.6288,-4.6306,-4.6302,-4.6295,-4.642,-4.6869,-4.7286,-4.7596,-4.8312,-4.9118,-4.9983,-5.0037,-5.0488,-5.0888,-5.0649,-5.0769,-5.1118,-5.1239,-5.1152,-5.0977,-5.0593,-5.0222,-4.9982,-4.8797,-4.7858,-4.7594,-4.6874,-4.6411,-4.6107,-4.6064,-4.5994,-4.6033,-4.5981,-4.6063,-4.6174,-4.6196,-4.5432,-4.4702,-4.4629,-4.5084,-4.5108,-4.567,-4.5871,-4.5795,-4.5488,-4.534,-4.6039,-4.5276,-4.514,-4.5583,-4.5404,-4.522,-4.5074,-4.4422,-4.3455,-4.242,-4.1494,-4.1058,-4.0991,-4.0992,-4.0929,-4.0813,-4.0804,-3.9921,-3.9188,-3.8735,-3.8163,-3.7591,-3.7102,-3.7125,-3.6977,-3.6331,-3.5868,-3.5834,-3.5799,-3.5792,-3.5819,-3.5856,-3.5928,-3.5938,-3.5962,-3.6011,-3.6015,-3.6014,-3.601,-3.598,-3.5962,-3.5938,-3.5933,-3.593,-3.5921,-3.5895,-3.5879,-3.5872,-3.5892,-3.5899,-3.5907,-3.5938,-3.6007,-3.6068,-4.7705,-4.6305,-4.6296,-4.6301,-4.6303,-4.6307,-4.6288,-4.6289,-4.6306,-4.6306,-4.6306,-4.6289,-4.6289,-4.6289,-4.6306,-4.6301,-4.6297,-4.6371,-4.6344,-4.6345,-4.6709,-4.7098,-4.7723,-4.862,-4.9294,-4.9733,-5.0045,-5.0555,-5.1081,-5.1117,-5.0977,-5.1095,-5.1134,-5.1128,-5.1103,-5.095,-5.0784,-5.0534,-4.9556,-4.8773,-4.8069,-4.7315,-4.6605,-4.6171,-4.6084,-4.6108,-4.6102,-4.613,-4.6119,-4.6119,-4.6119,-4.5928,-4.5647,-4.5764,-4.5862,-4.591,-4.6033,-4.6193,-4.6123,-4.6013,-4.5927,-4.5879,-4.5297,-4.486,-4.488,-4.4467,-4.4263,-4.3865,-4.3364,-4.257,-4.2342,-4.147,-4.1066,-4.0992,-4.0863,-4.0675,-4.0155,-3.9757,-3.9723,-3.9194,-3.8883,-3.8512,-3.7823,-3.7338,-3.7186,-3.6899,-3.6324,-3.5927,-3.5807,-3.5792,-3.5803,-3.5819,-3.5861,-3.5922,-3.5968,-3.5989,-3.6007,-3.6011,-3.6015,-3.6016,-3.6012,-3.6001,-3.6006,-3.5972,-3.5975,-3.596,-3.5938,-3.5916,-3.5909,-3.5921,-3.5927,-3.5931,-3.5967,-3.6016,-3.6016,-4.8234,-4.6386,-4.6779,-4.6706,-4.634,-4.6303,-4.6305,-4.6307,-4.6287,-4.6288,-4.6289,-4.6289,-4.6287,-4.6305,-4.6301,-4.6293,-4.636,-4.678,-4.6652,-4.6518,-4.7486,-4.8031,-4.8324,-4.9299,-5.0047,-5.0459,-5.0589,-5.0706,-5.1145,-5.1156,-5.1126,-5.1101,-5.1089,-5.1082,-5.1088,-5.1069,-5.0875,-5.0509,-4.9662,-4.8777,-4.7955,-4.7086,-4.6416,-4.6163,-4.6027,-4.6047,-4.6052,-4.6042,-4.6056,-4.6084,-4.6065,-4.6084,-4.6102,-4.6119,-4.6138,-4.6107,-4.6119,-4.6126,-4.6137,-4.6099,-4.6071,-4.5959,-4.5225,-4.4851,-4.4599,-4.4113,-4.3287,-4.286,-4.2588,-4.2023,-4.1641,-4.1231,-4.0989,-4.0857,-4.0586,-4.0126,-3.9577,-3.8816,-3.8694,-3.8857,-3.8553,-3.8068,-3.7632,-3.7268,-3.7146,-3.6781,-3.628,-3.6017,-3.5807,-3.5803,-3.5791,-3.5823,-3.5845,-3.5897,-3.5962,-3.5983,-3.6016,-3.6003,-3.6009,-3.6013,-3.6015,-3.6014,-3.6009,-3.6004,-3.5995,-3.5994,-3.5981,-3.5955,-3.5951,-3.5963,-3.5967,-3.5973,-3.5987,-3.6011,-3.6011,-4.8294,-4.6368,-4.7045,-4.6936,-4.6359,-4.6299,-4.6301,-4.6305,-4.6287,-4.6289,-4.6289,-4.6288,-4.6302,-4.6295,-4.6288,-4.63,-4.634,-4.6952,-4.6727,-4.6723,-4.8067,-4.8937,-4.9231,-4.997,-5.0752,-5.0888,-5.0946,-5.1081,-5.1089,-5.1115,-5.1081,-5.1074,-5.1067,-5.1062,-5.1063,-5.1048,-5.0584,-5.008,-4.922,-4.8327,-4.7328,-4.6471,-4.5991,-4.5991,-4.5997,-4.5982,-4.6007,-4.6,-4.6025,-4.6026,-4.6021,-4.5991,-4.6037,-4.6056,-4.5993,-4.5861,-4.5827,-4.5764,-4.5541,-4.5444,-4.5259,-4.5191,-4.4656,-4.434,-4.3981,-4.3243,-4.2656,-4.2272,-4.1922,-4.1849,-4.1494,-4.1073,-4.0917,-4.0704,-4.014,-3.943,-3.8902,-3.8227,-3.75,-3.7598,-3.7773,-3.7783,-3.7463,-3.7206,-3.708,-3.6817,-3.6336,-3.5929,-3.5763,-3.5786,-3.581,-3.5827,-3.584,-3.5878,-3.5929,-3.5986,-3.6001,-3.6007,-3.6018,-3.6006,-3.6011,-3.6014,-3.6016,-3.6014,-3.6007,-3.5994,-3.6002,-3.6017,-3.5991,-3.5999,-3.6,-3.6007,-3.6014,-3.6016,-3.6015,-4.7276,-4.6303,-4.6427,-4.6394,-4.6321,-4.6305,-4.6288,-4.6289,-4.6289,-4.6289,-4.6288,-4.6305,-4.63,-4.629,-4.6294,-4.6262,-4.6309,-4.6474,-4.6554,-4.6621,-4.7648,-4.8521,-4.8746,-4.9478,-5.05,-5.0925,-5.0952,-5.0986,-5.1034,-5.106,-5.1053,-5.1032,-5.1005,-5.0993,-5.0993,-5.0971,-5.0905,-5.0664,-4.9887,-4.8706,-4.7359,-4.6426,-4.6055,-4.5989,-4.5986,-4.5997,-4.5991,-4.5989,-4.6003,-4.6003,-4.5941,-4.5923,-4.5929,-4.591,-4.5501,-4.5121,-4.4827,-4.4622,-4.422,-4.422,-4.4243,-4.4166,-4.3359,-4.2674,-4.2456,-4.2053,-4.168,-4.2233,-4.1587,-4.1388,-4.1524,-4.1267,-4.0994,-4.056,-4.0048,-3.917,-3.845,-3.7798,-3.7027,-3.6466,-3.6668,-3.7301,-3.7485,-3.7235,-3.6998,-3.6712,-3.6406,-3.5984,-3.5756,-3.5784,-3.5806,-3.5803,-3.5836,-3.5852,-3.5897,-3.5953,-3.5962,-3.599,-3.6002,-3.6013,-3.6019,-3.6006,-3.6013,-3.6016,-3.6013,-3.601,-3.6008,-3.6007,-3.6009,-3.6009,-3.6011,-3.6014,-3.6015,-3.6013,-3.6009,-4.6651,-4.636,-4.6811,-4.6739,-4.6317,-4.6302,-4.6306,-4.6288,-4.6289,-4.6288,-4.6305,-4.6303,-4.6295,-4.6298,-4.6267,-4.6209,-4.6297,-4.6651,-4.6882,-4.7185,-4.8049,-4.8902,-4.9429,-5.0041,-5.07,-5.0835,-5.0925,-5.0885,-5.0937,-5.0937,-5.0929,-5.0945,-5.0917,-5.0937,-5.0906,-5.0898,-5.0623,-5.0,-4.9001,-4.7951,-4.7165,-4.646,-4.5997,-4.5997,-4.5986,-4.5986,-4.5989,-4.5966,-4.5949,-4.5943,-4.5899,-4.5899,-4.5899,-4.5848,-4.5563,-4.4818,-4.4744,-4.4621,-4.4351,-4.418,-4.4044,-4.3952,-4.3325,-4.2626,-4.1757,-4.1204,-4.098,-4.1388,-4.1106,-4.1101,-4.1304,-4.1034,-4.0876,-4.0498,-3.9965,-3.918,-3.8286,-3.7372,-3.6671,-3.6092,-3.5668,-3.6385,-3.6928,-3.6646,-3.639,-3.6251,-3.6091,-3.5868,-3.5722,-3.5775,-3.5782,-3.5795,-3.581,-3.5843,-3.5883,-3.5938,-3.5926,-3.5934,-3.5986,-3.5997,-3.6001,-3.6012,-3.6004,-3.601,-3.6014,-3.6015,-3.6016,-3.6014,-3.6012,-3.6014,-3.6015,-3.6015,-3.6011,-3.6005,-3.6018,-4.6303,-4.6365,-4.7004,-4.6892,-4.6316,-4.63,-4.6305,-4.6288,-4.6289,-4.6288,-4.6302,-4.6296,-4.6303,-4.6277,-4.6228,-4.6209,-4.6277,-4.7038,-4.7328,-4.7933,-4.8877,-4.9644,-4.9834,-5.0308,-5.0627,-5.0929,-5.0513,-5.0606,-5.0745,-5.0766,-5.0803,-5.0883,-5.0872,-5.0872,-5.0814,-5.0502,-5.0016,-4.8845,-4.8159,-4.742,-4.6763,-4.628,-4.602,-4.596,-4.5958,-4.5989,-4.5966,-4.5937,-4.5899,-4.5893,-4.5887,-4.5867,-4.5867,-4.5834,-4.548,-4.4854,-4.4653,-4.4658,-4.4408,-4.4217,-4.4219,-4.3879,-4.3374,-4.2049,-4.1243,-4.0893,-4.0897,-4.0974,-4.0881,-4.0812,-4.079,-4.0769,-4.0719,-4.0417,-3.9901,-3.916,-3.8368,-3.7417,-3.6723,-3.6343,-3.59,-3.5573,-3.5912,-3.5786,-3.5698,-3.5706,-3.5669,-3.5669,-3.5704,-3.5757,-3.5756,-3.5763,-3.5818,-3.5843,-3.5856,-3.5875,-3.5883,-3.5897,-3.5951,-3.596,-3.5964,-3.5994,-3.6007,-3.6014,-3.6002,-3.6009,-3.6013,-3.6016,-3.6014,-3.6016,-3.6014,-3.6009,-3.6002,-3.5992,-3.602,-4.629,-4.63,-4.6384,-4.6387,-4.6301,-4.6301,-4.6306,-4.6289,-4.6289,-4.6288,-4.6299,-4.6282,-4.6258,-4.6212,-4.62,-4.6183,-4.6251,-4.7046,-4.7343,-4.7947,-4.8905,-4.9576,-4.9768,-4.9888,-5.0099,-5.051,-5.0177,-5.0189,-5.0538,-5.0673,-5.0721,-5.0764,-5.0572,-5.0724,-5.0501,-4.9911,-4.9013,-4.8133,-4.7739,-4.7252,-4.6501,-4.5989,-4.5932,-4.5919,-4.5899,-4.5911,-4.5892,-4.5906,-4.5887,-4.5887,-4.5854,-4.5833,-4.5826,-4.5805,-4.5399,-4.5007,-4.478,-4.4808,-4.4666,-4.3835,-4.2728,-4.2262,-4.1932,-4.165,-4.1179,-4.0985,-4.0911,-4.0851,-4.0801,-4.0809,-4.0787,-4.0732,-4.0681,-4.041,-3.9899,-3.9208,-3.8378,-3.7382,-3.6764,-3.6517,-3.614,-3.5668,-3.5501,-3.5515,-3.5583,-3.5612,-3.5646,-3.5648,-3.5664,-3.5698,-3.5708,-3.5742,-3.583,-3.5838,-3.5799,-3.5817,-3.584,-3.5878,-3.5911,-3.5921,-3.5909,-3.594,-3.5992,-3.6001,-3.5992,-3.6001,-3.6007,-3.6012,-3.6013,-3.6011,-3.6026,-3.6096,-3.6102,-3.6085,-3.609,-4.6297,-4.6301,-4.6296,-4.6297,-4.6301,-4.6305,-4.6288,-4.6289,-4.6289,-4.6304,-4.629,-4.6267,-4.622,-4.6193,-4.6142,-4.6142,-4.6156,-4.6367,-4.7116,-4.7933,-4.8735,-4.9239,-4.9427,-4.961,-4.9765,-4.9937,-4.9661,-4.9912,-5.0635,-5.0527,-5.0172,-5.0058,-4.9874,-4.9959,-4.9707,-4.9223,-4.8392,-4.7907,-4.7573,-4.7094,-4.6808,-4.6072,-4.59,-4.59,-4.5893,-4.5893,-4.5899,-4.5906,-4.5886,-4.5847,-4.5814,-4.5793,-4.5791,-4.5754,-4.558,-4.5305,-4.5198,-4.5182,-4.511,-4.4311,-4.3763,-4.3576,-4.2994,-4.2168,-4.1657,-4.1593,-4.1266,-4.1061,-4.0798,-4.08,-4.0796,-4.0707,-4.0577,-4.0369,-3.9909,-3.9218,-3.8541,-3.763,-3.6993,-3.6863,-3.6157,-3.5484,-3.5407,-3.5388,-3.5489,-3.5559,-3.5595,-3.5629,-3.564,-3.5657,-3.5667,-3.5693,-3.5765,-3.583,-3.5795,-3.5818,-3.5824,-3.5856,-3.5891,-3.59,-3.5889,-3.5887,-3.5919,-3.5951,-3.5976,-3.5985,-3.5992,-3.6017,-3.6019,-3.6022,-3.6112,-3.6237,-3.6216,-3.6153,-3.6159,-4.6305,-4.6306,-4.6305,-4.6304,-4.6304,-4.6306,-4.6288,-4.6289,-4.6288,-4.628,-4.6277,-4.6216,-4.6209,-4.6196,-4.6138,-4.6113,-4.6187,-4.645,-4.714,-4.7804,-4.8361,-4.8771,-4.9092,-4.9241,-4.9213,-4.9363,-4.948,-4.9798,-5.0115,-5.015,-4.9611,-4.9046,-4.8682,-4.8664,-4.8894,-4.8536,-4.7985,-4.7414,-4.7284,-4.6823,-4.6607,-4.6158,-4.5845,-4.5845,-4.5854,-4.586,-4.5854,-4.5847,-4.5859,-4.5819,-4.5805,-4.5783,-4.5773,-4.5743,-4.5708,-4.5727,-4.5719,-4.568,-4.5549,-4.5137,-4.4562,-4.3951,-4.3627,-4.2854,-4.2371,-4.2069,-4.1645,-4.0924,-4.0802,-4.0796,-4.0784,-4.0674,-4.0609,-4.0446,-3.9793,-3.9153,-3.8922,-3.826,-3.7661,-3.7216,-3.6579,-3.62,-3.5681,-3.5662,-3.5455,-3.5522,-3.554,-3.5577,-3.562,-3.5631,-3.5623,-3.5657,-3.5689,-3.5756,-3.5795,-3.5827,-3.5836,-3.5866,-3.5895,-3.5898,-3.5888,-3.5886,-3.588,-3.5909,-3.5938,-3.5964,-3.5968,-3.5955,-3.5983,-3.6012,-3.6097,-3.6155,-3.6141,-3.6078,-3.6161,-4.6289,-4.6288,-4.6289,-4.6287,-4.6287,-4.6287,-4.6288,-4.6289,-4.6287,-4.6277,-4.6228,-4.6211,-4.6206,-4.6173,-4.6126,-4.608,-4.6202,-4.6706,-4.72,-4.7456,-4.7933,-4.8268,-4.8287,-4.8337,-4.8458,-4.9183,-4.9221,-4.9153,-4.9255,-4.9401,-4.8832,-4.7895,-4.7301,-4.7131,-4.7922,-4.7989,-4.7146,-4.5965,-4.6462,-4.6311,-4.6007,-4.5812,-4.5758,-4.5746,-4.5795,-4.5803,-4.581,-4.5805,-4.5798,-4.5795,-4.5614,-4.5611,-4.568,-4.5436,-4.5431,-4.5646,-4.5543,-4.5545,-4.5563,-4.4957,-4.4363,-4.3923,-4.3736,-4.3168,-4.2375,-4.2014,-4.1743,-4.0931,-4.0809,-4.079,-4.0713,-4.0641,-4.0609,-4.0395,-3.9762,-3.9271,-3.904,-3.8289,-3.7562,-3.7072,-3.7401,-3.7436,-3.6603,-3.5989,-3.56,-3.5488,-3.5483,-3.5534,-3.5591,-3.5616,-3.5614,-3.5629,-3.5653,-3.5723,-3.5773,-3.5842,-3.5868,-3.5875,-3.5875,-3.5872,-3.5878,-3.5892,-3.5888,-3.5883,-3.5892,-3.5894,-3.5897,-3.5899,-3.5926,-3.5929,-3.5931,-3.5953,-3.5958,-3.6021,-3.6135,-4.6289,-4.6289,-4.6289,-4.6289,-4.6289,-4.6289,-4.6289,-4.6305,-4.6297,-4.6261,-4.6197,-4.6201,-4.6167,-4.6142,-4.6075,-4.6027,-4.6109,-4.6102,-4.6487,-4.7184,-4.7427,-4.7376,-4.7392,-4.7428,-4.7538,-4.777,-4.8058,-4.8468,-4.835,-4.8635,-4.8075,-4.7109,-4.6197,-4.587,-4.6157,-4.6292,-4.5908,-4.5647,-4.5864,-4.5935,-4.572,-4.5676,-4.568,-4.568,-4.5715,-4.575,-4.5731,-4.5727,-4.5746,-4.5654,-4.5441,-4.519,-4.5219,-4.4966,-4.4613,-4.5012,-4.5131,-4.4995,-4.5109,-4.4848,-4.4376,-4.4109,-4.395,-4.337,-4.2395,-4.213,-4.1601,-4.1092,-4.0931,-4.0893,-4.0765,-4.0713,-4.0643,-4.0494,-4.0003,-3.9506,-3.9017,-3.7848,-3.6967,-3.6728,-3.6836,-3.6736,-3.6195,-3.5883,-3.557,-3.5481,-3.5495,-3.5502,-3.5554,-3.5578,-3.5596,-3.5606,-3.5646,-3.5703,-3.5751,-3.5814,-3.5834,-3.5842,-3.5838,-3.5815,-3.5846,-3.5861,-3.5872,-3.5846,-3.5833,-3.584,-3.5833,-3.5846,-3.5836,-3.5836,-3.5846,-3.6073,-3.632,-3.6277,-3.6192,-4.6305,-4.6306,-4.6305,-4.6305,-4.6287,-4.6289,-4.6287,-4.6281,-4.6269,-4.6228,-4.6201,-4.6177,-4.6138,-4.6084,-4.6017,-4.5975,-4.5964,-4.5938,-4.5975,-4.6677,-4.6622,-4.6545,-4.6521,-4.673,-4.6972,-4.7021,-4.7442,-4.7871,-4.7465,-4.7903,-4.7282,-4.6138,-4.543,-4.5385,-4.5434,-4.5495,-4.5496,-4.5467,-4.5629,-4.5655,-4.5594,-4.5618,-4.5635,-4.5651,-4.5668,-4.5684,-4.5692,-4.5692,-4.568,-4.546,-4.5097,-4.4699,-4.4641,-4.4444,-4.4025,-4.4508,-4.4614,-4.4528,-4.4661,-4.4153,-4.3624,-4.3331,-4.3846,-4.3561,-4.2725,-4.2596,-4.2067,-4.1583,-4.1202,-4.0983,-4.0855,-4.079,-4.0655,-4.0514,-4.0095,-3.9624,-3.9514,-3.8402,-3.7906,-3.7533,-3.7243,-3.6797,-3.6045,-3.5668,-3.545,-3.5469,-3.5515,-3.5534,-3.5554,-3.5554,-3.5578,-3.5614,-3.5629,-3.5678,-3.5718,-3.577,-3.5793,-3.5801,-3.5786,-3.5791,-3.5803,-3.5838,-3.5823,-3.5823,-3.5811,-3.5791,-3.5772,-3.5779,-3.5709,-3.5728,-3.5799,-3.6126,-3.6608,-3.6468,-3.6157,-4.6351,-4.6371,-4.6351,-4.6371,-4.6354,-4.6342,-4.6285,-4.63,-4.6227,-4.6201,-4.6206,-4.613,-4.6106,-4.6095,-4.6019,-4.5966,-4.5911,-4.5887,-4.5904,-4.5877,-4.5997,-4.5849,-4.5986,-4.6319,-4.6436,-4.6877,-4.7221,-4.7157,-4.663,-4.6572,-4.5981,-4.5368,-4.5133,-4.5106,-4.5162,-4.5235,-4.5298,-4.5399,-4.5448,-4.5505,-4.5513,-4.5494,-4.554,-4.5566,-4.5593,-4.5629,-4.5646,-4.5643,-4.5651,-4.5393,-4.4903,-4.4556,-4.4359,-4.4285,-4.421,-4.4125,-4.403,-4.4183,-4.3963,-4.3273,-4.2659,-4.2371,-4.2563,-4.2834,-4.2785,-4.2407,-4.1944,-4.1674,-4.1396,-4.1145,-4.0965,-4.0842,-4.0733,-4.0417,-4.005,-4.0031,-4.0288,-3.9914,-3.954,-3.9231,-3.9024,-3.8387,-3.7006,-3.6331,-3.5772,-3.5624,-3.5682,-3.5701,-3.5669,-3.5541,-3.5579,-3.5608,-3.5618,-3.5637,-3.5688,-3.5737,-3.5757,-3.5756,-3.5769,-3.5778,-3.5786,-3.5791,-3.5791,-3.5791,-3.5786,-3.5754,-3.5722,-3.5621,-3.5529,-3.5578,-3.5611,-3.5767,-3.613,-3.6145,-3.5939,-4.7531,-4.8,-4.7407,-4.7155,-4.7045,-4.6505,-4.627,-4.6285,-4.6221,-4.6215,-4.6203,-4.6131,-4.608,-4.6026,-4.5972,-4.5943,-4.5906,-4.5854,-4.5819,-4.5788,-4.5743,-4.5706,-4.5727,-4.582,-4.587,-4.6081,-4.6384,-4.65,-4.5753,-4.5444,-4.5354,-4.4988,-4.4955,-4.5003,-4.5049,-4.5114,-4.5224,-4.5329,-4.538,-4.54,-4.5429,-4.5448,-4.5467,-4.5485,-4.5504,-4.5532,-4.5522,-4.5549,-4.5558,-4.5414,-4.4748,-4.4483,-4.5054,-4.4048,-4.3272,-4.3273,-4.353,-4.3787,-4.3178,-4.2326,-4.1714,-4.1454,-4.1403,-4.1105,-4.1201,-4.1475,-4.1465,-4.1485,-4.1435,-4.1171,-4.0933,-4.0791,-4.0752,-4.0565,-4.0294,-4.0372,-4.052,-4.0108,-3.9721,-3.8994,-3.8865,-3.8164,-3.6954,-3.6863,-3.6323,-3.6014,-3.5892,-3.6015,-3.5842,-3.574,-3.5579,-3.561,-3.5637,-3.5651,-3.5681,-3.5727,-3.5708,-3.5708,-3.5742,-3.5751,-3.5727,-3.5732,-3.5756,-3.5742,-3.5689,-3.5664,-3.5632,-3.5513,-3.5297,-3.532,-3.5364,-3.5482,-3.5589,-3.5741,-3.5823,-4.8316,-4.8645,-4.7872,-4.7304,-4.6916,-4.6428,-4.6219,-4.6255,-4.6209,-4.6154,-4.6137,-4.6098,-4.6047,-4.6005,-4.5935,-4.5905,-4.5906,-4.584,-4.5791,-4.5739,-4.5708,-4.5671,-4.5603,-4.5513,-4.5515,-4.563,-4.5694,-4.5812,-4.5232,-4.5022,-4.495,-4.4914,-4.4895,-4.495,-4.501,-4.5049,-4.5148,-4.5267,-4.5339,-4.5361,-4.538,-4.539,-4.54,-4.541,-4.54,-4.54,-4.541,-4.5438,-4.5467,-4.5352,-4.4678,-4.444,-4.4691,-4.3589,-4.29,-4.287,-4.2658,-4.2688,-4.224,-4.1456,-4.1151,-4.0968,-4.0623,-4.0513,-4.0705,-4.1054,-4.1235,-4.1357,-4.1258,-4.1118,-4.0907,-4.0713,-4.0765,-4.0771,-4.0739,-4.0688,-4.0333,-3.9908,-3.9148,-3.8273,-3.7641,-3.7021,-3.6684,-3.6845,-3.7058,-3.7091,-3.7093,-3.7127,-3.6664,-3.6061,-3.5778,-3.5604,-3.5651,-3.567,-3.5715,-3.5759,-3.5683,-3.5684,-3.5704,-3.5689,-3.5674,-3.5684,-3.5708,-3.5643,-3.5575,-3.5558,-3.5546,-3.5252,-3.5066,-3.509,-3.5185,-3.5345,-3.5518,-3.5732,-3.5775,-4.895,-4.8967,-4.7999,-4.7112,-4.6277,-4.6203,-4.6213,-4.62,-4.6144,-4.6107,-4.6103,-4.6037,-4.6005,-4.5972,-4.5923,-4.5906,-4.588,-4.5833,-4.5791,-4.5715,-4.5708,-4.5668,-4.561,-4.5531,-4.5448,-4.5419,-4.5437,-4.5479,-4.5238,-4.5068,-4.4943,-4.4895,-4.4895,-4.4919,-4.4967,-4.4991,-4.5091,-4.5192,-4.5256,-4.5328,-4.5348,-4.5369,-4.537,-4.538,-4.539,-4.5371,-4.539,-4.54,-4.54,-4.5132,-4.472,-4.4269,-4.3723,-4.3349,-4.2947,-4.2468,-4.2037,-4.1705,-4.1409,-4.0769,-4.052,-4.0441,-4.0379,-4.0334,-4.0522,-4.079,-4.1008,-4.1108,-4.1023,-4.0906,-4.0716,-4.0633,-4.064,-4.0519,-4.0396,-4.05,-4.0462,-3.9915,-3.9122,-3.8336,-3.7818,-3.7235,-3.7149,-3.7367,-3.7818,-3.8064,-3.823,-3.8214,-3.7648,-3.6774,-3.6465,-3.6111,-3.6012,-3.6085,-3.595,-3.5941,-3.5701,-3.5658,-3.5679,-3.5659,-3.5639,-3.5648,-3.5637,-3.557,-3.547,-3.5496,-3.5418,-3.5032,-3.4795,-3.4928,-3.5049,-3.5215,-3.5373,-3.5296,-3.5633,-5.0096,-5.0552,-4.9102,-4.7625,-4.6277,-4.6199,-4.6199,-4.6203,-4.6165,-4.6154,-4.6095,-4.6018,-4.5975,-4.5929,-4.5917,-4.5886,-4.5834,-4.5833,-4.5793,-4.5749,-4.5719,-4.5673,-4.5651,-4.5558,-4.5466,-4.5419,-4.538,-4.5277,-4.5148,-4.5026,-4.4955,-4.4895,-4.4895,-4.4907,-4.4931,-4.4955,-4.5026,-4.5125,-4.5181,-4.5213,-4.5246,-4.5203,-4.5184,-4.5208,-4.521,-4.5156,-4.5176,-4.5312,-4.5361,-4.5275,-4.4595,-4.3915,-4.314,-4.2919,-4.243,-4.1856,-4.151,-4.1131,-4.075,-4.0416,-4.0291,-4.0289,-4.0325,-4.0289,-4.0364,-4.0586,-4.0732,-4.0779,-4.0784,-4.0669,-4.0604,-4.0546,-4.0496,-4.0272,-4.008,-4.0328,-4.0556,-3.9844,-3.9083,-3.8572,-3.8078,-3.7901,-3.7776,-3.8038,-3.847,-3.8803,-3.9054,-3.8999,-3.8524,-3.7868,-3.781,-3.7449,-3.6816,-3.6704,-3.6524,-3.6195,-3.6013,-3.5762,-3.5734,-3.5695,-3.5602,-3.5593,-3.5558,-3.5464,-3.5397,-3.5242,-3.4971,-3.4558,-3.4428,-3.45,-3.4355,-3.4289,-3.4091,-3.3994,-3.4749,-4.9703,-4.9967,-4.876,-4.7446,-4.6355,-4.6199,-4.6199,-4.6215,-4.6197,-4.6162,-4.6111,-4.6061,-4.6005,-4.5949,-4.5917,-4.5886,-4.5834,-4.5814,-4.5812,-4.5783,-4.5727,-4.57,-4.5643,-4.5594,-4.5485,-4.5429,-4.529,-4.5181,-4.5084,-4.4991,-4.4919,-4.4895,-4.4895,-4.4895,-4.4895,-4.4943,-4.4991,-4.5057,-4.5114,-4.5136,-4.5074,-4.4892,-4.4933,-4.4985,-4.4671,-4.4548,-4.4656,-4.4716,-4.4516,-4.4306,-4.3665,-4.3771,-4.3129,-4.2582,-4.196,-4.1473,-4.1063,-4.0673,-4.0349,-4.0215,-4.0215,-4.0289,-4.0353,-4.0335,-4.027,-4.0464,-4.0501,-4.0556,-4.0625,-4.055,-4.0523,-4.0473,-4.0496,-4.0377,-4.0192,-4.0231,-4.0087,-3.9591,-3.893,-3.8388,-3.8216,-3.8396,-3.8426,-3.8814,-3.9265,-3.9827,-4.0039,-3.9952,-3.9438,-3.8646,-3.8691,-3.8537,-3.7776,-3.7498,-3.7434,-3.6957,-3.6402,-3.6151,-3.5778,-3.5635,-3.5527,-3.5522,-3.5483,-3.535,-3.51,-3.4702,-3.4385,-3.4033,-3.3693,-3.3603,-3.3397,-3.3189,-3.2954,-3.2833,-3.3503,-4.8654,-4.8428,-4.7805,-4.7018,-4.6277,-4.6199,-4.6199,-4.6215,-4.6201,-4.6162,-4.6117,-4.6114,-4.6051,-4.5978,-4.5923,-4.5906,-4.5867,-4.5826,-4.5817,-4.5788,-4.5715,-4.5703,-4.5662,-4.5622,-4.5485,-4.537,-4.5246,-4.5159,-4.508,-4.4998,-4.4931,-4.4907,-4.4895,-4.4895,-4.4895,-4.4919,-4.4974,-4.5014,-4.5061,-4.5084,-4.4801,-4.4454,-4.4764,-4.4499,-4.3937,-4.3392,-4.3786,-4.3758,-4.3433,-4.3079,-4.2792,-4.2993,-4.2811,-4.2151,-4.1663,-4.1138,-4.0701,-4.0397,-4.0205,-4.0252,-4.0298,-4.0342,-4.0398,-4.037,-4.0316,-4.0334,-4.0351,-4.0386,-4.0474,-4.0482,-4.0444,-4.0444,-4.0468,-4.0457,-4.0282,-4.0055,-3.9719,-3.9499,-3.9077,-3.8537,-3.8708,-3.8952,-3.9124,-3.9517,-4.0034,-4.0616,-4.0734,-4.075,-4.0429,-3.9406,-3.8878,-3.8737,-3.8267,-3.8144,-3.797,-3.7223,-3.636,-3.6153,-3.5774,-3.5592,-3.5468,-3.5449,-3.5369,-3.5197,-3.4902,-3.4366,-3.3907,-3.3517,-3.3192,-3.273,-3.2577,-3.2353,-3.2012,-3.1965,-3.2266,-4.8234,-4.765,-4.7513,-4.6998,-4.6277,-4.6219,-4.6199,-4.6199,-4.6212,-4.6174,-4.6199,-4.6123,-4.6042,-4.5937,-4.5917,-4.588,-4.5833,-4.5798,-4.5803,-4.58,-4.5738,-4.5698,-4.5657,-4.5568,-4.5458,-4.5339,-4.5224,-4.5117,-4.508,-4.501,-4.4962,-4.4895,-4.4895,-4.4895,-4.4926,-4.4962,-4.5022,-4.5068,-4.5125,-4.517,-4.5181,-4.5001,-4.5006,-4.4731,-4.4263,-4.3982,-4.3823,-4.3288,-4.2973,-4.2571,-4.2245,-4.2474,-4.2331,-4.1826,-4.1195,-4.1071,-4.0615,-4.0282,-4.0205,-4.0252,-4.0316,-4.0335,-4.0353,-4.0379,-4.037,-4.0396,-4.0422,-4.0436,-4.0479,-4.0436,-4.0408,-4.0419,-4.0427,-4.0419,-4.0317,-3.995,-3.9584,-3.9856,-3.9907,-3.9722,-3.9765,-3.9716,-3.9536,-3.9957,-4.0411,-4.0676,-4.0291,-4.0325,-4.0608,-3.9875,-3.9,-3.8717,-3.8447,-3.7886,-3.7309,-3.6722,-3.604,-3.5898,-3.5764,-3.556,-3.5434,-3.542,-3.5285,-3.4959,-3.4499,-3.3983,-3.3525,-3.2756,-3.235,-3.1914,-3.1811,-3.1602,-3.1245,-3.1098,-3.1392]},{"header":{"parameterUnit":"m.s-1","parameterCategory":1,"la1":31.0,"la2":29.5877,"lo1":-88.7671,"lo2":-86.6584,"dy":0.0162,"dx":0.0185,"nx":115,"ny":88,"refTime":"2024-04-18T18:00:00:Z","depth":0,"parameterNumber":3,"parameterNumberName":"V-component_of_WINDS"},"data":[0.0,0.0,0.0,0.0,0.0,0.0,0.0,0.0,0.0,0.0,0.0,0.0,0.0,0.0,0.0,0.0,0.0,0.0,0.0,0.0,0.0,0.0,0.0,0.0,0.0,0.0,0.0,0.0,0.0,0.0,0.0,0.0,0.0,0.0,0.0,0.0,0.0,0.0,0.0,0.0,0.0,0.0,0.0,0.0,0.0,0.0,0.0,0.0,0.0,0.0,0.0,0.0,0.0,0.0,0.0,0.0,0.0,0.0,0.0,0.0,0.0,0.0,0.0,0.0,0.0,0.0,0.0,0.0,0.0,0.0,0.0,0.0,0.0,0.0,0.0,0.0,0.0,0.0,0.0,0.0,0.0,0.0,0.0,0.0,0.0,0.0,0.0,0.0,0.0,0.0,0.0,0.0,0.0,0.0,0.0,0.0,0.0,0.0,0.0,0.0,0.0,0.0,0.0,0.0,0.0,0.0,0.0,0.0,0.0,0.0,0.0,0.0,0.0,0.0,0.0,0.0,0.0,0.0,0.0,0.0,0.0,0.0,0.0,0.0,0.0,0.0,0.0,0.0,0.0,0.0,0.0,0.0,0.0,0.0,0.0,0.0,0.0,0.0,0.0,0.0,0.0,0.0,0.0,0.0,0.0,0.0,0.0,0.0,0.0,0.0,0.0,0.0,0.0,0.0,0.0,0.0,0.0,0.0,0.0,0.0,0.0,0.0,0.0,0.0,0.0,0.0,0.0,0.0,0.0,0.0,0.0,0.0,0.0,0.0,0.0,0.0,0.0,0.0,0.0,0.0,0.0,0.0,0.0,0.0,0.0,0.0,0.0,0.0,0.0,0.0,0.0,0.0,0.0,0.0,0.0,0.0,0.0,0.0,0.0,0.0,0.0,0.0,0.0,0.0,0.0,0.0,0.0,0.0,0.0,0.0,0.0,0.0,0.0,0.0,0.0,0.0,0.0,0.0,0.0,0.0,0.0,0.0,0.0,0.0,0.0,0.0,0.0,0.0,0.0,0.0,0.0,0.0,0.0,0.0,0.0,0.0,0.0,0.0,0.0,0.0,0.0,0.0,0.0,0.0,0.0,0.0,0.0,0.0,0.0,0.0,0.0,0.0,0.0,0.0,0.0,0.0,0.0,0.0,0.0,0.0,0.0,0.0,0.0,0.0,0.0,0.0,0.0,0.0,0.0,0.0,0.0,0.0,0.0,0.0,0.0,0.0,0.0,0.0,0.0,0.0,0.0,0.0,0.0,0.0,0.0,0.0,0.0,0.0,0.0,0.0,0.0,0.0,0.0,0.0,0.0,0.0,0.0,0.0,0.0,0.0,0.0,0.0,0.0,0.0,0.0,0.0,0.0,0.0,0.0,0.0,0.0,0.0,0.0,0.0,0.0,0.0,0.0,0.0,0.0,0.0,0.0,0.0,0.0,0.0,0.0,0.0,0.0,0.0,0.0,0.0,0.0,0.0,0.0,0.0,0.0,0.0,0.0,0.0,0.0,0.0,0.0,0.0,0.0,0.0,0.0,0.0,0.0,0.0,0.0,0.0,0.0,0.0,0.0,0.0,0.0,0.0,0.0,0.0,0.0,0.0,0.0,0.0,0.0,0.0,0.0,0.0,0.0,0.0,0.0,0.0,0.0,0.0,0.0,0.0,0.0,0.0,0.0,0.0,0.0,0.0,0.0,0.0,0.0,0.0,0.0,0.0,0.0,0.0,0.0,0.0,0.0,0.0,0.0,0.0,0.0,0.0,0.0,0.0,0.0,0.0,0.0,0.0,0.0,0.0,0.0,0.0,0.0,0.0,0.0,0.0,0.0,0.0,0.0,0.0,0.0,0.0,0.0,0.0,0.0,0.0,0.0,0.0,0.0,0.0,0.0,0.0,0.0,0.0,0.0,0.0,0.0,0.0,0.0,0.0,0.0,0.0,0.0,0.0,0.0,0.0,0.0,0.0,0.0,0.0,0.0,0.0,0.0,0.0,0.0,0.0,0.0,0.0,0.0,0.0,0.0,0.0,0.0,0.0,0.0,0.0,0.0,0.0,0.0,0.0,0.0,0.0,0.0,0.0,0.0,0.0,0.0,0.0,0.0,0.0,0.0,0.0,0.0,0.0,0.0,0.0,0.0,0.0,0.0,0.0,0.0,0.0,0.0,0.0,0.0,0.0,0.0,0.0,0.0,0.0,0.0,0.0,0.0,0.0,0.0,0.0,0.0,0.0,0.0,0.0,0.0,0.0,0.0,0.0,0.0,0.0,0.0,0.0,0.0,0.0,0.0,0.0,0.0,0.0,0.0,0.0,0.0,0.0,0.0,0.0,0.0,0.0,0.0,0.0,0.0,0.0,0.0,0.0,0.0,0.0,0.0,0.0,0.0,0.0,0.0,0.0,0.0,0.0,0.0,0.0,0.0,0.0,0.0,0.0,0.0,0.0,0.0,0.0,0.0,0.0,0.0,0.0,0.0,0.0,0.0,0.0,0.0,0.0,0.0,0.0,0.0,0.0,0.0,0.0,0.0,0.0,0.0,0.0,0.0,0.0,0.0,0.0,0.0,0.0,0.0,0.0,0.0,0.0,0.0,0.0,0.0,0.0,0.0,0.0,0.0,0.0,0.0,0.0,0.0,0.0,0.0,0.0,0.0,0.0,0.0,0.0,0.0,0.0,0.0,0.0,0.0,0.0,0.0,0.0,0.0,0.0,0.0,0.0,0.0,0.0,0.0,0.0,0.0,0.0,0.0,0.0,0.0,0.0,0.0,0.0,0.0,0.0,0.0,0.0,0.0,0.0,0.0,0.0,0.0,0.0,0.0,0.0,0.0,0.0,0.0,0.0,0.0,0.0,0.0,0.0,0.0,0.0,0.0,0.0,0.0,0.0,0.0,0.0,0.0,0.0,0.0,0.0,0.0,0.0,0.0,0.0,0.0,0.0,0.0,0.0,0.0,0.0,0.0,0.0,0.0,0.0,0.0,0.0,0.0,0.0,0.0,0.0,0.0,0.0,0.0,0.0,0.0,0.0,0.0,0.0,0.0,0.0,0.0,0.0,0.0,0.0,0.0,0.0,0.0,0.0,0.0,0.0,0.0,0.0,0.0,0.0,0.0,0.0,0.0,0.0,0.0,0.0,0.0,0.0,0.0,0.0,0.0,0.0,0.0,0.0,0.0,0.0,0.0,0.0,0.0,0.0,0.0,0.0,0.0,0.0,0.0,0.0,0.0,0.0,0.0,0.0,0.0,0.0,0.0,0.0,0.0,0.0,0.0,0.0,0.0,0.0,0.0,0.0,0.0,0.0,0.0,0.0,0.0,0.0,0.0,0.0,0.0,0.0,0.0,0.0,0.0,0.0,0.0,0.0,0.0,0.0,0.0,0.0,0.0,0.0,0.0,0.0,0.0,0.0,0.0,0.0,0.0,0.0,0.0,0.0,0.0,0.0,0.0,0.0,0.0,0.0,0.0,0.0,0.0,0.0,0.0,0.0,0.0,0.0,0.0,0.0,0.0,0.0,0.0,0.0,0.0,0.0,0.0,0.0,0.0,0.0,0.0,0.0,0.0,0.0,0.0,0.0,0.0,0.0,0.0,0.0,0.0,0.0,0.0,0.0,0.0,0.0,0.0,0.0,0.0,0.0,0.0,0.0,0.0,0.0,0.0,0.0,0.0,0.0,0.0,0.0,0.0,0.0,0.0,0.0,0.0,0.0,0.0,0.0,0.0,0.0,0.0,0.0,0.0,0.0,0.0,0.0,0.0,0.0,0.0,0.0,0.0,0.0,0.0,0.0,0.0,0.0,0.0,0.0,0.0,0.0,0.0,0.0,0.0,0.0,0.0,0.0,0.0,0.0,0.0,0.0,0.0,0.0,0.0,0.0,0.0,0.0,0.0,0.0,0.0,0.0,0.0,0.0,0.0,0.0,0.0,0.0,0.0,0.0,0.0,0.0,0.0,0.0,0.0,0.0,0.0,0.0,0.0,0.0,0.0,0.0,0.0,0.0,0.0,0.0,0.0,0.0,0.0,0.0,0.0,0.0,0.0,0.0,0.0,0.0,0.0,0.0,0.0,0.0,0.0,0.0,0.0,0.0,0.0,0.0,0.0,0.0,0.0,0.0,0.0,0.0,0.0,0.0,0.0,0.0,0.0,0.0,0.0,0.0,0.0,0.0,0.0,0.0,0.0,0.0,0.0,0.0,0.0,0.0,0.0,0.0,0.0,0.0,0.0,0.0,0.0,0.0,0.0,0.0,0.0,0.0,0.0,0.0,0.0,0.0,0.0,0.0,-0.4476,0.0,0.0,0.0,0.0,0.0,0.0,0.0,0.0,0.0,0.0,0.0,0.0,0.0,0.0,0.0,0.0,0.0,0.0,0.0,0.0,0.0,0.0,0.0,0.0,0.0,0.0,0.0,0.0,0.0,0.0,0.0,0.0,0.0,0.0,0.0,0.0,0.0,0.0,0.0,0.0,0.0,0.0,0.0,0.0,0.0,0.0,0.0,0.0,0.0,0.0,0.0,0.0,0.0,0.0,0.0,0.0,0.0,0.0,0.0,0.0,0.0,0.0,0.0,0.0,0.0,0.0,0.0,0.0,0.0,0.0,0.0,0.0,0.0,0.0,0.0,0.0,0.0,0.0,0.0,0.0,0.0,0.0,0.0,0.0,0.0,0.0,0.0,0.0,0.0,0.0,0.0,0.0,0.0,0.0,0.0,0.0,0.0,0.0,0.0,0.0,0.0,0.0,0.0,0.0,0.0,0.0,0.0,0.0,0.0,0.0,-0.4978,-0.4437,-0.4836,-0.4935,-0.4687,0.0,0.0,0.0,0.0,0.0,0.0,0.0,0.0,0.0,0.0,0.0,0.0,0.0,0.0,0.0,0.0,0.0,0.0,0.0,0.0,0.0,0.0,0.0,0.0,0.0,0.0,0.0,0.0,0.0,0.0,0.0,0.0,0.0,0.0,0.0,0.0,0.0,0.0,0.0,0.0,0.0,0.0,0.0,0.0,0.0,0.0,0.0,0.0,0.0,0.0,0.0,0.0,0.0,0.0,0.0,0.0,0.0,0.0,0.0,0.0,0.0,0.0,0.0,0.0,0.0,0.0,0.0,0.0,0.0,0.0,0.0,0.0,0.0,0.0,0.0,0.0,0.0,0.0,0.0,0.0,0.0,0.0,0.0,0.0,0.0,0.0,0.0,0.0,0.0,0.0,0.0,0.0,0.0,0.0,0.0,0.0,0.0,0.0,0.0,0.0,0.0,0.0,0.0,0.0,0.0,0.0,0.0,0.0,0.0,0.0,0.0,0.0,-0.5007,-0.5154,-0.5045,0.0,0.0,0.0,0.0,0.0,0.0,0.0,0.0,0.0,0.0,0.0,0.0,0.0,0.0,0.0,0.0,0.0,0.0,0.0,0.0,0.0,0.0,0.0,0.0,0.0,0.0,0.0,0.0,0.0,0.0,0.0,0.0,0.0,0.0,0.0,0.0,0.0,0.0,0.0,0.0,0.0,0.0,0.0,0.0,0.0,0.0,0.0,0.0,0.0,0.0,0.0,0.0,0.0,0.0,0.0,0.0,0.0,0.0,0.0,0.0,0.0,0.0,0.0,0.0,0.0,0.0,0.0,0.0,0.0,0.0,0.0,0.0,0.0,0.0,0.0,0.0,0.0,0.0,0.0,0.0,0.0,0.0,0.0,0.0,0.0,0.0,0.0,0.0,0.0,0.0,0.0,0.0,0.0,0.0,0.0,0.0,0.0,0.0,0.0,0.0,0.0,0.0,0.0,0.0,0.0,0.0,0.0,0.0,0.0,0.0,-0.4873,-0.5471,-0.5311,0.0,-0.569,0.0,0.0,0.0,0.0,0.0,0.0,0.0,0.0,0.0,0.0,0.0,0.0,0.0,0.0,0.0,0.0,0.0,0.0,0.0,0.0,0.0,0.0,0.0,0.0,0.0,0.0,0.0,0.0,0.0,0.0,0.0,0.0,0.0,0.0,0.0,0.0,0.0,0.0,0.0,0.0,0.0,0.0,0.0,0.0,0.0,0.0,0.0,0.0,0.0,0.0,0.0,0.0,0.0,0.0,0.0,0.0,0.0,0.0,0.0,0.0,0.0,0.0,0.0,0.0,0.0,0.0,0.0,0.0,0.0,0.0,0.0,0.0,0.0,0.0,0.0,0.0,0.0,0.0,0.0,0.0,0.0,0.0,0.0,0.0,0.0,0.0,0.0,0.0,0.0,0.0,0.0,0.0,0.0,0.0,0.0,0.0,0.0,0.0,0.0,0.0,0.0,0.0,0.0,0.0,0.0,0.0,0.0,0.0,0.0,0.0,-0.5053,-0.5463,-0.546,-0.5432,0.0,0.0,0.0,0.0,0.0,0.0,0.0,0.0,0.0,0.0,0.0,0.0,0.0,0.0,0.0,0.0,0.0,0.0,0.0,0.0,0.0,0.0,0.0,0.0,0.0,0.0,0.0,0.0,0.0,0.0,0.0,0.0,0.0,0.0,0.0,0.0,0.0,0.0,0.0,0.0,0.0,0.0,0.0,0.0,0.0,0.0,0.0,0.0,0.0,0.0,0.0,0.0,0.0,0.0,0.0,0.0,0.0,0.0,0.0,0.0,0.0,0.0,0.0,0.0,0.0,0.0,0.0,0.0,0.0,0.0,0.0,0.0,0.0,0.0,0.0,0.0,0.0,0.0,0.0,0.0,0.0,0.0,0.0,0.0,0.0,0.0,0.0,0.0,0.0,0.0,0.0,0.0,0.0,0.0,0.0,0.0,0.0,0.0,0.0,0.0,0.0,0.0,0.0,0.0,0.0,0.0,0.0,0.0,0.0,0.0,-0.5243,-0.5349,-0.5556,-0.5621,-0.5479,-0.5208,0.0,0.0,0.0,0.0,0.0,0.0,0.0,0.0,0.0,0.0,0.0,0.0,0.0,0.0,0.0,0.0,0.0,0.0,0.0,0.0,0.0,0.0,0.0,0.0,0.0,0.0,0.0,0.0,0.0,0.0,0.0,0.0,0.0,0.0,0.0,0.0,0.0,0.0,0.0,0.0,0.0,0.0,0.0,0.0,0.0,0.0,0.0,0.0,0.0,0.0,0.0,0.0,0.0,0.0,0.0,0.0,0.0,0.0,0.0,0.0,0.0,0.0,0.0,0.0,0.0,0.0,0.0,0.0,0.0,0.0,0.0,0.0,0.0,0.0,0.0,0.0,0.0,0.0,0.0,0.0,0.0,0.0,0.0,0.0,0.0,0.0,0.0,0.0,0.0,0.0,0.0,0.0,0.0,0.0,0.0,0.0,0.0,0.0,0.0,0.0,0.0,0.0,0.0,0.0,0.0,0.0,0.0,0.0,-0.621,-0.5826,-0.5733,-0.6046,-0.5832,-0.5596,0.0,0.0,0.0,0.0,0.0,0.0,0.0,0.0,0.0,0.0,0.0,0.0,0.0,0.0,0.0,0.0,0.0,0.0,0.0,0.0,0.0,0.0,0.0,0.0,0.0,0.0,0.0,0.0,0.0,0.0,0.0,0.0,0.0,0.0,0.0,0.0,0.0,0.0,0.0,0.0,0.0,0.0,0.0,0.0,0.0,0.0,0.0,0.0,0.0,0.0,0.0,0.0,0.0,0.0,0.0,0.0,0.0,0.0,0.0,0.0,0.0,0.0,0.0,0.0,0.0,0.0,0.0,0.0,0.0,0.0,0.0,0.0,0.0,0.0,0.0,0.0,0.0,0.0,0.0,0.0,0.0,0.0,0.0,0.0,0.0,0.0,0.0,0.0,0.0,0.0,0.0,0.0,0.0,0.0,0.0,0.0,0.0,0.0,0.0,0.0,0.0,0.0,0.0,0.0,0.0,0.0,0.0,0.0,0.0,-0.5164,-0.5493,-0.5848,-0.6255,-0.5911,-0.5687,0.0,0.0,0.0,0.0,0.0,0.0,0.0,0.0,0.0,0.0,0.0,0.0,0.0,0.0,0.0,0.0,0.0,0.0,0.0,0.0,0.0,0.0,0.0,0.0,0.0,0.0,0.0,0.0,0.0,0.0,0.0,0.0,0.0,0.0,0.0,0.0,0.0,0.0,0.0,0.0,0.0,0.0,0.0,0.0,0.0,0.0,0.0,0.0,0.0,0.0,0.0,0.0,0.0,0.0,0.0,0.0,0.0,0.0,0.0,0.0,0.0,0.0,0.0,0.0,0.0,0.0,0.0,0.0,0.0,0.0,0.0,0.0,0.0,0.0,0.0,0.0,0.0,0.0,0.0,0.0,0.0,0.0,0.0,0.0,0.0,0.0,0.0,0.0,0.0,0.0,0.0,0.0,0.0,0.0,0.0,0.0,0.0,0.0,0.0,0.0,0.0,0.0,0.0,0.0,0.0,0.0,0.0,0.0,0.0,-0.5141,0.0,-0.6413,-0.6522,-0.6091,-0.5748,0.0,0.0,0.0,0.0,0.0,0.0,0.0,0.0,0.0,0.0,0.0,0.0,0.0,0.0,0.0,0.0,0.0,0.0,0.0,0.0,0.0,0.0,0.0,0.0,0.0,0.0,0.0,0.0,0.0,0.0,0.0,0.0,0.0,0.0,0.0,0.0,0.0,0.0,0.0,0.0,0.0,0.0,0.0,0.0,0.0,0.0,0.0,0.0,0.0,0.0,0.0,0.0,0.0,0.0,0.0,0.0,0.0,0.0,0.0,0.0,0.0,0.0,0.0,0.0,0.0,0.0,0.0,0.0,0.0,0.0,0.0,0.0,0.0,0.0,0.0,0.0,0.0,0.0,0.0,0.0,0.0,0.0,0.0,0.0,0.0,0.0,0.0,0.0,0.0,0.0,0.0,0.0,0.0,0.0,0.0,0.0,0.0,0.0,0.0,0.0,0.0,0.0,0.0,0.0,0.0,0.0,0.0,0.0,-0.5085,-0.6407,-0.7201,-0.7367,-0.6896,-0.6375,-0.5779,0.0,0.0,0.0,0.0,0.0,0.0,0.0,0.0,0.0,0.0,0.0,0.0,0.0,0.0,0.0,0.0,0.0,0.0,0.0,0.0,0.0,0.0,0.0,0.0,0.0,0.0,0.0,0.0,0.0,0.0,0.0,0.0,0.0,0.0,0.0,0.0,0.0,0.0,0.0,0.0,0.0,0.0,0.0,0.0,0.0,0.0,0.0,0.0,0.0,0.0,0.0,0.0,0.0,0.0,0.0,0.0,0.0,0.0,0.0,0.0,0.0,0.0,0.0,0.0,0.0,0.0,0.0,0.0,0.0,0.0,0.0,0.0,0.0,0.0,0.0,0.0,0.0,0.0,0.0,0.0,0.0,0.0,0.0,0.0,0.0,0.0,0.0,0.0,0.0,0.0,0.0,0.0,0.0,0.0,0.0,0.0,0.0,0.0,0.0,0.0,0.0,0.0,0.0,0.0,0.0,0.0,0.0,0.0,0.0,-0.6023,-0.6657,-0.7155,-0.7401,-0.6446,-0.5914,0.0,0.0,0.0,0.0,0.0,0.0,0.0,0.0,0.0,0.0,0.0,0.0,0.0,0.0,0.0,0.0,0.0,0.0,0.0,0.0,0.0,0.0,0.0,0.0,0.0,0.0,0.0,0.0,0.0,0.0,0.0,0.0,0.0,0.0,0.0,0.0,0.0,0.0,0.0,0.0,0.0,0.0,0.0,0.0,0.0,0.0,0.0,0.0,0.0,0.0,0.0,0.0,0.0,0.0,0.0,0.0,0.0,0.0,0.0,0.0,0.0,0.0,0.0,0.0,0.0,0.0,0.0,0.0,0.0,0.0,0.0,0.0,0.0,0.0,0.0,0.0,0.0,0.0,0.0,0.0,0.0,0.0,0.0,0.0,0.0,0.0,0.0,0.0,0.0,0.0,0.0,0.0,0.0,0.0,0.0,0.0,0.0,0.0,0.0,0.0,0.0,0.0,0.0,0.0,0.0,0.0,0.0,0.0,0.0,-0.655,-0.7143,-0.7605,-0.7834,-0.6827,-0.6187,-0.6016,0.0,0.0,0.0,0.0,0.0,0.0,0.0,0.0,0.0,0.0,0.0,0.0,0.0,0.0,0.0,0.0,0.0,0.0,0.0,0.0,0.0,0.0,0.0,0.0,0.0,0.0,0.0,0.0,0.0,0.0,0.0,0.0,0.0,0.0,0.0,0.0,0.0,0.0,0.0,0.0,0.0,0.0,0.0,0.0,0.0,0.0,0.0,0.0,0.0,0.0,0.0,0.0,0.0,0.0,0.0,0.0,0.0,0.0,0.0,0.0,0.0,0.0,0.0,0.0,0.0,0.0,0.0,0.0,0.0,0.0,0.0,0.0,0.0,0.0,0.0,0.0,0.0,0.0,0.0,0.0,0.0,0.0,0.0,0.0,0.0,0.0,0.0,0.0,0.0,0.0,0.0,0.0,0.0,0.0,0.0,0.0,0.0,0.0,0.0,0.0,0.0,0.0,0.0,0.0,0.0,0.0,0.0,0.0,-0.7683,-0.843,-0.8585,-0.8113,-0.7375,-0.6499,0.0,0.0,0.0,0.0,0.0,0.0,0.0,0.0,0.0,0.0,0.0,0.0,0.0,0.0,0.0,0.0,0.0,0.0,0.0,0.0,0.0,0.0,0.0,0.0,0.0,0.0,0.0,0.0,0.0,0.0,0.0,0.0,0.0,0.0,0.0,0.0,0.0,0.0,0.0,0.0,0.0,0.0,0.0,0.0,0.0,0.0,0.0,0.0,0.0,0.0,0.0,0.0,0.0,0.0,0.0,0.0,0.0,0.0,0.0,0.0,0.0,0.0,0.0,0.0,0.0,0.0,0.0,0.0,0.0,0.0,0.0,0.0,0.0,0.0,0.0,0.0,0.0,0.0,0.0,0.0,0.0,0.0,0.0,0.0,0.0,0.0,0.0,0.0,0.0,0.0,0.0,0.0,0.0,0.0,0.0,0.0,0.0,0.0,0.0,0.0,0.0,0.0,0.0,0.0,0.0,0.0,0.0,0.0,0.0,-0.7709,-0.8462,-0.8735,-0.8442,-0.726,-0.6389,0.0,0.0,0.0,0.0,0.0,0.0,0.0,0.0,0.0,0.0,0.0,0.0,0.0,0.0,0.0,0.0,0.0,0.0,0.0,0.0,0.0,0.0,0.0,0.0,0.0,0.0,0.0,0.0,0.0,0.0,0.0,0.0,0.0,0.0,0.0,0.0,0.0,0.0,0.0,0.0,0.0,0.0,0.0,0.0,0.0,0.0,0.0,0.0,0.0,0.0,0.0,0.0,0.0,0.0,0.0,0.0,0.0,0.0,0.0,0.0,0.0,0.0,0.0,0.0,0.0,0.0,0.0,0.0,0.0,0.0,0.0,0.0,0.0,0.0,0.0,0.0,0.0,0.0,0.0,0.0,0.0,0.0,0.0,0.0,0.0,0.0,0.0,0.0,0.0,0.0,0.0,0.0,0.0,0.0,0.0,0.0,0.0,0.0,0.0,0.0,0.0,0.0,0.0,0.0,0.0,0.0,0.0,0.0,-0.7304,-0.7818,-0.8195,-0.8319,-0.8146,-0.726,-0.6492,0.0,0.0,0.0,0.0,0.0,0.0,0.0,0.0,0.0,0.0,0.0,0.0,0.0,0.0,0.0,0.0,0.0,0.0,0.0,0.0,0.0,0.0,0.0,0.0,0.0,0.0,0.0,0.0,0.0,0.0,0.0,0.0,0.0,0.0,0.0,0.0,0.0,0.0,0.0,0.0,0.0,0.0,0.0,0.0,0.0,0.0,0.0,0.0,0.0,0.0,0.0,0.0,0.0,0.0,0.0,0.0,0.0,0.0,0.0,0.0,0.0,0.0,0.0,0.0,0.0,0.0,0.0,0.0,0.0,0.0,0.0,0.0,0.0,0.0,0.0,0.0,0.0,0.0,0.0,0.0,0.0,0.0,0.0,0.0,0.0,0.0,0.0,0.0,0.0,0.0,0.0,0.0,0.0,0.0,0.0,0.0,0.0,0.0,0.0,0.0,0.0,0.0,0.0,0.0,0.0,0.0,0.0,0.0,-0.7262,-0.7914,-0.7798,-0.7655,-0.746,-0.7193,-0.6602,0.0,0.0,0.0,0.0,0.0,0.0,0.0,0.0,0.0,0.0,0.0,0.0,0.0,0.0,0.0,0.0,0.0,0.0,0.0,0.0,0.0,0.0,0.0,0.0,0.0,0.0,0.0,0.0,0.0,0.0,0.0,0.0,0.0,0.0,0.0,0.0,0.0,0.0,0.0,0.0,0.0,0.0,0.0,0.0,0.0,0.0,0.0,0.0,0.0,0.0,0.0,0.0,0.0,0.0,0.0,0.0,0.0,0.0,0.0,0.0,0.0,0.0,0.0,0.0,0.0,0.0,0.0,0.0,0.0,0.0,0.0,0.0,0.0,0.0,0.0,0.0,0.0,0.0,0.0,0.0,0.0,0.0,0.0,0.0,0.0,0.0,0.0,0.0,0.0,0.0,0.0,0.0,0.0,0.0,0.0,0.0,0.0,0.0,0.0,0.0,0.0,0.0,0.0,0.0,0.0,0.0,0.0,0.0,-0.6925,-0.7371,-0.764,-0.7554,-0.7049,-0.6475,-0.599,0.0,0.0,0.0,0.0,0.0,0.0,0.0,0.0,0.0,0.0,0.0,0.0,0.0,0.0,0.0,0.0,0.0,0.0,0.0,0.0,0.0,0.0,0.0,0.0,0.0,0.0,0.0,0.0,0.0,0.0,0.0,0.0,0.0,0.0,0.0,0.0,0.0,0.0,0.0,0.0,0.0,0.0,0.0,0.0,0.0,0.0,0.0,0.0,-0.5604,0.0,0.0,0.0,0.0,0.0,0.0,0.0,0.0,0.0,0.0,0.0,0.0,0.0,0.0,0.0,0.0,0.0,0.0,0.0,0.0,0.0,0.0,0.0,0.0,0.0,0.0,0.0,0.0,0.0,0.0,0.0,0.0,0.0,0.0,0.0,0.0,0.0,0.0,0.0,0.0,0.0,0.0,0.0,0.0,0.0,0.0,0.0,0.0,0.0,0.0,0.0,0.0,0.0,0.0,0.0,0.0,0.0,0.0,0.0,-0.6862,-0.7195,-0.7405,-0.7215,-0.6623,-0.5878,-0.5548,0.0,0.0,0.0,0.0,0.0,0.0,0.0,0.0,0.0,0.0,0.0,0.0,0.0,0.0,0.0,0.0,0.0,0.0,0.0,0.0,0.0,0.0,0.0,0.0,0.0,0.0,0.0,0.0,0.0,0.0,0.0,0.0,0.0,0.0,0.0,0.0,0.0,0.0,0.0,0.0,0.0,0.0,0.0,0.0,0.0,0.0,0.0,0.0,0.0,0.0,0.0,0.0,0.0,0.0,0.0,0.0,0.0,0.0,0.0,0.0,0.0,0.0,0.0,0.0,0.0,0.0,0.0,0.0,0.0,0.0,0.0,0.0,0.0,0.0,0.0,0.0,0.0,0.0,0.0,0.0,0.0,0.0,0.0,0.0,0.0,0.0,0.0,0.0,0.0,0.0,0.0,0.0,0.0,0.0,0.0,0.0,0.0,0.0,0.0,0.0,0.0,0.0,0.0,0.0,0.0,0.0,0.0,-0.6377,-0.6812,-0.7081,-0.7057,-0.6795,-0.6215,-0.5368,-0.517,-0.5676,0.0,0.0,0.0,0.0,0.0,0.0,0.0,0.0,0.0,0.0,0.0,0.0,0.0,0.0,0.0,0.0,0.0,0.0,0.0,0.0,0.0,0.0,0.0,0.0,0.0,0.0,0.0,0.0,0.0,0.0,0.0,0.0,0.0,0.0,0.0,0.0,0.0,0.0,-0.5074,-0.5235,0.0,0.0,0.0,0.0,0.0,0.0,0.0,0.0,-0.5638,0.0,0.0,0.0,0.0,0.0,0.0,0.0,0.0,0.0,0.0,0.0,0.0,0.0,0.0,0.0,0.0,0.0,0.0,0.0,0.0,0.0,0.0,0.0,0.0,0.0,0.0,0.0,0.0,0.0,0.0,0.0,0.0,0.0,0.0,0.0,0.0,0.0,0.0,0.0,0.0,0.0,0.0,0.0,0.0,0.0,0.0,0.0,0.0,0.0,0.0,0.0,0.0,0.0,0.0,0.0,0.0,-0.576,-0.6078,-0.6351,-0.6674,-0.6523,-0.6215,-0.5735,-0.5109,-0.49,-0.5248,0.0,0.0,0.0,0.0,0.0,0.0,0.0,0.0,0.0,0.0,0.0,0.0,0.0,0.0,0.0,0.0,0.0,0.0,0.0,0.0,0.0,0.0,0.0,0.0,0.0,0.0,0.0,0.0,0.0,0.0,0.0,0.0,0.0,0.0,0.0,0.0,0.0,0.0,0.0,-0.6116,-0.6417,0.0,0.0,0.0,0.0,0.0,0.0,0.0,0.0,-0.5669,0.0,0.0,0.0,0.0,0.0,0.0,0.0,0.0,0.0,0.0,0.0,0.0,0.0,0.0,0.0,0.0,0.0,0.0,0.0,0.0,0.0,0.0,0.0,0.0,0.0,0.0,0.0,0.0,0.0,0.0,0.0,0.0,0.0,0.0,0.0,0.0,0.0,0.0,0.0,0.0,0.0,0.0,0.0,0.0,0.0,0.0,0.0,0.0,0.0,0.0,0.0,0.0,0.0,0.0,0.0,-0.5703,-0.5749,-0.5855,-0.6111,-0.6096,-0.5786,-0.5154,-0.457,-0.4524,0.0,0.0,0.0,0.0,0.0,0.0,0.0,0.0,0.0,0.0,0.0,0.0,0.0,0.0,0.0,0.0,0.0,0.0,0.0,0.0,0.0,0.0,0.0,0.0,0.0,0.0,0.0,0.0,0.0,0.0,0.0,0.0,0.0,0.0,0.0,0.0,0.0,0.0,0.0,0.0,-0.6381,-0.6473,-0.628,0.0,0.0,0.0,0.0,0.0,0.0,-0.5683,-0.555,0.0,0.0,0.0,0.0,0.0,0.0,0.0,0.0,0.0,0.0,0.0,0.0,0.0,0.0,0.0,0.0,0.0,0.0,0.0,0.0,0.0,0.0,0.0,0.0,0.0,0.0,0.0,0.0,0.0,0.0,0.0,0.0,0.0,0.0,0.0,0.0,0.0,0.0,0.0,0.0,0.0,0.0,0.0,0.0,0.0,0.0,0.0,0.0,0.0,0.0,0.0,0.0,0.0,0.0,0.0,-0.5652,-0.5533,-0.5503,-0.5631,-0.5672,-0.5359,-0.4616,-0.4026,-0.4154,0.0,0.0,0.0,0.0,0.0,0.0,0.0,0.0,0.0,0.0,0.0,0.0,0.0,0.0,0.0,0.0,0.0,0.0,0.0,0.0,0.0,0.0,0.0,0.0,0.0,0.0,0.0,0.0,0.0,0.0,0.0,0.0,0.0,0.0,0.0,0.0,0.0,0.0,0.0,0.0,0.0,-0.665,-0.6539,-0.6433,0.0,0.0,0.0,0.0,-0.6039,-0.5888,0.0,0.0,0.0,0.0,0.0,0.0,0.0,0.0,0.0,0.0,0.0,0.0,0.0,0.0,0.0,0.0,0.0,0.0,0.0,0.0,0.0,0.0,0.0,0.0,0.0,0.0,0.0,0.0,0.0,0.0,0.0,0.0,0.0,0.0,0.0,0.0,0.0,0.0,0.0,0.0,0.0,0.0,0.0,0.0,0.0,0.0,0.0,0.0,0.0,0.0,0.0,0.0,0.0,0.0,0.0,0.0,-0.5689,-0.5683,-0.5576,-0.5414,-0.5251,-0.4813,-0.4192,-0.3762,-0.3787,0.0,0.0,0.0,0.0,0.0,0.0,0.0,0.0,0.0,0.0,0.0,0.0,0.0,0.0,0.0,0.0,0.0,0.0,0.0,0.0,0.0,0.0,0.0,0.0,0.0,0.0,0.0,0.0,0.0,0.0,0.0,0.0,0.0,0.0,0.0,0.0,0.0,0.0,0.0,0.0,0.0,-0.78,-0.7346,-0.6909,-0.6762,0.0,0.0,-0.6661,-0.6904,-0.6935,0.0,0.0,0.0,0.0,0.0,0.0,0.0,0.0,0.0,0.0,0.0,0.0,0.0,0.0,0.0,0.0,0.0,0.0,0.0,0.0,0.0,0.0,0.0,0.0,0.0,0.0,0.0,0.0,0.0,0.0,0.0,0.0,0.0,0.0,0.0,0.0,0.0,0.0,0.0,0.0,0.0,0.0,0.0,0.0,0.0,0.0,0.0,0.0,0.0,0.0,0.0,0.0,0.0,0.0,0.0,-0.5307,-0.5735,-0.5399,-0.5099,-0.4894,-0.487,-0.4501,-0.3763,-0.3391,-0.3444,0.0,0.0,0.0,0.0,0.0,0.0,0.0,0.0,0.0,0.0,0.0,0.0,0.0,0.0,0.0,0.0,0.0,0.0,0.0,0.0,0.0,0.0,0.0,0.0,0.0,0.0,0.0,0.0,0.0,0.0,0.0,0.0,0.0,0.0,0.0,0.0,0.0,0.0,0.0,0.0,0.0,0.0,-0.8156,-0.7808,0.0,0.0,0.0,-0.7142,-0.7102,0.0,0.0,0.0,0.0,0.0,0.0,0.0,0.0,0.0,0.0,0.0,0.0,0.0,0.0,0.0,0.0,0.0,0.0,0.0,0.0,0.0,0.0,0.0,0.0,0.0,0.0,0.0,0.0,0.0,0.0,0.0,0.0,0.0,0.0,0.0,0.0,0.0,0.0,0.0,0.0,0.0,0.0,0.0,0.0,0.0,0.0,0.0,0.0,0.0,0.0,0.0,0.0,0.0,0.0,0.0,0.0,0.0,-0.5772,-0.5114,-0.4657,-0.4523,-0.4486,-0.4114,-0.3444,-0.3046,0.0,0.0,0.0,0.0,0.0,0.0,0.0,0.0,0.0,0.0,0.0,0.0,0.0,0.0,0.0,0.0,0.0,0.0,0.0,0.0,0.0,0.0,0.0,0.0,0.0,0.0,0.0,-0.5026,0.0,0.0,0.0,0.0,0.0,0.0,0.0,0.0,0.0,0.0,0.0,0.0,0.0,0.0,-0.7858,-0.8603,-0.8344,-0.8107,0.0,0.0,-0.7545,-0.7434,-0.7164,-0.69,0.0,0.0,0.0,0.0,0.0,0.0,0.0,0.0,0.0,0.0,0.0,0.0,0.0,0.0,0.0,0.0,0.0,0.0,0.0,0.0,0.0,0.0,0.0,0.0,0.0,0.0,0.0,0.0,0.0,0.0,0.0,0.0,0.0,0.0,0.0,0.0,0.0,0.0,0.0,0.0,0.0,0.0,0.0,0.0,0.0,0.0,0.0,0.0,0.0,0.0,0.0,0.0,0.0,0.0,0.0,-0.576,-0.5004,-0.4554,-0.4488,-0.4063,-0.3608,-0.3139,-0.28,-0.3034,0.0,0.0,0.0,0.0,0.0,0.0,0.0,0.0,0.0,0.0,0.0,0.0,0.0,0.0,0.0,0.0,0.0,0.0,0.0,0.0,0.0,0.0,0.0,0.0,0.0,0.0,0.0,0.0,0.0,0.0,0.0,0.0,0.0,0.0,0.0,0.0,0.0,0.0,0.0,0.0,0.0,-0.8378,-0.8502,-0.8163,-0.8107,0.0,0.0,-0.7966,-0.8282,-0.8238,-0.8017,-0.7502,0.0,0.0,0.0,0.0,0.0,0.0,0.0,0.0,0.0,0.0,0.0,0.0,0.0,0.0,0.0,0.0,0.0,0.0,0.0,0.0,0.0,0.0,0.0,0.0,0.0,0.0,0.0,0.0,0.0,0.0,0.0,0.0,0.0,0.0,0.0,0.0,0.0,0.0,0.0,0.0,0.0,0.0,0.0,0.0,0.0,0.0,0.0,0.0,0.0,0.0,0.0,0.0,0.0,-0.5592,-0.5951,-0.5152,-0.456,-0.4286,-0.4059,-0.3647,-0.2943,-0.273,-0.2755,0.0,0.0,0.0,0.0,0.0,0.0,0.0,0.0,0.0,0.0,0.0,0.0,0.0,0.0,0.0,0.0,0.0,0.0,0.0,0.0,0.0,0.0,0.0,0.0,0.0,0.0,0.0,0.0,-0.6016,-0.6023,-0.5815,0.0,0.0,0.0,0.0,0.0,0.0,0.0,0.0,0.0,0.0,-0.8521,-0.9118,-0.9041,0.0,0.0,-0.869,-0.8573,-0.8512,-0.8236,-0.796,-0.7793,-0.8087,0.0,0.0,0.0,0.0,0.0,0.0,0.0,0.0,0.0,0.0,0.0,0.0,0.0,0.0,0.0,0.0,0.0,0.0,0.0,0.0,0.0,0.0,0.0,0.0,0.0,0.0,0.0,0.0,0.0,0.0,0.0,0.0,0.0,0.0,0.0,0.0,0.0,0.0,0.0,0.0,0.0,0.0,0.0,0.0,0.0,0.0,0.0,0.0,0.0,0.0,0.0,0.0,-0.5712,-0.5976,-0.5162,-0.4513,-0.4114,-0.3923,-0.3491,-0.2821,-0.2636,-0.2625,0.0,0.0,0.0,0.0,0.0,0.0,0.0,0.0,0.0,0.0,0.0,0.0,0.0,0.0,0.0,0.0,0.0,0.0,0.0,0.0,0.0,0.0,0.0,0.0,0.0,0.0,0.0,0.0,-0.6432,-0.6353,-0.6143,0.0,0.0,0.0,0.0,0.0,0.0,0.0,0.0,0.0,0.0,-0.849,-0.9424,-0.9476,-0.9336,-0.9134,-0.9075,-0.901,-0.895,-0.8527,-0.8226,-0.8233,0.0,0.0,0.0,0.0,0.0,0.0,0.0,0.0,0.0,0.0,0.0,0.0,0.0,0.0,0.0,0.0,0.0,0.0,0.0,0.0,0.0,0.0,0.0,0.0,0.0,0.0,0.0,0.0,0.0,0.0,-0.4442,0.0,0.0,0.0,0.0,0.0,0.0,0.0,0.0,0.0,0.0,0.0,0.0,0.0,0.0,0.0,0.0,0.0,0.0,0.0,0.0,0.0,0.0,-0.5781,-0.5699,-0.495,-0.4358,-0.4075,-0.3454,-0.3061,-0.2823,-0.2566,-0.2622,-0.3184,0.0,0.0,0.0,0.0,0.0,0.0,0.0,0.0,0.0,0.0,0.0,0.0,0.0,0.0,0.0,0.0,0.0,0.0,0.0,0.0,0.0,0.0,0.0,0.0,0.0,0.0,-0.6523,-0.6106,-0.5966,0.0,0.0,0.0,0.0,0.0,0.0,0.0,0.0,0.0,0.0,-0.7803,-0.8281,-0.908,-0.9214,-0.9378,-0.9786,-0.9479,-0.9313,-0.9624,-0.9277,-0.8978,0.0,0.0,0.0,0.0,0.0,0.0,0.0,0.0,0.0,0.0,0.0,0.0,0.0,0.0,0.0,0.0,0.0,0.0,0.0,0.0,0.0,0.0,0.0,0.0,0.0,0.0,0.0,-0.5634,-0.5587,0.0,0.0,0.0,0.0,0.0,0.0,0.0,0.0,0.0,0.0,0.0,-0.5951,-0.5786,0.0,0.0,0.0,0.0,0.0,0.0,0.0,0.0,0.0,0.0,0.0,0.0,-0.5708,-0.5977,-0.4965,-0.4194,-0.3722,-0.3489,-0.3137,-0.2627,-0.2489,-0.2676,-0.317,0.0,0.0,0.0,0.0,0.0,0.0,0.0,0.0,0.0,0.0,0.0,0.0,0.0,0.0,0.0,0.0,0.0,0.0,0.0,0.0,0.0,0.0,0.0,0.0,0.0,-0.7606,0.0,0.0,0.0,0.0,0.0,0.0,0.0,0.0,0.0,0.0,0.0,-0.6918,-0.7201,-0.7649,-0.8138,-0.8702,-0.9102,-0.9402,0.0,0.0,0.0,0.0,0.0,0.0,0.0,0.0,0.0,0.0,0.0,0.0,0.0,0.0,-0.9643,-0.9691,-0.958,-0.9583,-0.9844,0.0,0.0,0.0,0.0,0.0,0.0,0.0,0.0,0.0,0.0,0.0,0.0,0.0,0.0,-0.6087,0.0,-0.5896,0.0,0.0,0.0,0.0,0.0,0.0,0.0,0.0,-0.6202,-0.6294,-0.6177,-0.6084,-0.6006,0.0,-0.601,-0.5909,0.0,0.0,0.0,0.0,0.0,0.0,0.0,0.0,-0.5646,-0.5833,-0.4853,-0.4034,-0.3526,-0.3331,-0.3018,-0.251,-0.2451,-0.2589,-0.2997,-0.2941,-0.3119,0.0,0.0,0.0,0.0,0.0,0.0,0.0,0.0,0.0,0.0,0.0,0.0,0.0,0.0,0.0,0.0,0.0,0.0,0.0,0.0,0.0,0.0,0.0,-0.7688,0.0,0.0,0.0,0.0,0.0,0.0,0.0,0.0,0.0,-0.5819,-0.6041,-0.6318,-0.6631,-0.7338,-0.8001,-0.8415,0.0,0.0,0.0,0.0,0.0,0.0,0.0,-0.9438,-0.9498,-0.9557,-0.9546,-0.9469,-0.9698,-0.9907,-0.991,0.0,0.0,-1.064,-1.0648,-1.0671,-1.0818,-1.0615,-1.0447,-1.0523,-1.0602,-1.0721,0.0,0.0,0.0,0.0,0.0,0.0,0.0,0.0,-0.635,-0.6327,0.0,-0.6228,0.0,0.0,0.0,0.0,0.0,-0.5914,0.0,0.0,-0.6589,-0.6824,-0.6856,-0.6601,-0.6519,-0.6542,-0.6476,-0.6188,-0.5703,-0.6073,0.0,0.0,0.0,0.0,0.0,0.0,-0.5541,-0.5291,-0.4498,-0.3886,-0.3493,-0.3025,-0.271,-0.2508,-0.2454,-0.2468,-0.262,-0.281,-0.3062,-0.3385,-0.3758,0.0,0.0,0.0,0.0,0.0,0.0,0.0,0.0,0.0,0.0,0.0,0.0,0.0,0.0,0.0,0.0,0.0,0.0,0.0,0.0,-0.7128,0.0,0.0,0.0,0.0,0.0,0.0,0.0,0.0,0.0,0.0,-0.5739,-0.565,-0.5683,-0.5885,0.0,0.0,0.0,0.0,-0.9919,-0.981,-0.9804,-0.9798,-0.981,-0.9804,-0.9857,-1.0038,0.0,0.0,-0.9952,-1.0024,-1.0046,-0.987,-1.0478,-1.0979,-1.0919,-1.1099,-1.1335,-1.146,-1.1261,-1.1213,-1.1396,-1.1164,-1.1011,-0.7921,0.0,0.0,0.0,0.0,-0.7503,-0.7436,-0.7579,-0.6961,-0.674,-0.6777,-0.6315,0.0,0.0,0.0,0.0,0.0,0.0,-0.6007,-0.6408,-0.6528,-0.6539,-0.6451,-0.6245,-0.5944,-0.5618,-0.5734,-0.5583,-0.5222,-0.5607,-0.5842,-0.5883,0.0,0.0,0.0,0.0,-0.5048,-0.5095,-0.4173,-0.3458,-0.3058,-0.2938,-0.2754,-0.2512,-0.2454,-0.2533,-0.2658,-0.2747,-0.2914,-0.3314,-0.3487,0.0,0.0,0.0,0.0,0.0,0.0,0.0,0.0,0.0,0.0,0.0,0.0,0.0,0.0,0.0,0.0,0.0,0.0,0.0,-0.8266,-0.7412,-0.6768,0.0,0.0,0.0,0.0,0.0,0.0,0.0,0.0,0.0,-0.4987,-0.5119,-0.543,0.0,0.0,-0.7245,-0.7951,-0.8766,-0.9403,-0.9828,-0.9831,0.0,0.0,-0.9987,-0.98,-0.977,-0.9887,-1.0031,-1.003,-1.0137,-1.0257,-1.0351,-1.0837,-1.1158,-1.0961,-1.1311,-1.1584,-1.1538,-1.158,-1.161,-1.1509,-1.1481,-1.1412,-0.8116,-0.8016,-0.7836,-0.7823,-0.7884,-0.7591,-0.7555,-0.7683,-0.7238,-0.711,-0.7115,-0.6589,-0.6165,-0.5902,-0.565,0.0,0.0,0.0,-0.5981,-0.6415,-0.6395,-0.6337,-0.6287,-0.6173,-0.5877,-0.551,-0.5638,-0.5472,-0.5148,-0.5404,-0.5461,-0.5345,0.0,0.0,-0.6122,-0.5149,-0.4687,-0.4731,-0.3918,-0.3294,-0.2968,-0.282,-0.2704,-0.2548,-0.2484,-0.256,-0.2688,-0.2648,-0.2763,-0.3126,-0.3191,-0.3135,0.0,0.0,0.0,0.0,0.0,0.0,0.0,0.0,0.0,0.0,0.0,-0.3652,-0.3771,0.0,0.0,0.0,-0.6044,-0.7052,-0.7366,-0.6855,0.0,0.0,0.0,0.0,0.0,0.0,0.0,-0.5507,-0.5036,-0.4646,-0.4276,-0.4447,-0.4812,-0.5409,-0.6295,-0.7111,-0.7627,0.0,-0.9198,-0.9633,-0.9536,-0.9557,-0.9937,-0.9782,-0.9647,-0.9862,-1.0032,-1.0152,-1.0184,-1.031,-1.0414,-1.0545,-1.1006,-1.1342,-1.1083,-1.1592,-1.1998,-1.18,-1.2084,-1.2215,-1.1876,-1.1901,-1.1797,-0.8362,-0.7951,-0.7518,-0.7454,-0.7636,-0.7423,-0.7352,-0.7337,-0.7315,-0.7426,-0.753,-0.6951,-0.6659,-0.6591,-0.6023,0.0,-0.5642,-0.5841,-0.6078,-0.627,-0.6227,-0.6224,-0.6248,-0.6196,-0.6053,-0.5883,-0.5834,-0.5613,-0.5246,-0.5347,-0.5212,-0.4804,-0.5091,-0.5292,-0.5399,-0.4799,-0.4406,-0.4298,-0.3708,-0.3244,-0.2952,-0.2682,-0.2566,-0.2559,-0.2548,-0.2567,-0.2697,-0.254,-0.2588,-0.2857,-0.2938,-0.2891,-0.2705,0.0,0.0,0.0,0.0,0.0,0.0,0.0,0.0,0.0,0.0,0.0,0.0,0.0,0.0,0.0,-0.5591,0.0,-0.5366,-0.5879,0.0,0.0,0.0,-0.6613,-0.6055,-0.5881,-0.551,-0.4806,0.0,0.0,-0.3598,-0.3676,-0.3986,-0.4588,-0.6072,-0.7134,-0.7263,-0.8275,-0.9106,-0.9379,-0.9113,-0.9034,-0.953,-0.9526,-0.963,-1.0098,-1.0466,-1.0497,-1.0384,-1.0511,-1.0536,-1.0435,-1.1063,-1.1574,-1.1342,-1.1949,-1.2439,-1.2198,-1.2555,-1.2815,-1.2378,-1.2246,-1.2044,-0.774,-0.7828,-0.7622,-0.7669,-0.79,-0.7729,-0.7774,-0.786,-0.7486,-0.7318,-0.7336,-0.6691,-0.6239,-0.5944,-0.5644,-0.558,-0.5656,-0.5726,-0.5951,-0.6233,-0.6181,-0.6057,-0.5856,-0.5799,-0.5488,-0.4868,-0.5018,-0.4889,-0.4578,-0.4769,-0.4838,-0.4707,-0.4596,-0.4717,-0.5072,-0.4578,-0.4329,-0.4322,-0.3734,-0.3145,-0.2587,-0.2448,-0.2357,-0.2317,-0.2465,-0.255,-0.2531,-0.2644,-0.2676,-0.2621,-0.2745,-0.2772,-0.2555,-0.3029,0.0,0.0,0.0,0.0,0.0,0.0,0.0,0.0,0.0,-0.3324,-0.359,0.0,-0.4175,0.0,-0.46,-0.5254,-0.6507,-0.6113,0.0,0.0,-0.5962,-0.5821,-0.519,-0.4988,-0.4717,-0.4189,-0.3679,-0.3339,-0.3228,-0.3363,-0.3737,-0.439,-0.5376,-0.6474,-0.7613,-0.8151,-0.875,-0.936,-0.9504,-0.9649,-1.0026,-1.014,-1.0093,-0.9963,-1.0308,-1.0566,-1.053,-1.076,-1.095,-1.0979,-1.1507,-1.1806,-1.1515,-1.2216,-1.2758,-1.2657,-1.2683,-1.2648,-1.2442,-1.2261,-1.2054,-0.768,-0.7662,-0.7682,-0.7707,-0.7689,-0.7717,-0.7759,-0.7823,-0.7492,-0.7342,-0.7332,-0.6661,-0.6053,-0.5628,-0.555,-0.5502,-0.5498,-0.555,-0.5697,-0.5976,-0.5889,-0.5794,-0.5675,-0.5589,-0.5245,-0.4706,-0.4754,-0.4594,-0.4325,-0.4452,-0.4389,-0.4178,-0.413,-0.4212,-0.4301,-0.4174,-0.4031,-0.3985,-0.3369,-0.2866,-0.2468,-0.2288,-0.2196,-0.2107,-0.227,-0.2317,-0.2242,-0.2339,-0.234,-0.2239,-0.2433,-0.2444,-0.227,-0.2549,-0.2637,0.0,0.0,0.0,0.0,0.0,0.0,0.0,0.0,0.0,0.0,0.0,-0.3997,-0.4512,-0.4638,-0.5114,-0.6224,-0.5895,-0.5531,-0.5313,-0.5259,-0.5,-0.4454,-0.4172,-0.384,-0.3489,-0.3212,-0.2975,-0.287,-0.3175,-0.3703,-0.4421,-0.4927,-0.5817,-0.7208,-0.7813,-0.8332,-0.9067,-0.9306,-0.9617,-1.0165,-1.0303,-1.025,-1.0133,-1.0354,-1.0586,-1.0593,-1.087,-1.1097,-1.116,-1.1654,-1.2043,-1.1844,-1.2378,-1.2846,-1.2734,-1.2705,-1.2716,-1.2737,-1.2504,-1.2235,-0.7717,-0.7557,-0.7699,-0.7594,-0.728,-0.7503,-0.7553,-0.7595,-0.744,-0.734,-0.726,-0.6656,-0.6019,-0.5494,-0.564,-0.5541,-0.5231,-0.5372,-0.5549,-0.5677,-0.5502,-0.5458,-0.5586,-0.5413,-0.5146,-0.4919,-0.4746,-0.4525,-0.4257,-0.4255,-0.3993,-0.3537,-0.3772,-0.3728,-0.3533,-0.3664,-0.3654,-0.354,-0.2872,-0.2515,-0.2469,-0.2203,-0.2029,-0.1945,-0.1984,-0.1985,-0.1901,-0.1896,-0.1898,-0.1898,-0.2095,-0.2115,-0.1985,-0.1983,-0.2212,0.0,-0.304,0.0,0.0,0.0,0.0,0.0,0.0,0.0,0.0,-0.3288,-0.4001,-0.5042,-0.4977,-0.4988,-0.5272,-0.5391,-0.5162,-0.4494,-0.4372,-0.4213,-0.3798,-0.3345,-0.3013,-0.2847,-0.2759,-0.265,-0.2518,-0.2978,-0.3643,-0.4341,-0.4608,-0.5224,-0.6471,-0.7253,-0.791,-0.8589,-0.8921,-0.9436,-0.9937,-1.0188,-1.0284,-1.0315,-1.0484,-1.0593,-1.0586,-1.087,-1.1097,-1.116,-1.1591,-1.2027,-1.2058,-1.2398,-1.2652,-1.2566,-1.2665,-1.2811,-1.2949,-1.2659,-1.2318,-0.7226,-0.7604,-0.7604,-0.747,-0.7223,-0.7251,-0.7369,-0.7509,-0.7399,-0.7066,-0.6663,-0.631,-0.5891,-0.5432,-0.5633,-0.5586,-0.5385,-0.5542,-0.5688,-0.5686,-0.5508,-0.5282,-0.5144,-0.4924,-0.4703,-0.4433,-0.4389,-0.4257,-0.3991,-0.3991,-0.3849,-0.3566,-0.3624,-0.3624,-0.3566,0.0,0.0,0.0,-0.2782,-0.2424,-0.2243,-0.1967,-0.181,-0.1772,-0.1987,0.0,-0.1905,-0.194,-0.1943,-0.1902,-0.1972,0.0,0.0,0.0,0.0,0.0,0.0,0.0,0.0,0.0,0.0,0.0,-0.1732,-0.1916,-0.2442,-0.2683,-0.3195,-0.4069,-0.4155,-0.4294,-0.4709,-0.4645,-0.4358,-0.3843,-0.3689,-0.345,-0.2975,-0.2713,-0.249,-0.2442,-0.2081,-0.1974,-0.2238,-0.2391,-0.2784,-0.3643,-0.4148,-0.4802,-0.5739,-0.6566,-0.7476,-0.8504,-0.9223,-0.9723,-0.9908,-1.0213,-1.0294,-1.0138,-1.0328,-1.0575,-1.0593,-1.0846,-1.1059,-1.1097,-1.1411,-1.1716,-1.184,-1.2058,-1.2243,-1.2344,-1.2451,-1.2558,-1.2617,-1.2257,-1.1913,-0.6956,0.0,-0.7245,-0.7116,0.0,-0.6993,-0.7125,-0.7252,-0.719,-0.6892,-0.6442,-0.6281,-0.6084,-0.5761,-0.5913,-0.5905,-0.5719,-0.5909,-0.5843,-0.5597,-0.5512,-0.523,-0.4835,-0.475,-0.4482,-0.4123,-0.4078,-0.39,-0.3585,-0.3676,-0.3588,-0.3275,-0.3363,-0.3363,-0.3275,-0.3005,-0.2871,-0.2871,-0.2512,-0.2155,-0.1795,-0.166,-0.1511,-0.135,0.0,0.0,0.0,0.0,0.0,0.0,0.0,0.0,0.0,0.0,0.0,-0.312,-0.3349,-0.323,-0.2714,-0.2673,-0.2377,-0.1649,-0.1126,-0.1206,-0.2075,-0.2471,-0.2901,-0.3456,-0.3658,-0.3855,-0.4078,-0.399,-0.3759,-0.3295,-0.3121,-0.2807,-0.2315,-0.1999,-0.1854,-0.1793,-0.1611,-0.1593,-0.1887,-0.2196,-0.2586,-0.3212,-0.3839,-0.4543,-0.5356,-0.6093,-0.7061,-0.8322,-0.9041,-0.961,-0.9961,-1.0106,-1.0262,-1.0217,-1.032,-1.0436,-1.0428,-1.0744,-1.0902,-1.0776,-1.109,-1.1459,-1.1466,-1.1685,-1.184,-1.1802,-1.1864,-1.1864,-1.1833,-1.1747,-1.1716,-0.6682,-0.6735,-0.6887,-0.6807,-0.6508,-0.6697,-0.6863,-0.6908,0.0,0.0,0.0,-0.6399,-0.6211,-0.604,-0.6159,-0.61,-0.5888,-0.6117,-0.595,-0.5494,-0.5453,-0.511,-0.4659,-0.4589,-0.4326,-0.3881,-0.3895,-0.3666,-0.3244,-0.3427,-0.3331,-0.2964,-0.3005,-0.296,-0.2784,-0.256,-0.2424,-0.2289,-0.2155,-0.184,-0.1391,-0.1301,-0.1202,-0.1007,-0.1245,-0.1322,-0.1316,-0.1383,-0.1384,-0.1315,-0.1528,-0.1826,-0.2157,-0.22,-0.2407,-0.282,-0.3037,-0.2879,-0.2382,-0.2346,-0.2051,-0.1368,-0.065,-0.065,-0.1575,-0.2031,-0.2443,-0.2793,-0.3148,-0.3353,-0.3345,-0.3388,-0.3184,-0.26,-0.2509,-0.2227,-0.1629,-0.1318,-0.122,-0.1215,-0.1252,-0.1326,-0.1577,-0.2042,-0.2549,-0.2978,-0.3567,-0.4311,-0.5126,-0.5983,-0.6949,-0.8136,-0.8742,-0.9231,-0.9857,-1.0008,-1.0055,-1.0233,-1.0249,-1.0226,-1.0257,-1.046,-1.0523,-1.0333,-1.0744,-1.0989,-1.1028,-1.1216,-1.1373,-1.1303,-1.1279,-1.124,-1.1153,-1.1279,-1.1435,-0.6381,-0.6816,-0.6816,-0.6647,-0.641,-0.6459,-0.6451,-0.6459,-0.6538,-0.6544,-0.6486,-0.6225,-0.5982,-0.5704,-0.5893,-0.5777,-0.5505,-0.5695,-0.5642,0.0,-0.5166,-0.4819,-0.4346,-0.4195,-0.3957,-0.3737,-0.3797,-0.3608,-0.3321,-0.3315,-0.3197,-0.288,-0.2693,-0.2512,-0.2289,-0.2244,-0.2019,-0.157,-0.1525,-0.1391,-0.1166,-0.0942,-0.0896,-0.1072,-0.1119,-0.1242,-0.1386,-0.1412,-0.1415,-0.1386,-0.1408,-0.1543,-0.1776,-0.1817,-0.1973,-0.2362,-0.2441,-0.2443,-0.2355,-0.1809,-0.1096,-0.0319,-0.0135,-0.0223,-0.0578,-0.0668,-0.0982,-0.1563,-0.2149,-0.2359,-0.2321,-0.2534,-0.2383,-0.1739,-0.16,-0.1378,-0.0903,-0.0815,-0.0807,-0.0912,-0.0948,-0.1106,-0.1496,-0.1807,-0.2159,-0.2589,-0.3214,-0.3954,-0.4968,-0.6209,-0.7292,-0.8025,-0.8475,-0.897,-0.9513,-0.9775,-0.9807,-0.9799,-0.9922,-0.9945,-0.9898,-1.0078,-1.0168,-1.006,-1.0302,-1.0479,-1.0575,-1.0649,-1.0846,-1.1003,-1.1052,-1.1059,-1.1028,-1.0902,-1.0814,-0.6145,-0.6392,-0.6539,-0.6539,-0.6387,-0.6239,-0.6189,-0.6176,-0.6068,-0.6093,-0.62,-0.6109,-0.5909,-0.5658,-0.5959,-0.6062,-0.5909,-0.6233,-0.612,-0.5634,-0.5439,-0.4935,-0.4298,-0.4068,-0.3857,-0.3573,-0.3558,-0.3463,-0.3196,-0.3254,-0.3177,-0.2964,-0.2663,-0.2379,-0.22,-0.1885,-0.1615,-0.1256,-0.1346,-0.1166,-0.0718,-0.0718,-0.0718,-0.0718,-0.0807,-0.0982,-0.1238,-0.1249,-0.1302,-0.1439,-0.1437,-0.1526,-0.1754,-0.1754,-0.1881,-0.2221,-0.2261,-0.2207,-0.2134,-0.1529,-0.0921,-0.0273,-0.0226,-0.0268,-0.0309,-0.049,-0.0807,-0.1346,-0.1615,-0.1823,-0.1916,-0.2042,-0.1895,-0.1474,-0.1374,-0.107,-0.0448,-0.0321,-0.0358,-0.0394,-0.0511,-0.0746,-0.1179,-0.1533,-0.1886,-0.2314,-0.3056,-0.3915,-0.4577,-0.5509,-0.6479,-0.7288,-0.7859,-0.8432,-0.8998,-0.9199,-0.9425,-0.9661,-0.977,-0.9763,-0.9733,-0.9976,-1.0046,-0.9804,-1.0003,-1.0269,-1.0237,-1.0335,-1.0454,-1.046,-1.0618,-1.0611,-1.0523,-1.0364,-1.0308,-0.5892,-0.6042,-0.6239,-0.6337,-0.6387,-0.6039,-0.5942,-0.5942,-0.5636,-0.5639,-0.5792,-0.5889,-0.5777,-0.5634,-0.6008,-0.6197,-0.6241,-0.6618,-0.6442,-0.5785,-0.5617,-0.5076,-0.4269,-0.4043,-0.3777,-0.3357,-0.3373,-0.3276,-0.3113,-0.321,-0.3078,-0.2819,-0.255,-0.23,-0.2019,-0.157,-0.1211,-0.1031,-0.1122,-0.0852,-0.0269,-0.0448,-0.0448,-0.0359,-0.0538,-0.0762,-0.1076,-0.1076,-0.122,-0.1468,-0.1448,-0.1492,-0.1698,-0.1701,-0.1793,-0.198,-0.2015,-0.1946,-0.1714,-0.1357,-0.0919,-0.0497,-0.0448,-0.0488,-0.0483,-0.0664,-0.0933,-0.124,-0.142,-0.1585,-0.1676,-0.1711,-0.1571,-0.1286,-0.1102,-0.0686,-0.004,0.0119,0.0118,0.0039,-0.0118,-0.0354,-0.0825,-0.1258,-0.1729,-0.2275,-0.3057,-0.3724,-0.4231,-0.4776,-0.555,-0.6363,-0.7173,-0.7863,-0.8466,-0.8768,-0.9049,-0.951,-0.9523,-0.9515,-0.9553,-0.992,-1.003,-0.9615,-0.9912,-1.0153,-1.0007,-1.0184,-1.0327,-1.0327,-1.0399,-1.0302,-1.0125,-1.0086,-1.0019,-0.5541,-0.5992,-0.5992,-0.6192,-0.6337,-0.5834,-0.5789,-0.5892,-0.5441,-0.524,-0.529,-0.5536,-0.5586,-0.5557,-0.582,-0.5855,-0.5771,-0.6064,-0.6012,-0.569,-0.5445,-0.4931,-0.425,-0.4014,-0.3611,-0.3187,-0.3183,-0.3179,-0.3132,-0.3121,-0.2828,-0.2323,-0.2217,-0.1966,-0.1529,-0.1256,-0.0987,-0.0762,-0.0583,-0.0224,0.0269,0.009,-0.0045,-0.0045,-0.0314,-0.0628,-0.1031,-0.1076,-0.1212,-0.1394,-0.1393,-0.1392,-0.144,-0.144,-0.144,-0.1487,-0.1561,-0.1449,-0.1235,-0.1123,-0.1017,-0.069,-0.0669,-0.0792,-0.098,-0.0969,-0.0996,-0.1113,-0.1467,-0.1631,-0.1401,-0.1355,-0.1182,-0.0798,-0.0436,0.0,0.0237,0.059,0.0589,0.0039,0.0118,-0.0039,-0.0707,-0.114,-0.161,-0.2276,-0.2698,-0.3163,-0.3748,-0.4331,-0.4874,-0.5541,-0.644,-0.7369,-0.7983,-0.847,-0.8698,-0.8849,-0.8973,-0.9134,-0.9276,-0.9346,-0.93,-0.9497,-0.9742,-0.9985,-1.0048,-1.0289,-1.0526,-1.0445,-1.0396,-1.0355,-1.0105,-1.0035,-1.0015,-0.4839,-0.5092,-0.5391,-0.5689,-0.5834,-0.5536,-0.5438,-0.5493,-0.5138,-0.4889,-0.4738,-0.4839,-0.4966,-0.5079,-0.5379,-0.5551,-0.566,-0.5904,-0.6002,-0.5848,-0.5548,-0.5017,-0.4334,-0.4022,-0.3647,-0.3192,-0.3219,-0.3168,-0.3142,-0.296,-0.2661,-0.2264,-0.205,-0.1705,-0.1233,-0.0993,-0.0762,-0.0493,-0.0135,0.0224,0.0493,0.0359,0.0224,0.0224,0.0135,-0.009,-0.0404,-0.0583,-0.0857,-0.1185,-0.1219,-0.1218,-0.1233,-0.1371,-0.1371,-0.1235,-0.1398,-0.1504,-0.15,-0.1487,-0.1472,-0.1364,-0.1208,-0.1195,-0.1233,-0.1016,-0.0874,-0.102,-0.133,-0.1501,-0.1292,-0.119,-0.0967,-0.0632,-0.0236,0.0118,0.0471,0.0707,0.0786,0.055,0.0393,0.0157,-0.0354,-0.0904,-0.1492,-0.2037,-0.237,-0.2734,-0.3266,-0.38,-0.4294,-0.4836,-0.5688,-0.6553,-0.7369,-0.7902,-0.8277,-0.8604,-0.8763,-0.8867,-0.9026,-0.9306,-0.9416,-0.9274,-0.9606,-0.9779,-0.9708,-0.9991,-1.0257,-1.0247,-1.0124,-0.9939,-0.9555,-0.9625,-0.9513,-0.4338,-0.4489,-0.4989,-0.5338,-0.5486,-0.529,-0.519,-0.514,-0.4935,-0.4638,-0.439,-0.439,-0.4489,-0.4686,-0.4987,-0.5238,-0.5486,-0.5789,-0.5889,-0.5832,-0.5563,-0.5075,-0.4427,-0.4079,-0.3682,-0.3274,-0.318,-0.318,-0.3075,-0.284,-0.2546,-0.2213,-0.199,-0.159,-0.111,-0.0865,-0.0586,-0.0269,0.0179,0.0493,0.0673,0.0628,0.0583,0.0493,0.0493,0.0314,0.0,-0.0179,-0.0497,-0.087,-0.0949,-0.0993,-0.1008,-0.1101,-0.1101,-0.0965,-0.1209,-0.1445,-0.1607,-0.1652,-0.1687,-0.1663,-0.1473,-0.1329,-0.1232,-0.0929,-0.0792,-0.0907,-0.1124,-0.1162,-0.1087,-0.0981,-0.08,-0.0551,-0.0118,0.0314,0.0629,0.0943,0.1179,0.1061,0.0942,0.0549,0.0079,-0.055,-0.1178,-0.1647,-0.1974,-0.2357,-0.277,-0.3235,-0.3741,-0.4277,-0.489,-0.5696,-0.6718,-0.7369,-0.7821,-0.8127,-0.8304,-0.8481,-0.8765,-0.9085,-0.9367,-0.9116,-0.9479,-0.97,-0.9663,-0.9832,-0.997,-0.9804,-0.9655,-0.9507,-0.9207,-0.9201,-0.8877,-0.4187,-0.4438,-0.4989,-0.519,-0.524,-0.519,-0.519,-0.5138,-0.4885,-0.4636,-0.4438,-0.439,-0.4388,-0.4437,-0.4686,-0.4985,-0.524,-0.5486,-0.5636,-0.5636,-0.5329,-0.4935,-0.4388,-0.413,-0.3728,-0.323,-0.318,-0.3029,-0.2826,-0.2771,-0.2497,-0.2013,-0.1955,-0.168,-0.1118,-0.0832,-0.0549,0.0,0.0314,0.0493,0.0718,0.0942,0.0942,0.0718,0.0673,0.0493,0.009,0.0,-0.0135,-0.0404,-0.0583,-0.0718,-0.0674,-0.0539,-0.0494,-0.0495,-0.09,-0.1126,-0.117,-0.135,-0.1438,-0.1388,-0.1238,-0.1055,-0.1069,-0.0795,-0.0661,-0.0713,-0.0702,-0.0685,-0.0661,-0.0645,-0.0554,-0.0315,0.0236,0.0629,0.0864,0.1415,0.1691,0.165,0.1649,0.1255,0.0432,-0.0079,-0.0589,-0.1139,-0.149,-0.1824,-0.2325,-0.2812,-0.3277,-0.3667,-0.4193,-0.4888,-0.606,-0.6714,-0.7061,-0.7446,-0.7744,-0.7931,-0.8203,-0.8437,-0.8685,-0.8978,-0.9218,-0.9439,-0.9621,-0.9761,-0.9862,-0.9766,-0.9446,-0.9185,-0.8768,-0.8755,-0.8471,-0.3633,-0.3937,-0.4286,-0.4537,-0.469,-0.4887,-0.4935,-0.4935,-0.4834,-0.4688,-0.4438,-0.439,-0.439,-0.439,-0.4334,-0.4636,-0.519,-0.5288,-0.5436,-0.5536,-0.5338,-0.4939,-0.4388,-0.4135,-0.363,-0.3027,-0.2927,-0.2826,-0.2573,-0.2522,-0.2365,-0.1999,-0.163,-0.1211,-0.0709,-0.0419,-0.0046,0.045,0.0718,0.0897,0.0942,0.1166,0.1211,0.0987,0.0987,0.0807,0.0448,0.0448,0.0269,-0.0135,-0.009,-0.009,-0.0224,-0.0359,-0.0448,-0.0628,-0.0897,-0.1166,-0.1301,-0.1525,-0.157,-0.139,-0.1203,-0.0978,-0.076,-0.0356,-0.0134,-0.0401,-0.0352,-0.0259,-0.0255,-0.0329,-0.0321,-0.008,0.0317,0.0747,0.11,0.1493,0.1768,0.1923,0.1961,0.1568,0.0942,0.055,0.0157,-0.051,-0.0931,-0.1302,-0.1711,-0.2252,-0.2717,-0.3047,-0.3469,-0.4031,-0.4693,-0.5625,-0.6286,-0.6826,-0.7169,-0.7399,-0.7633,-0.794,-0.819,-0.8266,-0.8627,-0.8932,-0.9074,-0.9273,-0.943,-0.9236,-0.8932,-0.8607,-0.8256,-0.819,-0.7919,-0.3282,-0.3484,-0.3784,-0.4034,-0.4286,-0.4587,-0.4734,-0.4784,-0.4686,-0.4485,-0.4185,-0.4036,-0.4036,-0.3986,-0.3835,-0.4135,-0.4788,-0.4891,-0.509,-0.5286,-0.5037,-0.4688,-0.4286,-0.3934,-0.3379,-0.2724,-0.2472,-0.2321,-0.217,-0.212,-0.1969,-0.1564,-0.1296,-0.0933,-0.0434,-0.0237,0.014,0.0638,0.0906,0.104,0.1168,0.1301,0.1301,0.1166,0.1166,0.1076,0.0852,0.0852,0.0673,0.0404,0.0404,0.0314,0.0135,-0.0135,-0.0314,-0.0403,-0.0668,-0.0935,-0.1074,-0.1294,-0.1336,-0.1076,-0.0852,-0.0628,-0.0359,0.0179,0.0269,0.0089,0.0089,0.022,0.0131,0.0,-0.0041,0.0122,0.0401,0.0832,0.1338,0.1573,0.1885,0.2275,0.2314,0.1922,0.1452,0.1295,0.0824,0.0118,-0.0309,-0.0613,-0.0987,-0.1449,-0.1904,-0.2087,-0.247,-0.2968,-0.3521,-0.4258,-0.5196,-0.5774,-0.6479,-0.6749,-0.7057,-0.7365,-0.7591,-0.7672,-0.7902,-0.8246,-0.8551,-0.8751,-0.8708,-0.8513,-0.8221,-0.7953,-0.7708,-0.7533,-0.7354,-0.318,-0.323,-0.3484,-0.3736,-0.3932,-0.4185,-0.4537,-0.4636,-0.4437,-0.4085,-0.3681,-0.338,-0.3331,-0.3281,-0.3281,-0.3531,-0.3984,-0.4236,-0.4487,-0.4734,-0.4537,-0.4288,-0.3934,-0.3481,-0.2927,-0.2321,-0.1866,-0.1615,-0.162,-0.1669,-0.1415,-0.1011,-0.1111,-0.0897,-0.0392,-0.0244,0.0048,0.0606,0.0785,0.0961,0.1305,0.1349,0.1259,0.1077,0.1258,0.1259,0.1077,0.1076,0.1031,0.0987,0.0628,0.0404,0.0359,0.0135,0.009,0.0179,-0.0176,-0.0397,-0.0446,-0.0662,-0.0707,-0.0447,-0.0179,0.009,0.0314,0.0628,0.0762,0.0672,0.0672,0.0627,0.0446,0.0351,0.0342,0.0329,0.053,0.0889,0.1471,0.1811,0.2123,0.2631,0.2746,0.2627,0.2273,0.196,0.149,0.0824,0.0352,0.0078,-0.023,-0.0618,-0.0774,-0.0958,-0.1351,-0.1839,-0.2349,-0.2895,-0.3791,-0.4688,-0.5431,-0.5977,-0.6328,-0.6676,-0.6984,-0.7138,-0.7518,-0.7863,-0.8021,-0.8217,-0.8102,-0.791,-0.7581,-0.7293,-0.7085,-0.6928,-0.685,-0.2927,-0.2927,-0.3029,-0.3128,-0.3177,-0.3432,-0.3632,-0.3682,-0.3583,-0.3482,-0.333,-0.323,-0.318,-0.313,-0.3029,-0.3128,-0.343,-0.338,-0.3632,-0.4133,-0.4183,-0.3883,-0.3481,-0.3079,-0.2474,-0.1667,-0.1414,-0.1322,-0.1385,-0.1527,-0.1423,-0.1179,-0.0966,-0.065,-0.0098,0.0245,0.063,0.0947,0.0978,0.106,0.1192,0.1008,0.0911,0.0854,0.1046,0.1139,0.1123,0.1211,0.1122,0.0852,0.0852,0.0762,0.0404,0.0135,0.0045,0.009,-0.0179,-0.0401,-0.0403,-0.0446,-0.0356,-0.009,0.0224,0.0583,0.0897,0.1211,0.1346,0.1211,0.1166,0.1031,0.0672,0.0446,0.0482,0.0556,0.0631,0.0996,0.1762,0.2389,0.2757,0.2833,0.3098,0.3059,0.2707,0.2431,0.204,0.1375,0.0864,0.0508,0.0351,0.0,-0.0235,-0.0195,-0.047,-0.0745,-0.1332,-0.1919,-0.2701,-0.3754,-0.4616,-0.5321,-0.567,-0.6099,-0.637,-0.6679,-0.7061,-0.733,-0.7522,-0.7565,-0.7446,-0.7215,-0.6914,-0.6659,-0.6481,-0.6347,-0.6257,-0.2725,-0.2624,-0.2675,-0.2725,-0.2826,-0.2978,-0.313,-0.318,-0.3079,-0.3029,-0.2927,-0.2777,-0.2727,-0.2726,-0.2575,-0.2675,-0.2876,-0.2725,-0.2925,-0.3377,-0.363,-0.3531,-0.3234,-0.2644,-0.1938,-0.1176,-0.0823,-0.083,-0.0943,-0.109,-0.0986,-0.0679,-0.067,-0.0254,0.0401,0.0497,0.0737,0.1158,0.1191,0.1179,0.1218,0.117,0.1019,0.0821,0.0965,0.1006,0.0899,0.1122,0.1211,0.0987,0.0987,0.0762,0.0404,0.0224,0.009,0.0,-0.0045,-0.0133,-0.0224,-0.0223,-0.0089,0.0268,0.0628,0.0987,0.1346,0.175,0.184,0.175,0.1705,0.148,0.1031,0.0852,0.0802,0.0837,0.0734,0.1058,0.1875,0.2686,0.3039,0.3031,0.3335,0.3333,0.302,0.2824,0.2472,0.1885,0.1452,0.1139,0.1061,0.0785,0.0785,0.0746,0.0589,0.0157,-0.0392,-0.1019,-0.1686,-0.2781,-0.3915,-0.4579,-0.5126,-0.5595,-0.5986,-0.6177,-0.6521,-0.6633,-0.6826,-0.6865,-0.6822,-0.6518,-0.6225,-0.6129,-0.5987,-0.575,-0.5672,-0.2623,-0.2371,-0.2371,-0.2472,-0.2675,-0.2675,-0.2775,-0.2978,-0.2827,-0.2574,-0.2322,-0.2171,-0.2022,-0.2021,-0.2021,-0.2122,-0.227,-0.227,-0.227,-0.2472,-0.2775,-0.3031,-0.2945,-0.2004,-0.1242,-0.073,-0.0317,-0.0213,-0.0481,-0.0478,-0.016,0.0107,-0.0105,0.0208,0.0928,0.051,0.0701,0.1478,0.1373,0.1406,0.153,0.172,0.1514,0.0882,0.1023,0.0969,0.0678,0.0899,0.1166,0.1301,0.0942,0.0673,0.0493,0.0404,0.0314,0.0135,0.0309,0.0266,0.0089,0.0133,0.0309,0.0716,0.1031,0.1347,0.1847,0.2158,0.2339,0.2298,0.2248,0.2019,0.157,0.1346,0.1255,0.1118,0.1013,0.1287,0.185,0.2653,0.3026,0.3161,0.3459,0.3606,0.3139,0.3022,0.2707,0.2354,0.2079,0.1845,0.1767,0.1611,0.1847,0.1728,0.1453,0.0981,0.0392,-0.0353,-0.1059,-0.2118,-0.3214,-0.3917,-0.4621,-0.5129,-0.5518,-0.5709,-0.5902,-0.6015,-0.6131,-0.6209,-0.6089,-0.5741,-0.5605,-0.5587,-0.547,-0.5185,-0.521,-0.2172,-0.207,-0.1869,-0.1869,-0.192,-0.192,-0.1969,-0.202,-0.1969,-0.1919,-0.1818,-0.1768,-0.1718,-0.1718,-0.1718,-0.1617,-0.1566,-0.1565,-0.1515,-0.1515,-0.1616,-0.163,-0.1491,-0.1036,-0.0576,-0.0265,-0.0053,-0.0161,-0.038,-0.0161,0.0,0.0108,0.0267,0.063,0.1142,0.1239,0.1478,0.1854,0.1828,0.1815,0.1806,0.1754,0.1496,0.1187,0.1342,0.1185,0.0782,0.0769,0.0942,0.1122,0.0897,0.0673,0.0628,0.0628,0.0584,0.0539,0.0582,0.0624,0.0582,0.067,0.0938,0.121,0.1575,0.2122,0.261,0.2804,0.2987,0.3004,0.2855,0.2424,0.1841,0.157,0.1391,0.1389,0.156,0.1845,0.2096,0.272,0.3161,0.307,0.3489,0.3502,0.3219,0.2982,0.2785,0.2472,0.2199,0.2043,0.2043,0.212,0.2198,0.2237,0.204,0.1608,0.1059,0.0314,-0.0549,-0.1571,-0.2511,-0.3294,-0.3995,-0.4659,-0.4968,-0.5237,-0.5437,-0.5592,-0.5631,-0.5673,-0.5321,-0.5004,-0.4995,-0.5015,-0.4829,-0.4625,-0.4806,-0.1969,-0.1667,-0.1617,-0.1465,-0.1313,-0.1516,-0.1465,-0.1364,-0.1516,-0.1516,-0.1465,-0.1566,-0.1566,-0.1566,-0.1465,-0.1364,-0.1212,-0.1111,-0.1061,-0.101,-0.096,-0.0868,-0.0778,-0.0631,-0.0374,0.0,0.0108,0.0054,0.0055,0.0217,0.0544,0.0879,0.076,0.1231,0.2175,0.172,0.1858,0.2241,0.2257,0.2137,0.2136,0.2136,0.1918,0.1603,0.1611,0.1402,0.1033,0.0926,0.1006,0.1037,0.0852,0.0762,0.0853,0.086,0.0908,0.0909,0.1007,0.1105,0.1103,0.1189,0.1369,0.1651,0.2014,0.2391,0.2791,0.3054,0.3245,0.3361,0.3147,0.2799,0.2407,0.203,0.1841,0.1839,0.2196,0.2401,0.2265,0.2765,0.304,0.3104,0.3294,0.3525,0.3147,0.2982,0.2824,0.2628,0.2354,0.2316,0.2318,0.2393,0.251,0.2588,0.247,0.1999,0.1412,0.0706,-0.0196,-0.1218,-0.2042,-0.2785,-0.3487,-0.4151,-0.446,-0.4693,-0.4932,-0.509,-0.509,-0.5012,-0.4737,-0.454,-0.4467,-0.4349,-0.4196,-0.4177,-0.4351,-0.1921,-0.1263,-0.1465,-0.1263,-0.096,-0.1313,-0.1212,-0.096,-0.1313,-0.1415,-0.1313,-0.1465,-0.1516,-0.1566,-0.1263,-0.1162,-0.1061,-0.0808,-0.0657,-0.0506,-0.0355,-0.0307,-0.0468,-0.0478,-0.027,0.0109,0.0328,0.0497,0.0611,0.0882,0.1437,0.1835,0.1488,0.2025,0.2815,0.2226,0.2141,0.2697,0.2656,0.2531,0.2577,0.2672,0.2496,0.2124,0.1863,0.1658,0.1392,0.1236,0.1218,0.1176,0.0903,0.0997,0.1134,0.1197,0.1252,0.1349,0.1551,0.166,0.1662,0.1637,0.1729,0.2029,0.2245,0.2435,0.2895,0.3182,0.337,0.3631,0.3333,0.3037,0.2801,0.2581,0.2383,0.2288,0.2645,0.2753,0.2621,0.2781,0.3013,0.2948,0.3258,0.3332,0.3245,0.3141,0.3061,0.2863,0.2668,0.2591,0.2669,0.2785,0.2902,0.3059,0.2744,0.2313,0.1686,0.1059,0.0118,-0.0825,-0.161,-0.2393,-0.3057,-0.3602,-0.3915,-0.4151,-0.4384,-0.4504,-0.4543,-0.4387,-0.4192,-0.4034,-0.3997,-0.3803,-0.3614,-0.3691,-0.3839,-0.174,-0.1516,-0.1364,-0.1212,-0.1111,-0.101,-0.0909,-0.0859,-0.1111,-0.1263,-0.1212,-0.1263,-0.1263,-0.1263,-0.096,-0.0758,-0.0556,-0.0303,0.0,0.0456,0.0513,0.0517,0.0416,0.0315,0.0214,0.0435,0.0875,0.1104,0.1227,0.1674,0.2177,0.2516,0.2621,0.2879,0.3332,0.3197,0.3057,0.3231,0.3174,0.3091,0.3077,0.3099,0.2972,0.2652,0.2374,0.2109,0.1851,0.1635,0.152,0.1462,0.1412,0.1506,0.1597,0.1699,0.1801,0.1994,0.2094,0.2151,0.2147,0.219,0.2231,0.2577,0.281,0.3102,0.3591,0.3607,0.3802,0.3955,0.3605,0.3113,0.2777,0.2569,0.2515,0.2603,0.2869,0.3089,0.2891,0.2973,0.3036,0.3056,0.3287,0.3502,0.3428,0.3381,0.3301,0.3102,0.2982,0.2904,0.302,0.3137,0.3255,0.3372,0.2942,0.247,0.2,0.1256,0.0314,-0.0471,-0.1178,-0.1805,-0.247,-0.3018,-0.329,-0.3526,-0.38,-0.388,-0.3997,-0.3958,-0.3802,-0.3684,-0.3487,-0.3235,-0.3102,-0.3216,-0.3197,-0.1592,-0.1263,-0.1313,-0.1162,-0.0909,-0.1061,-0.101,-0.0859,-0.1111,-0.1111,-0.101,-0.101,-0.096,-0.0808,-0.0556,-0.0252,0.0,0.0252,0.0657,0.1014,0.108,0.1244,0.1613,0.1468,0.128,0.1036,0.1585,0.1876,0.2118,0.2507,0.3054,0.3471,0.3418,0.3514,0.3866,0.3788,0.3534,0.3492,0.3521,0.3526,0.3464,0.3416,0.333,0.3176,0.3045,0.2831,0.2583,0.2466,0.2305,0.2204,0.2104,0.2038,0.1918,0.2069,0.227,0.2467,0.2539,0.2693,0.2794,0.2918,0.3008,0.3273,0.3447,0.3616,0.3849,0.3934,0.4035,0.4137,0.3871,0.3388,0.2971,0.3106,0.3056,0.2915,0.3227,0.3363,0.3133,0.3105,0.3131,0.3106,0.3276,0.346,0.3522,0.3552,0.3502,0.3316,0.3103,0.3061,0.3253,0.337,0.3487,0.345,0.3059,0.2628,0.2196,0.1452,0.0471,-0.0157,-0.0668,-0.1217,-0.1727,-0.2196,-0.2627,-0.2942,-0.3255,-0.3413,-0.3491,-0.3452,-0.3333,-0.3096,-0.2862,-0.2666,-0.2518,-0.2503,-0.2471,-0.1595,-0.096,-0.1313,-0.1061,-0.0606,-0.1061,-0.101,-0.0707,-0.096,-0.0909,-0.0758,-0.0707,-0.0556,-0.0303,0.0,0.0252,0.0505,0.0758,0.1111,0.152,0.1534,0.191,0.239,0.2532,0.2467,0.1909,0.2458,0.2812,0.3001,0.3375,0.3884,0.4416,0.4145,0.425,0.446,0.4371,0.4118,0.3934,0.4055,0.4029,0.3902,0.3843,0.3755,0.3629,0.3676,0.3569,0.332,0.3215,0.3171,0.2976,0.2927,0.263,0.2392,0.229,0.256,0.2808,0.2893,0.3107,0.3353,0.353,0.3668,0.3977,0.3961,0.3949,0.4038,0.4072,0.4155,0.4241,0.4082,0.3706,0.3432,0.3493,0.3547,0.3406,0.3631,0.3671,0.3436,0.3301,0.3317,0.317,0.3431,0.3675,0.3702,0.3695,0.3656,0.3561,0.3338,0.3256,0.3411,0.3565,0.3643,0.3567,0.3176,0.2512,0.2041,0.157,0.0589,0.0196,-0.0275,-0.0629,-0.106,-0.157,-0.2041,-0.2434,-0.2749,-0.2866,-0.2943,-0.2902,-0.2744,-0.247,-0.2353,-0.2235,-0.2041,-0.1848,-0.1811,-0.1666,-0.1465,-0.1061,-0.0859,-0.0707,-0.0404,-0.0303,-0.0202,-0.0455,-0.0505,-0.0455,-0.0202,-0.0151,0.005,0.0455,0.0808,0.101,0.1214,0.1467,0.1973,0.2141,0.2571,0.2919,0.356,0.3717,0.386,0.3884,0.3868,0.3908,0.4191,0.4684,0.5089,0.5093,0.5148,0.5202,0.5355,0.5058,0.4588,0.4772,0.475,0.4523,0.44,0.4231,0.4039,0.4133,0.4085,0.3932,0.3833,0.3731,0.3478,0.3478,0.3413,0.3242,0.2949,0.2956,0.311,0.332,0.3534,0.3681,0.3823,0.3917,0.4014,0.4162,0.4221,0.4223,0.4233,0.4311,0.4369,0.4271,0.3958,0.3658,0.3765,0.3683,0.3631,0.3755,0.3872,0.3778,0.3828,0.3781,0.3558,0.3744,0.392,0.3934,0.3883,0.3826,0.3756,0.3618,0.3459,0.3487,0.3643,0.3724,0.3567,0.3335,0.2591,0.1846,0.1375,0.0786,0.055,0.0236,-0.0039,-0.0471,-0.1021,-0.1454,-0.1767,-0.2082,-0.2318,-0.2356,-0.2393,-0.2196,-0.2,-0.1883,-0.1804,-0.1452,-0.1179,-0.1179,-0.1632,-0.1367,-0.1276,-0.107,-0.0809,-0.0707,-0.0556,-0.0404,-0.0404,-0.0303,-0.0151,0.0101,0.0404,0.0606,0.0859,0.1212,0.1568,0.1838,0.2088,0.2438,0.2956,0.3306,0.3591,0.4367,0.4764,0.497,0.5038,0.505,0.4981,0.5264,0.5543,0.5766,0.5877,0.5764,0.5708,0.5875,0.5684,0.5253,0.5274,0.5288,0.4882,0.4741,0.4572,0.4547,0.4533,0.4535,0.4485,0.4585,0.4435,0.4133,0.4131,0.4133,0.3932,0.3731,0.3479,0.3629,0.3731,0.3883,0.3986,0.4185,0.4284,0.4425,0.4504,0.4516,0.4491,0.4442,0.4454,0.441,0.4382,0.4139,0.3826,0.4015,0.4082,0.4024,0.4176,0.4262,0.4247,0.438,0.4238,0.3998,0.4095,0.4211,0.4246,0.4164,0.4027,0.3947,0.3853,0.3746,0.3684,0.3724,0.3841,0.3528,0.3294,0.2668,0.1963,0.1532,0.1179,0.0943,0.0668,0.0432,0.0118,-0.0354,-0.0668,-0.0904,-0.1218,-0.1729,-0.1964,-0.2081,-0.1805,-0.1531,-0.1452,-0.1295,-0.0825,-0.055,-0.055,-0.1581,-0.1315,-0.154,-0.128,-0.086,-0.096,-0.0859,-0.0606,-0.0404,-0.0151,0.0101,0.0353,0.0758,0.1111,0.1364,0.1617,0.2074,0.2358,0.2551,0.296,0.3625,0.4013,0.447,0.5142,0.5726,0.5742,0.6086,0.6272,0.5877,0.5993,0.6272,0.6328,0.6383,0.627,0.61,0.6381,0.5987,0.5761,0.5717,0.5613,0.5236,0.4987,0.4885,0.4885,0.4834,0.4782,0.4734,0.4987,0.4939,0.4736,0.4786,0.4885,0.4636,0.4435,0.4277,0.4214,0.4161,0.4205,0.4285,0.4476,0.4557,0.465,0.4694,0.4709,0.4574,0.4497,0.4483,0.4396,0.436,0.4306,0.4132,0.4408,0.4572,0.4548,0.4662,0.4841,0.482,0.4863,0.4854,0.47,0.4554,0.4472,0.4517,0.4362,0.4266,0.4154,0.406,0.4014,0.3917,0.388,0.3843,0.3489,0.3136,0.2666,0.2198,0.1886,0.1572,0.1415,0.11,0.0825,0.0589,0.0314,0.0,-0.0314,-0.0786,-0.1257,-0.1533,-0.1651,-0.1335,-0.11,-0.1061,-0.0786,-0.0314,0.0,0.0079,-0.1651,-0.1516,-0.1317,-0.1063,-0.0809,-0.0606,-0.0353,-0.0151,-0.0101,0.0101,0.0353,0.0606,0.0909,0.1313,0.1768,0.207,0.2326,0.2537,0.2847,0.3311,0.3959,0.4512,0.5016,0.5692,0.6201,0.6422,0.6821,0.6712,0.6492,0.6439,0.6495,0.6662,0.6715,0.6657,0.6657,0.6824,0.6871,0.6614,0.6678,0.652,0.5972,0.5392,0.5196,0.5087,0.4935,0.4834,0.4885,0.5087,0.514,0.514,0.5336,0.5486,0.5436,0.5434,0.5234,0.4942,0.4563,0.4248,0.4355,0.455,0.4699,0.4691,0.4701,0.4674,0.4509,0.442,0.4427,0.4392,0.4371,0.4396,0.441,0.4611,0.4761,0.4935,0.5095,0.5331,0.5404,0.527,0.5286,0.5206,0.5031,0.4869,0.481,0.4613,0.4461,0.4386,0.4309,0.4219,0.4153,0.4077,0.3882,0.3526,0.3175,0.2743,0.2392,0.212,0.1963,0.1807,0.1533,0.1258,0.1061,0.0825,0.0393,0.0039,-0.0393,-0.0629,-0.0746,-0.0786,-0.0707,-0.0668,-0.0589,-0.0275,0.0157,0.0393,0.0668,-0.1629,-0.1568,-0.1532,-0.1326,-0.1011,-0.0758,-0.0505,-0.0252,-0.005,0.0252,0.0606,0.0707,0.1111,0.1667,0.2374,0.2725,0.2882,0.316,0.3484,0.3869,0.4521,0.5032,0.525,0.6089,0.6787,0.6805,0.7157,0.7435,0.7215,0.7215,0.7271,0.716,0.7213,0.7215,0.7154,0.721,0.7058,0.686,0.6669,0.6419,0.6105,0.5602,0.519,0.519,0.4935,0.4935,0.5087,0.5288,0.5438,0.5489,0.5687,0.5839,0.5839,0.5782,0.5695,0.5354,0.5147,0.4838,0.4613,0.4741,0.4726,0.4668,0.4649,0.4574,0.4435,0.4467,0.4533,0.4578,0.4638,0.4683,0.4797,0.5084,0.5245,0.5422,0.5572,0.5681,0.585,0.5752,0.5685,0.5595,0.553,0.5357,0.5149,0.4906,0.4751,0.4612,0.4471,0.4364,0.4268,0.4155,0.3919,0.3604,0.3251,0.286,0.2588,0.2356,0.2237,0.2119,0.1886,0.165,0.1572,0.1297,0.0904,0.0629,0.0354,0.0196,0.0039,-0.0275,-0.0511,-0.0314,-0.0079,0.0236,0.0589,0.0864,0.11,-0.1516,-0.1417,-0.159,-0.1433,-0.1061,-0.0909,-0.0606,-0.0303,-0.0101,0.0303,0.0758,0.1061,0.1516,0.2172,0.2726,0.3029,0.3185,0.3754,0.4037,0.451,0.5083,0.5437,0.5843,0.6623,0.7172,0.6988,0.7549,0.7846,0.8094,0.8211,0.8103,0.7718,0.766,0.766,0.7651,0.7491,0.7308,0.7082,0.6768,0.6559,0.6312,0.5785,0.5498,0.5338,0.5186,0.5087,0.5288,0.5539,0.5687,0.5737,0.5939,0.6089,0.6089,0.6187,0.6038,0.5855,0.573,0.5533,0.5158,0.494,0.4745,0.4612,0.4559,0.4466,0.4471,0.4614,0.475,0.4759,0.4884,0.4966,0.5144,0.5458,0.5677,0.586,0.6141,0.6202,0.6206,0.6094,0.6104,0.6123,0.6048,0.5873,0.5608,0.5268,0.5057,0.4859,0.4696,0.4538,0.4423,0.4311,0.4153,0.3917,0.337,0.3096,0.294,0.2705,0.2588,0.2392,0.2159,0.2003,0.1924,0.1729,0.1415,0.1218,0.0982,0.0707,0.0393,0.0,-0.0314,0.0,0.0354,0.0668,0.0982,0.1296,0.1573,-0.1313,-0.0909,-0.1417,-0.1316,-0.0859,-0.0808,-0.0505,-0.0101,0.0,0.0353,0.096,0.1566,0.2171,0.2675,0.2876,0.3128,0.3285,0.3651,0.409,0.4564,0.5194,0.5868,0.6386,0.6956,0.7543,0.7831,0.806,0.823,0.8514,0.8878,0.8602,0.8097,0.8066,0.7977,0.7886,0.7738,0.7544,0.7355,0.7081,0.6904,0.6639,0.6208,0.5894,0.5842,0.5687,0.5586,0.5584,0.5789,0.5939,0.5939,0.6189,0.6339,0.6389,0.6539,0.6481,0.6325,0.6393,0.6198,0.5781,0.5188,0.4727,0.4489,0.4453,0.4515,0.4692,0.467,0.4797,0.4971,0.5055,0.5146,0.5324,0.5589,0.5944,0.6175,0.6409,0.6517,0.6508,0.6423,0.6441,0.6603,0.6494,0.6249,0.618,0.5864,0.5437,0.5243,0.501,0.4851,0.4735,0.4621,0.4543,0.427,0.3647,0.3372,0.3368,0.3173,0.2899,0.2666,0.2472,0.2315,0.2196,0.2002,0.1768,0.1572,0.1296,0.1021,0.0786,0.0511,0.0393,0.055,0.0786,0.1103,0.1497,0.1852,0.2128,-0.101,-0.0808,-0.1061,-0.101,-0.0808,-0.0606,-0.0353,0.0,0.0202,0.0657,0.1313,0.1969,0.2523,0.2977,0.3429,0.3682,0.3987,0.4261,0.464,0.5091,0.566,0.6209,0.6727,0.7248,0.766,0.8077,0.831,0.8464,0.8758,0.9251,0.9129,0.877,0.857,0.8304,0.8151,0.7961,0.7719,0.7534,0.7269,0.7038,0.6839,0.6321,0.5992,0.5992,0.5737,0.5737,0.5839,0.5942,0.6092,0.6239,0.6337,0.6487,0.6639,0.6889,0.6863,0.672,0.6906,0.6752,0.629,0.5637,0.5131,0.4869,0.4804,0.4804,0.4976,0.5015,0.5113,0.5178,0.5235,0.5371,0.5552,0.5902,0.6245,0.6439,0.6589,0.6695,0.6709,0.6593,0.6606,0.6666,0.662,0.6497,0.6483,0.6479,0.6018,0.5592,0.5359,0.5126,0.5049,0.4932,0.4854,0.4659,0.4075,0.3647,0.3604,0.337,0.3095,0.294,0.2746,0.2628,0.251,0.2234,0.204,0.1805,0.1689,0.1492,0.1296,0.114,0.1061,0.0983,0.1222,0.1543,0.1977,0.237,0.2568,-0.0556,-0.0455,-0.0606,-0.0657,-0.0657,-0.0505,-0.0252,0.0,0.0303,0.0909,0.1717,0.222,0.2725,0.323,0.3732,0.4034,0.4295,0.4626,0.5163,0.5552,0.5991,0.6475,0.7009,0.7469,0.7905,0.8316,0.8558,0.8781,0.9119,0.9465,0.9475,0.9312,0.9133,0.891,0.8621,0.8286,0.803,0.7775,0.7595,0.7259,0.7122,0.6693,0.6392,0.6392,0.6189,0.6139,0.6189,0.6239,0.6292,0.6439,0.6539,0.6689,0.6892,0.7092,0.7188,0.7191,0.7241,0.7235,0.6807,0.6093,0.5521,0.5202,0.5115,0.5167,0.5249,0.5305,0.539,0.5479,0.5508,0.5552,0.5777,0.6124,0.6296,0.6451,0.657,0.6728,0.6688,0.6617,0.6641,0.6688,0.6697,0.6709,0.6613,0.661,0.6331,0.5944,0.5709,0.5476,0.5323,0.5246,0.5165,0.4932,0.454,0.4153,0.3802,0.3489,0.3175,0.3059,0.2943,0.2904,0.2785,0.2549,0.2352,0.2196,0.2041,0.1924,0.1846,0.1727,0.1532,0.1297,0.1615,0.2013,0.225,0.2602,0.2806,-0.0101,0.0303,-0.0202,-0.0404,-0.0404,-0.0404,-0.0252,0.0101,0.0404,0.106,0.1968,0.2321,0.2775,0.3279,0.3883,0.4183,0.4347,0.4806,0.5326,0.5827,0.6257,0.6837,0.7378,0.7818,0.8163,0.8672,0.8901,0.9165,0.9463,0.9939,0.999,0.9799,0.9677,0.9535,0.9261,0.922,0.8951,0.8467,0.8245,0.7854,0.7544,0.7153,0.6992,0.6939,0.6742,0.6692,0.6642,0.6539,0.6589,0.6742,0.6766,0.6918,0.7235,0.74,0.7552,0.769,0.7826,0.7928,0.7829,0.6669,0.5988,0.5588,0.5515,0.5492,0.5532,0.5578,0.5542,0.557,0.5599,0.5733,0.5994,0.621,0.6296,0.6398,0.652,0.6616,0.6577,0.645,0.6412,0.6495,0.6763,0.6896,0.6784,0.667,0.6518,0.6257,0.6057,0.5867,0.5637,0.5482,0.5362,0.5126,0.4813,0.4426,0.3997,0.353,0.3256,0.3178,0.3178,0.3217,0.3139,0.2982,0.2785,0.2588,0.247,0.2431,0.2392,0.2353,0.2237,0.2198,0.2158,0.2435,0.2633,0.2835,0.3122,0.0151,0.0151,0.0101,0.005,-0.0101,-0.0151,0.0101,0.0556,0.101,0.1615,0.2219,0.2522,0.3077,0.3682,0.4234,0.4533,0.4694,0.5304,0.5862,0.6107,0.6507,0.7133,0.7665,0.8043,0.8329,0.8692,0.907,0.9421,0.9617,1.0171,1.0273,1.0121,1.0083,0.975,0.9129,0.8841,0.856,0.8357,0.8035,0.7738,0.76,0.7388,0.7235,0.7235,0.7138,0.7042,0.7039,0.6936,0.6939,0.7027,0.6994,0.7208,0.7516,0.7727,0.7816,0.814,0.8466,0.8339,0.8259,0.7606,0.6979,0.6395,0.5981,0.5902,0.5676,0.5593,0.5569,0.5547,0.557,0.5702,0.5774,0.5858,0.5938,0.6142,0.6246,0.639,0.6354,0.6122,0.6062,0.6187,0.6371,0.6602,0.6627,0.6489,0.6352,0.6296,0.6099,0.5941,0.575,0.5595,0.5479,0.5282,0.501,0.4582,0.4192,0.3804,0.3608,0.353,0.3569,0.3606,0.3491,0.3335,0.3217,0.3057,0.2978,0.2899,0.2978,0.3057,0.3175,0.3175,0.3057,0.2918,0.3018,0.3293,0.3565,0.0556,0.0455,0.0606,0.0556,0.0404,0.0202,0.0404,0.0858,0.1363,0.1968,0.2522,0.2925,0.3479,0.4133,0.4634,0.5035,0.5135,0.5691,0.6308,0.6508,0.676,0.7268,0.7785,0.8187,0.8494,0.8768,0.9168,0.9522,0.9657,1.0237,1.0428,1.044,1.0384,0.9958,0.945,0.9153,0.8947,0.8786,0.8457,0.8204,0.7988,0.7736,0.7637,0.7537,0.7437,0.7338,0.7288,0.7288,0.7235,0.7251,0.7294,0.743,0.7771,0.7987,0.811,0.85,0.8773,0.8605,0.8429,0.8383,0.7692,0.696,0.67,0.6365,0.6005,0.5939,0.5772,0.5705,0.5607,0.5623,0.5696,0.5733,0.5849,0.601,0.6037,0.6143,0.6214,0.5996,0.6004,0.6113,0.6191,0.6364,0.6356,0.6249,0.6131,0.6135,0.6103,0.5986,0.587,0.575,0.5595,0.5362,0.5126,0.4776,0.4465,0.4194,0.3999,0.3921,0.388,0.3841,0.3724,0.3569,0.3528,0.3528,0.3448,0.3446,0.3641,0.3761,0.3871,0.3873,0.3763,0.3638,0.3525,0.3552,0.372,0.1214,0.1214,0.1214,0.1214,0.1113,0.0708,0.0606,0.0909,0.1463,0.2118,0.2775,0.3327,0.3882,0.4438,0.4989,0.5288,0.5586,0.5939,0.64,0.6856,0.6977,0.7416,0.7902,0.8376,0.8606,0.89,0.9286,0.9701,0.9646,1.0378,1.0774,1.0735,1.0627,1.031,1.0064,0.9821,0.9525,0.9133,0.8886,0.8588,0.8333,0.8329,0.8184,0.8035,0.7885,0.7789,0.769,0.7587,0.7537,0.7545,0.7514,0.7806,0.8021,0.8208,0.8394,0.8627,0.8908,0.8839,0.8645,0.8608,0.8389,0.771,0.7409,0.6976,0.6537,0.629,0.6082,0.5903,0.5772,0.5737,0.5757,0.5785,0.5861,0.586,0.5807,0.5938,0.6066,0.6054,0.6174,0.6257,0.6312,0.6338,0.6068,0.5958,0.5866,0.5802,0.5811,0.5814,0.5769,0.5948,0.5715,0.5401,0.5204,0.4929,0.4698,0.4467,0.4311,0.4153,0.4036,0.3958,0.388,0.3841,0.3841,0.3841,0.388,0.3995,0.4268,0.4453,0.4559,0.4487,0.4215,0.3878,0.3598,0.3441,0.354,0.1608,0.1624,0.1811,0.175,0.154,0.1319,0.1313,0.1465,0.2119,0.2624,0.2826,0.358,0.4183,0.4736,0.5238,0.5489,0.5789,0.6189,0.6439,0.6792,0.7092,0.7444,0.7909,0.8389,0.8657,0.9009,0.9384,0.9884,1.0195,1.0753,1.1046,1.1061,1.0949,1.0752,1.0556,1.0364,0.9871,0.9377,0.913,0.8928,0.8779,0.868,0.8581,0.8482,0.8382,0.8336,0.8283,0.8134,0.8084,0.811,0.784,0.7994,0.8554,0.8412,0.8411,0.8902,0.9203,0.9307,0.8883,0.9045,0.8914,0.834,0.8095,0.7572,0.7033,0.6569,0.6382,0.6246,0.6054,0.597,0.5844,0.5869,0.5863,0.5791,0.5753,0.5899,0.5965,0.5949,0.6025,0.6002,0.6069,0.5874,0.5646,0.5592,0.551,0.5463,0.5484,0.5583,0.5677,0.5821,0.5834,0.5521,0.5207,0.4971,0.4896,0.4704,0.4543,0.4384,0.427,0.4192,0.4229,0.419,0.4153,0.427,0.454,0.4735,0.4968,0.511,0.5236,0.465,0.4303,0.3964,0.3701,0.356,0.3528,0.2057,0.2124,0.2352,0.2376,0.2305,0.2281,0.217,0.2222,0.2725,0.2975,0.3226,0.3982,0.4535,0.4937,0.5386,0.5636,0.5789,0.6289,0.6639,0.6989,0.7188,0.754,0.7939,0.8333,0.8641,0.8973,0.9348,0.9738,1.0287,1.0757,1.1051,1.1198,1.1194,1.1051,1.0806,1.0556,1.0216,0.9673,0.9327,0.9126,0.9027,0.8977,0.8928,0.8878,0.8825,0.8825,0.8775,0.8627,0.8581,0.8559,0.823,0.8337,0.8788,0.872,0.8679,0.9112,0.9262,0.9122,0.8786,0.8906,0.8747,0.8475,0.8311,0.7967,0.759,0.7193,0.6947,0.6689,0.6442,0.6191,0.6022,0.5858,0.5774,0.573,0.5816,0.5899,0.5893,0.5831,0.5763,0.5677,0.5542,0.5327,0.5196,0.5178,0.5208,0.5254,0.5378,0.5549,0.5602,0.5671,0.5707,0.5559,0.5249,0.4973,0.494,0.4906,0.4737,0.4579,0.4423,0.4382,0.4499,0.4579,0.4543,0.489,0.5356,0.5473,0.555,0.5781,0.5829,0.5166,0.4632,0.4457,0.4165,0.3834,0.38,0.2672,0.2727,0.2883,0.2985,0.3185,0.313,0.2978,0.2876,0.3126,0.3376,0.3679,0.4433,0.4937,0.5238,0.5486,0.5789,0.5989,0.6339,0.6639,0.7138,0.7188,0.7437,0.7786,0.8233,0.8577,0.8829,0.9141,0.9615,1.0081,1.056,1.0998,1.1194,1.1194,1.1096,1.09,1.0801,1.0462,1.0019,0.9723,0.948,0.9381,0.9282,0.9179,0.9027,0.8977,0.8973,0.8874,0.8825,0.8825,0.8773,0.8743,0.8705,0.8846,0.9017,0.9031,0.9124,0.9271,0.896,0.8755,0.8759,0.852,0.8228,0.794,0.8069,0.7923,0.756,0.7231,0.711,0.6911,0.6662,0.6494,0.639,0.6346,0.6236,0.6263,0.6233,0.6092,0.5921,0.5672,0.5516,0.5273,0.5067,0.4973,0.4961,0.4979,0.5054,0.5288,0.5541,0.5627,0.566,0.5613,0.5598,0.5342,0.5112,0.5092,0.5011,0.4898,0.4774,0.4618,0.4616,0.4771,0.4851,0.4929,0.5395,0.5896,0.598,0.6086,0.6256,0.6135,0.5454,0.5043,0.4988,0.4696,0.4217,0.4021,0.3448,0.3646,0.338,0.3226,0.3185,0.318,0.318,0.313,0.338,0.3531,0.378,0.4431,0.5035,0.5436,0.5536,0.5787,0.6187,0.6339,0.6487,0.6786,0.6986,0.7285,0.7537,0.8084,0.8478,0.8829,0.913,0.9624,1.0216,1.0654,1.0949,1.1194,1.1194,1.1145,1.1047,1.0949,1.0654,1.0314,1.0068,0.992,0.9772,0.9969,0.9965,0.9764,0.9661,0.9444,0.9345,0.9167,0.9126,0.9057,0.8769,0.8685,0.8777,0.8976,0.9116,0.9183,0.9298,0.8931,0.8662,0.8637,0.8564,0.8288,0.8113,0.8288,0.8212,0.7797,0.7549,0.7512,0.7375,0.7125,0.6931,0.6922,0.6868,0.6784,0.6752,0.6568,0.6378,0.5999,0.5667,0.5378,0.5098,0.4948,0.4848,0.4797,0.4809,0.4979,0.5315,0.5568,0.5714,0.5744,0.5735,0.5639,0.5379,0.5199,0.5214,0.5167,0.5061,0.5026,0.4943,0.4937,0.5043,0.524,0.5473,0.5935,0.6321,0.6412,0.6481,0.6561,0.6303,0.5657,0.5326,0.5239,0.4981,0.4551,0.4344,0.3748,0.3878,0.3517,0.3266,0.3191,0.318,0.318,0.3232,0.3484,0.3684,0.3831,0.4384,0.4937,0.5438,0.5536,0.5787,0.6187,0.6337,0.6489,0.6689,0.6936,0.7238,0.7587,0.7988,0.8379,0.8779,0.9472,1.0068,1.0408,1.0801,1.1096,1.1194,1.1194,1.1194,1.1194,1.0998,1.0801,1.0609,1.0364,1.0265,1.0096,1.0107,1.0013,0.987,0.975,0.9672,0.9543,0.9352,0.9259,0.9216,0.9033,0.9005,0.9118,0.9245,0.9254,0.9194,0.915,0.9017,0.8668,0.8548,0.864,0.8288,0.8072,0.816,0.8285,0.7911,0.7827,0.7746,0.7484,0.7241,0.7282,0.7228,0.7095,0.6983,0.7132,0.7139,0.6708,0.6226,0.5905,0.5566,0.5243,0.4927,0.4846,0.4895,0.4908,0.4978,0.5316,0.5526,0.5674,0.5819,0.5782,0.5759,0.5561,0.5437,0.5469,0.5359,0.5238,0.5201,0.5188,0.5485,0.5667,0.5825,0.6057,0.6472,0.6743,0.6745,0.684,0.6808,0.6511,0.5925,0.5626,0.5442,0.5183,0.4944,0.482,0.3883,0.3758,0.3448,0.3236,0.3185,0.318,0.318,0.3232,0.3433,0.3684,0.3984,0.4237,0.4688,0.5188,0.5486,0.5789,0.6089,0.6389,0.6592,0.6792,0.7138,0.7341,0.759,0.7942,0.8482,0.9076,0.9772,1.0167,1.0511,1.0855,1.1047,1.1145,1.1194,1.1194,1.1194,1.1096,1.0953,1.0703,1.0507,1.0408,1.024,1.0008,0.9873,0.9713,0.954,0.9471,0.9407,0.9351,0.9282,0.9255,0.9291,0.9286,0.9295,0.9296,0.9332,0.9261,0.8977,0.8817,0.8592,0.8372,0.8245,0.8025,0.7944,0.7984,0.8157,0.8069,0.7981,0.7804,0.7547,0.7503,0.7496,0.7496,0.7363,0.7316,0.7511,0.7559,0.7004,0.6433,0.6102,0.5759,0.5397,0.5042,0.4934,0.494,0.5049,0.5122,0.5272,0.5455,0.5637,0.5757,0.5854,0.5876,0.5847,0.5743,0.559,0.5563,0.5393,0.5323,0.5347,0.5876,0.6254,0.6251,0.6475,0.6961,0.7141,0.7031,0.6937,0.6895,0.6527,0.614,0.6001,0.5814,0.5609,0.5421,0.5399,0.422,0.3698,0.3427,0.3235,0.3185,0.3181,0.318,0.318,0.3282,0.3533,0.394,0.4137,0.4585,0.5539,0.5536,0.5837,0.6339,0.6589,0.6692,0.6845,0.7244,0.7494,0.7743,0.8137,0.8733,0.9327,0.9871,1.0261,1.0511,1.0806,1.1002,1.1194,1.1194,1.1194,1.1149,1.1002,1.0757,1.056,1.0314,1.0117,1.0068,0.9976,1.0132,1.0019,0.9965,0.97,0.9515,0.9399,0.9379,0.9389,0.9414,0.9465,0.9385,0.932,0.9274,0.9293,0.9004,0.8792,0.8592,0.8372,0.8157,0.816,0.8072,0.794,0.7984,0.7852,0.772,0.754,0.7411,0.754,0.758,0.7628,0.7584,0.7628,0.7746,0.7585,0.7203,0.667,0.6231,0.5892,0.5589,0.5229,0.4942,0.5039,0.5186,0.5265,0.5349,0.5533,0.5481,0.5648,0.5829,0.5873,0.596,0.562,0.5243,0.5611,0.5547,0.5445,0.5545,0.607,0.6447,0.6525,0.6819,0.7152,0.7254,0.7146,0.7049,0.6813,0.6655,0.6348,0.6364,0.6214,0.6003,0.5834,0.5747]}]]